Darstellungsparameter: Aktuell verwendete Einstellungen:
Skalierung der Graphiken ... ?
xyx+y,   Skalierungsfaktor:      Skalierung: Modus: x, Faktor: 1
Darstellungszeitraum ... ?
Vom - - bis: - -   Zeitraum: 24.02.2003 - 02.03.2003
Min/Max/Avg-Anzeige ... ?
Zeige MMA aktuell
Zeige MMA Monat
Zeige MMA alles
Zeige --A aktuell
Zeige --A Monat
Zeige --A alles
Keine MMA-Anzeige
MMA:
Average (ber die Originaldaten)
MMA-Basis: 24.02.2003 - 02.03.2003
Quicknavigation für Darstellung... ?
Tage:      1T, 2T, 3T, 5T -1T -2T -3T -5T +1T +2T +3T +5T
Wochen: 1W, 2W, 3W -1W -2W -3W +1W +2W +3W
Monate: 1M, 3M, 6M -1M -3M -6M +1M +3M +6M
Jahre:    1J, 3J, 5J, 10J -1J -3J -5J -10J +1J +3J +5J +10J
Nutze für die Darstellung ... ?
Originaldaten oder Mittelwerte auf ...
Stundenbasis Tagesbasis Wochenbasis
Monatsbasis Jahresbasis      Datenbasis: Original-Daten
Darstellen als:
Statistik (Auto) Statistik J:M      Darstellung:

Der gewünschte Datumsbereich war nicht gültig/verfügbar und wurde korrigiert....
Das angegebene Startdatum (10.02.2003 00:00:00) liegt vor dem ersten Datenbankeintrag.


Zur Graphik,    zurück zur Übersicht aller Sensoren.
 
Tabellarische Datenbersicht: ?
 
Sensor: Nr:Datum:Temp:Abs-Feuchte:Windchill:Wind:
Aussen-T/F 1 24-02-2003 00:00:04 -0.8 C 3.44 g/m*3 -0.8 C 0 km/h
2 24-02-2003 00:10:04 -0.9 C 3.41 g/m*3 -0.9 C 0 km/h
3 24-02-2003 00:20:04 -0.9 C 3.46 g/m*3 -0.9 C 0 km/h
4 24-02-2003 00:30:04 -0.9 C 3.46 g/m*3 -0.9 C 0 km/h
5 24-02-2003 00:40:04 -1.1 C 3.41 g/m*3 -1.1 C 0 km/h
6 24-02-2003 00:50:04 -1.1 C 3.46 g/m*3 -1.1 C 0 km/h
7 24-02-2003 01:00:04 -1.2 C 3.43 g/m*3 -1.2 C 0 km/h
8 24-02-2003 01:10:04 -1.4 C 3.39 g/m*3 -1.4 C 0 km/h
9 24-02-2003 01:20:04 -1.7 C 3.31 g/m*3 -1.7 C 0 km/h
10 24-02-2003 01:30:04 -2 C 3.2 g/m*3 -2 C 0 km/h
11 24-02-2003 01:40:04 -2.1 C 3.22 g/m*3 -2.1 C 0 km/h
12 24-02-2003 01:50:04 -1.9 C 3.31 g/m*3 -1.9 C 0 km/h
13 24-02-2003 02:00:04 -1.9 C 3.35 g/m*3 -1.9 C 0 km/h
14 24-02-2003 02:10:04 -1.9 C 3.35 g/m*3 -1.9 C 0 km/h
15 24-02-2003 02:20:04 -1.9 C 3.31 g/m*3 -1.9 C 0 km/h
16 24-02-2003 02:30:04 -2.1 C 3.26 g/m*3 -2.1 C 0 km/h
17 24-02-2003 02:40:04 -2 C 3.33 g/m*3 -2 C 0 km/h
18 24-02-2003 02:50:04 -2.1 C 3.31 g/m*3 -2.1 C 0 km/h
19 24-02-2003 03:00:04 -2.3 C 3.22 g/m*3 -2.3 C 0 km/h
20 24-02-2003 03:10:04 -2.7 C 3.13 g/m*3 -2.7 C 0 km/h
21 24-02-2003 03:20:04 -2.8 C 3.11 g/m*3 -2.8 C 0 km/h
22 24-02-2003 03:30:04 -2.7 C 3.17 g/m*3 -2.7 C 0 km/h
23 24-02-2003 03:40:04 -2.8 C 3.15 g/m*3 -2.8 C 0 km/h
24 24-02-2003 03:50:04 -3 C 3.06 g/m*3 -3 C 0 km/h
25 24-02-2003 04:00:04 -3 C 3.1 g/m*3 -3 C 0 km/h
Sensor: Nr:Datum:Temp:Abs-Feuchte:Windchill:Wind:
Aussen-T/F 26 24-02-2003 04:10:04 -2.8 C 3.15 g/m*3 -2.8 C 0 km/h
27 24-02-2003 04:20:04 -2.7 C 3.21 g/m*3 -2.7 C 0 km/h
28 24-02-2003 04:30:04 -3 C 3.14 g/m*3 -3 C 0 km/h
29 24-02-2003 04:40:04 -3.1 C 3.08 g/m*3 -3.1 C 0 km/h
30 24-02-2003 04:50:04 -3 C 3.1 g/m*3 -3 C 0 km/h
31 24-02-2003 05:00:04 -3.2 C 3.06 g/m*3 -3.2 C 0 km/h
32 24-02-2003 05:10:04 -3.3 C 3.04 g/m*3 -3.3 C 0 km/h
33 24-02-2003 05:20:04 -3.3 C 3.08 g/m*3 -3.3 C 0 km/h
34 24-02-2003 05:30:04 -3.3 C 3.08 g/m*3 -3.3 C 0 km/h
35 24-02-2003 05:40:04 -3.4 C 3.02 g/m*3 -3.4 C 0 km/h
36 24-02-2003 05:50:04 -3.5 C 3.03 g/m*3 -3.5 C 0 km/h
37 24-02-2003 06:00:04 -3.7 C 2.95 g/m*3 -3.7 C 0 km/h
38 24-02-2003 06:10:04 -3.5 C 3.03 g/m*3 -3.5 C 0 km/h
39 24-02-2003 06:20:04 -3.5 C 3.03 g/m*3 -3.5 C 0 km/h
40 24-02-2003 06:30:04 -3.7 C 2.99 g/m*3 -3.7 C 0 km/h
41 24-02-2003 06:40:04 -3.9 C 2.95 g/m*3 -3.9 C 0 km/h
42 24-02-2003 06:50:04 -3.6 C 3.01 g/m*3 -3.6 C 0 km/h
43 24-02-2003 07:00:04 -3.6 C 3.05 g/m*3 -3.6 C 0 km/h
44 24-02-2003 07:10:04 -3.9 C 2.95 g/m*3 -3.9 C 0 km/h
45 24-02-2003 07:20:04 -3.8 C 2.97 g/m*3 -3.8 C 0 km/h
46 24-02-2003 07:30:04 -3.9 C 2.95 g/m*3 -3.9 C 0 km/h
47 24-02-2003 07:40:04 -4 C 2.93 g/m*3 -4 C 0 km/h
48 24-02-2003 07:50:04 -3.9 C 2.95 g/m*3 -3.9 C 0 km/h
49 24-02-2003 08:00:04 -3.8 C 2.97 g/m*3 -3.8 C 0 km/h
50 24-02-2003 08:10:04 -3.8 C 2.97 g/m*3 -3.8 C 0 km/h
Sensor: Nr:Datum:Temp:Abs-Feuchte:Windchill:Wind:
Aussen-T/F 51 24-02-2003 08:20:04 -3.9 C 2.95 g/m*3 -3.9 C 0 km/h
52 24-02-2003 08:30:04 -3.7 C 2.99 g/m*3 -3.7 C 0 km/h
53 24-02-2003 08:40:04 -3.5 C 3.03 g/m*3 -3.5 C 0 km/h
54 24-02-2003 08:50:04 -3.5 C 3.03 g/m*3 -3.5 C 0 km/h
55 24-02-2003 09:00:04 -3.3 C 3.08 g/m*3 -3.3 C 0 km/h
56 24-02-2003 09:10:04 -3.2 C 3.1 g/m*3 -3.2 C 0 km/h
57 24-02-2003 09:20:04 -2.8 C 3.19 g/m*3 -2.8 C 0 km/h
58 24-02-2003 09:30:04 -2.8 C 3.19 g/m*3 -2.8 C 0 km/h
59 24-02-2003 09:40:04 -2.7 C 3.21 g/m*3 -2.7 C 0 km/h
60 24-02-2003 09:50:04 -2.4 C 3.28 g/m*3 -2.4 C 0 km/h
61 24-02-2003 10:00:04 -2.3 C 3.3 g/m*3 -2.3 C 0 km/h
62 24-02-2003 10:10:04 -1.6 C 3.55 g/m*3 -1.6 C 0 km/h
63 24-02-2003 10:20:04 -1.2 C 3.66 g/m*3 -1.2 C 0 km/h
64 24-02-2003 10:30:04 -0.6 C 3.81 g/m*3 -0.6 C 0 km/h
65 24-02-2003 10:40:04 0 C 3.97 g/m*3 0 C 0 km/h
66 24-02-2003 10:50:04 0.2 C 4.03 g/m*3 0.2 C 0 km/h
67 24-02-2003 11:00:04 1.1 C 4.08 g/m*3 1.1 C 0 km/h
68 24-02-2003 11:10:04 1.6 C 4.16 g/m*3 1.6 C 0 km/h
69 24-02-2003 11:14:41 1.9 C 4.19 g/m*3 1.9 C 0 km/h
70 24-02-2003 11:20:41 2 C 4.17 g/m*3 2 C 0 km/h
71 24-02-2003 11:26:41 2.2 C 4.22 g/m*3 2.2 C 0 km/h
72 24-02-2003 11:32:41 2.6 C 4.28 g/m*3 2.6 C 0 km/h
73 24-02-2003 11:38:41 2.7 C 4.25 g/m*3 2.7 C 0 km/h
74 24-02-2003 11:44:41 3.3 C 4.37 g/m*3 3.3 C 0 km/h
75 24-02-2003 11:50:41 3.5 C 4.24 g/m*3 3.5 C 0 km/h
Sensor: Nr:Datum:Temp:Abs-Feuchte:Windchill:Wind:
Aussen-T/F 76 24-02-2003 11:56:41 3.7 C 4.11 g/m*3 3.7 C 0 km/h
77 24-02-2003 12:02:41 4.1 C 4.22 g/m*3 4.1 C 0 km/h
78 24-02-2003 12:44:51 6.2 C 4.04 g/m*3 6.2 C 0 km/h
79 24-02-2003 12:56:51 7 C 4.03 g/m*3 7 C 0 km/h
80 24-02-2003 13:02:51 7.2 C 4 g/m*3 7.2 C 0 km/h
81 24-02-2003 13:08:51 7.5 C 4.08 g/m*3 7.5 C 0 km/h
82 24-02-2003 13:14:51 7.8 C 4.08 g/m*3 7.8 C 0 km/h
83 24-02-2003 13:20:51 8.1 C 4.08 g/m*3 8.1 C 0 km/h
84 24-02-2003 13:26:51 8.4 C 3.99 g/m*3 8.4 C 0 km/h
85 24-02-2003 13:32:51 8.8 C 4.09 g/m*3 8.8 C 0 km/h
86 24-02-2003 13:38:51 9 C 4.06 g/m*3 9 C 0 km/h
87 24-02-2003 13:44:51 9.3 C 4.13 g/m*3 9.3 C 0 km/h
88 24-02-2003 13:50:51 9.6 C 4.03 g/m*3 9.6 C 0 km/h
89 24-02-2003 13:56:51 9.8 C 4.18 g/m*3 9.8 C 0 km/h
90 24-02-2003 14:02:51 10.3 C 4.12 g/m*3 10.3 C 0 km/h
91 24-02-2003 14:08:51 10.8 C 4.05 g/m*3 10.8 C 0 km/h
92 24-02-2003 14:14:51 11.5 C 3.93 g/m*3 11.5 C 0 km/h
93 24-02-2003 14:20:51 12 C 3.73 g/m*3 12 C 0 km/h
94 24-02-2003 14:26:51 12.2 C 3.78 g/m*3 12.2 C 0 km/h
95 24-02-2003 14:32:51 12.6 C 3.76 g/m*3 12.6 C 0 km/h
96 24-02-2003 14:38:51 12.8 C 3.7 g/m*3 12.8 C 0 km/h
97 24-02-2003 14:44:51 13.4 C 3.49 g/m*3 13.4 C 0 km/h
98 24-02-2003 14:50:51 13.6 C 3.3 g/m*3 13.6 C 0 km/h
99 24-02-2003 14:56:51 13.8 C 3.57 g/m*3 13.8 C 0 km/h
100 24-02-2003 15:02:51 13.9 C 3.48 g/m*3 13.9 C 0 km/h
Sensor: Nr:Datum:Temp:Abs-Feuchte:Windchill:Wind:
Aussen-T/F 101 24-02-2003 15:08:51 13.9 C 3.36 g/m*3 13.9 C 0 km/h
102 24-02-2003 15:14:51 13.9 C 3.6 g/m*3 13.9 C 0 km/h
103 24-02-2003 15:20:51 14 C 3.5 g/m*3 14 C 0 km/h
104 24-02-2003 15:26:51 14.1 C 3.28 g/m*3 14.1 C 0 km/h
105 24-02-2003 15:32:51 14.3 C 3.69 g/m*3 14.3 C 0 km/h
106 24-02-2003 15:38:51 14.2 C 3.66 g/m*3 14.2 C 0 km/h
107 24-02-2003 15:44:51 14.2 C 3.79 g/m*3 14.2 C 0 km/h
108 24-02-2003 15:50:51 14.4 C 3.83 g/m*3 14.4 C 0 km/h
109 24-02-2003 15:56:51 14.4 C 3.71 g/m*3 14.4 C 0 km/h
110 24-02-2003 16:02:51 14.2 C 3.66 g/m*3 14.2 C 0 km/h
111 24-02-2003 16:08:51 14.2 C 3.54 g/m*3 14.2 C 0 km/h
112 24-02-2003 16:14:51 13.8 C 3.69 g/m*3 13.8 C 0 km/h
113 24-02-2003 16:20:51 13.7 C 3.67 g/m*3 13.7 C 0 km/h
114 24-02-2003 16:26:51 13.7 C 3.91 g/m*3 13.7 C 0 km/h
115 24-02-2003 16:32:51 13.6 C 3.77 g/m*3 13.6 C 0 km/h
116 24-02-2003 16:38:51 12.8 C 3.81 g/m*3 12.8 C 0 km/h
117 24-02-2003 16:44:51 12.9 C 3.83 g/m*3 12.9 C 0 km/h
118 24-02-2003 16:50:51 12.7 C 3.9 g/m*3 12.7 C 0 km/h
119 24-02-2003 16:56:51 12.5 C 3.96 g/m*3 12.5 C 0 km/h
120 24-02-2003 17:02:51 12 C 3.84 g/m*3 12 C 0 km/h
121 24-02-2003 17:08:51 11.7 C 3.87 g/m*3 11.7 C 0 km/h
122 24-02-2003 17:14:51 11.5 C 3.93 g/m*3 11.5 C 0 km/h
123 24-02-2003 17:20:51 10.8 C 3.76 g/m*3 10.8 C 0 km/h
124 24-02-2003 17:26:51 10.4 C 3.76 g/m*3 10.4 C 0 km/h
125 24-02-2003 17:32:51 10 C 3.76 g/m*3 10 C 0 km/h
Sensor: Nr:Datum:Temp:Abs-Feuchte:Windchill:Wind:
Aussen-T/F 126 24-02-2003 17:50:07 8.6 C 3.61 g/m*3 8.6 C 0 km/h
127 24-02-2003 17:56:09 8.2 C 3.6 g/m*3 8.2 C 0 km/h
128 24-02-2003 18:02:09 7.5 C 3.6 g/m*3 7.5 C 0 km/h
129 24-02-2003 18:08:09 7.1 C 3.59 g/m*3 7.1 C 0 km/h
130 24-02-2003 18:14:09 6.7 C 3.65 g/m*3 6.7 C 0 km/h
131 24-02-2003 18:20:09 6.4 C 3.65 g/m*3 6.4 C 0 km/h
132 24-02-2003 18:26:09 6.3 C 3.63 g/m*3 6.3 C 0 km/h
133 24-02-2003 18:32:09 5.9 C 3.61 g/m*3 5.9 C 0 km/h
134 24-02-2003 18:38:09 5.8 C 3.65 g/m*3 5.8 C 0 km/h
135 24-02-2003 18:44:09 5.6 C 3.61 g/m*3 5.6 C 0 km/h
136 24-02-2003 18:50:09 5.4 C 3.63 g/m*3 5.4 C 0 km/h
137 24-02-2003 18:56:09 5.2 C 3.58 g/m*3 5.2 C 0 km/h
138 24-02-2003 19:02:09 4.9 C 3.65 g/m*3 4.9 C 0 km/h
139 24-02-2003 19:08:09 4.7 C 3.66 g/m*3 4.7 C 0 km/h
140 24-02-2003 19:14:09 4.6 C 3.64 g/m*3 4.6 C 0 km/h
141 24-02-2003 19:20:09 4.6 C 3.64 g/m*3 4.6 C 0 km/h
142 24-02-2003 19:26:09 4.4 C 3.66 g/m*3 4.4 C 0 km/h
143 24-02-2003 19:32:09 4.2 C 3.67 g/m*3 4.2 C 0 km/h
144 24-02-2003 19:38:09 4.1 C 3.65 g/m*3 4.1 C 0 km/h
145 24-02-2003 19:44:09 4 C 3.62 g/m*3 4 C 0 km/h
146 24-02-2003 19:50:09 3.7 C 3.68 g/m*3 3.7 C 0 km/h
147 24-02-2003 19:56:09 3.5 C 3.63 g/m*3 3.5 C 0 km/h
148 24-02-2003 20:03:09 3.4 C 3.6 g/m*3 3.4 C 0 km/h
149 24-02-2003 20:09:09 3 C 3.57 g/m*3 3 C 0 km/h
150 24-02-2003 20:15:09 3 C 3.57 g/m*3 3 C 0 km/h
Sensor: Nr:Datum:Temp:Abs-Feuchte:Windchill:Wind:
Aussen-T/F 151 24-02-2003 20:21:09 2.8 C 3.58 g/m*3 2.8 C 0 km/h
152 24-02-2003 20:27:09 2.8 C 3.64 g/m*3 2.8 C 0 km/h
153 24-02-2003 20:33:09 2.6 C 3.59 g/m*3 2.6 C 0 km/h
154 24-02-2003 20:39:09 2.3 C 3.57 g/m*3 2.3 C 0 km/h
155 24-02-2003 20:45:09 2.1 C 3.52 g/m*3 2.1 C 0 km/h
156 24-02-2003 20:51:09 2.1 C 3.52 g/m*3 2.1 C 0 km/h
157 24-02-2003 20:57:09 2 C 3.56 g/m*3 2 C 0 km/h
158 24-02-2003 21:03:09 2 C 3.56 g/m*3 2 C 0 km/h
159 24-02-2003 21:09:09 2 C 3.56 g/m*3 2 C 0 km/h
160 24-02-2003 21:15:09 1.6 C 3.51 g/m*3 1.6 C 0 km/h
161 24-02-2003 21:21:09 1.4 C 3.47 g/m*3 1.4 C 0 km/h
162 24-02-2003 21:27:09 1.2 C 3.42 g/m*3 1.2 C 0 km/h
163 24-02-2003 21:33:09 0.9 C 3.4 g/m*3 0.9 C 0 km/h
164 24-02-2003 21:39:09 0.8 C 3.38 g/m*3 0.8 C 0 km/h
165 24-02-2003 21:45:09 0.9 C 3.51 g/m*3 0.9 C 0 km/h
166 24-02-2003 21:51:09 1 C 3.48 g/m*3 1 C 0 km/h
167 24-02-2003 21:57:09 1.2 C 3.53 g/m*3 1.2 C 0 km/h
168 24-02-2003 22:03:09 1.2 C 3.47 g/m*3 1.2 C 0 km/h
169 24-02-2003 22:09:09 1.1 C 3.45 g/m*3 1.1 C 0 km/h
170 24-02-2003 22:15:09 0.8 C 3.48 g/m*3 0.8 C 0 km/h
171 24-02-2003 22:21:09 0.7 C 3.46 g/m*3 0.7 C 0 km/h
172 24-02-2003 22:27:09 0.5 C 3.41 g/m*3 0.5 C 0 km/h
173 24-02-2003 22:33:09 0.2 C 3.39 g/m*3 0.2 C 0 km/h
174 24-02-2003 22:39:09 0 C 3.34 g/m*3 0 C 0 km/h
175 24-02-2003 22:45:09 0 C 3.39 g/m*3 0 C 0 km/h
Sensor: Nr:Datum:Temp:Abs-Feuchte:Windchill:Wind:
Aussen-T/F 176 24-02-2003 22:51:09 0 C 3.44 g/m*3 0 C 0 km/h
177 24-02-2003 22:57:09 -0.2 C 3.39 g/m*3 -0.2 C 0 km/h
178 24-02-2003 23:03:09 -0.4 C 3.3 g/m*3 -0.4 C 0 km/h
179 24-02-2003 23:09:09 -0.5 C 3.37 g/m*3 -0.5 C 0 km/h
180 24-02-2003 23:15:09 -0.5 C 3.37 g/m*3 -0.5 C 0 km/h
181 24-02-2003 23:21:09 -0.7 C 3.32 g/m*3 -0.7 C 0 km/h
182 24-02-2003 23:27:09 -0.7 C 3.32 g/m*3 -0.7 C 0 km/h
183 24-02-2003 23:33:09 -0.9 C 3.28 g/m*3 -0.9 C 0 km/h
184 24-02-2003 23:39:09 -1.1 C 3.23 g/m*3 -1.1 C 0 km/h
185 24-02-2003 23:45:09 -1.2 C 3.21 g/m*3 -1.2 C 0 km/h
186 24-02-2003 23:51:09 -1.3 C 3.19 g/m*3 -1.3 C 0 km/h
187 24-02-2003 23:57:09 -1.3 C 3.23 g/m*3 -1.3 C 0 km/h
188 25-02-2003 00:03:09 -1.3 C 3.23 g/m*3 -1.3 C 0 km/h
189 25-02-2003 00:09:09 -1.1 C 3.28 g/m*3 -1.1 C 0 km/h
190 25-02-2003 00:15:09 -1.2 C 3.25 g/m*3 -1.2 C 0 km/h
191 25-02-2003 00:21:09 -1.2 C 3.25 g/m*3 -1.2 C 0 km/h
192 25-02-2003 00:27:09 -1.3 C 3.23 g/m*3 -1.3 C 0 km/h
193 25-02-2003 00:33:09 -1.4 C 3.21 g/m*3 -1.4 C 0 km/h
194 25-02-2003 00:39:09 -1.3 C 3.28 g/m*3 -1.3 C 0 km/h
195 25-02-2003 00:45:09 -1.3 C 3.28 g/m*3 -1.3 C 0 km/h
196 25-02-2003 00:51:09 -1.5 C 3.23 g/m*3 -1.5 C 0 km/h
197 25-02-2003 00:57:09 -1.7 C 3.19 g/m*3 -1.7 C 0 km/h
198 25-02-2003 01:03:09 -1.7 C 3.14 g/m*3 -1.7 C 0 km/h
199 25-02-2003 01:09:09 -1.7 C 3.19 g/m*3 -1.7 C 0 km/h
200 25-02-2003 01:15:09 -1.8 C 3.16 g/m*3 -1.8 C 0 km/h
Sensor: Nr:Datum:Temp:Abs-Feuchte:Windchill:Wind:
Aussen-T/F 201 25-02-2003 01:21:09 -1.9 C 3.14 g/m*3 -1.9 C 0 km/h
202 25-02-2003 01:27:09 -2 C 3.12 g/m*3 -2 C 0 km/h
203 25-02-2003 01:33:09 -2.2 C 3.08 g/m*3 -2.2 C 0 km/h
204 25-02-2003 01:39:09 -2.3 C 3.05 g/m*3 -2.3 C 0 km/h
205 25-02-2003 01:45:09 -2.4 C 3.03 g/m*3 -2.4 C 0 km/h
206 25-02-2003 01:51:09 -2.4 C 3.07 g/m*3 -2.4 C 0 km/h
207 25-02-2003 01:57:09 -2.3 C 3.1 g/m*3 -2.3 C 0 km/h
208 25-02-2003 02:03:09 -2.3 C 3.14 g/m*3 -2.3 C 0 km/h
209 25-02-2003 02:09:09 -2.3 C 3.1 g/m*3 -2.3 C 0 km/h
210 25-02-2003 02:15:09 -2.3 C 3.1 g/m*3 -2.3 C 0 km/h
211 25-02-2003 02:21:09 -2.3 C 3.1 g/m*3 -2.3 C 0 km/h
212 25-02-2003 02:27:09 -2.3 C 3.1 g/m*3 -2.3 C 0 km/h
213 25-02-2003 02:33:09 -2.6 C 3.03 g/m*3 -2.6 C 0 km/h
214 25-02-2003 02:39:09 -2.8 C 2.99 g/m*3 -2.8 C 0 km/h
215 25-02-2003 02:45:09 -2.8 C 3.03 g/m*3 -2.8 C 0 km/h
216 25-02-2003 02:51:09 -2.8 C 3.03 g/m*3 -2.8 C 0 km/h
217 25-02-2003 02:57:09 -2.9 C 3.01 g/m*3 -2.9 C 0 km/h
218 25-02-2003 03:03:09 -2.7 C 3.05 g/m*3 -2.7 C 0 km/h
219 25-02-2003 03:09:09 -2.9 C 3.01 g/m*3 -2.9 C 0 km/h
220 25-02-2003 03:15:09 -2.9 C 3.01 g/m*3 -2.9 C 0 km/h
221 25-02-2003 03:21:09 -3 C 2.99 g/m*3 -3 C 0 km/h
222 25-02-2003 03:27:09 -2.9 C 3.01 g/m*3 -2.9 C 0 km/h
223 25-02-2003 03:33:09 -3 C 2.99 g/m*3 -3 C 0 km/h
224 25-02-2003 03:39:09 -3.1 C 2.93 g/m*3 -3.1 C 0 km/h
225 25-02-2003 03:45:09 -3.2 C 2.9 g/m*3 -3.2 C 0 km/h
Sensor: Nr:Datum:Temp:Abs-Feuchte:Windchill:Wind:
Aussen-T/F 226 25-02-2003 03:51:09 -3.2 C 2.94 g/m*3 -3.2 C 0 km/h
227 25-02-2003 03:57:09 -3.3 C 2.92 g/m*3 -3.3 C 0 km/h
228 25-02-2003 04:03:09 -3.2 C 2.94 g/m*3 -3.2 C 0 km/h
229 25-02-2003 04:09:09 -3.2 C 2.94 g/m*3 -3.2 C 0 km/h
230 25-02-2003 04:15:09 -3.4 C 2.9 g/m*3 -3.4 C 0 km/h
231 25-02-2003 04:21:09 -3.5 C 2.88 g/m*3 -3.5 C 0 km/h
232 25-02-2003 04:27:09 -3.5 C 2.88 g/m*3 -3.5 C 0 km/h
233 25-02-2003 04:33:09 -3.6 C 2.86 g/m*3 -3.6 C 0 km/h
234 25-02-2003 04:39:09 -3.6 C 2.86 g/m*3 -3.6 C 0 km/h
235 25-02-2003 04:45:09 -3.5 C 2.92 g/m*3 -3.5 C 0 km/h
236 25-02-2003 04:51:09 -3.8 C 2.82 g/m*3 -3.8 C 0 km/h
237 25-02-2003 04:57:09 -4 C 2.74 g/m*3 -4 C 0 km/h
238 25-02-2003 05:03:09 -4.1 C 2.72 g/m*3 -4.1 C 0 km/h
239 25-02-2003 05:09:09 -4.2 C 2.74 g/m*3 -4.2 C 0 km/h
240 25-02-2003 05:15:09 -4.2 C 2.78 g/m*3 -4.2 C 0 km/h
241 25-02-2003 05:21:09 -4.3 C 2.76 g/m*3 -4.3 C 0 km/h
242 25-02-2003 05:27:09 -4.4 C 2.7 g/m*3 -4.4 C 0 km/h
243 25-02-2003 05:33:09 -4.7 C 2.64 g/m*3 -4.7 C 0 km/h
244 25-02-2003 05:39:09 -4.7 C 2.64 g/m*3 -4.7 C 0 km/h
245 25-02-2003 05:45:09 -4.7 C 2.64 g/m*3 -4.7 C 0 km/h
246 25-02-2003 05:51:09 -4.7 C 2.68 g/m*3 -4.7 C 0 km/h
247 25-02-2003 05:57:09 -4.8 C 2.66 g/m*3 -4.8 C 0 km/h
248 25-02-2003 06:03:09 -4.8 C 2.66 g/m*3 -4.8 C 0 km/h
249 25-02-2003 06:09:09 -4.8 C 2.66 g/m*3 -4.8 C 0 km/h
250 25-02-2003 06:15:09 -4.9 C 2.64 g/m*3 -4.9 C 0 km/h
Sensor: Nr:Datum:Temp:Abs-Feuchte:Windchill:Wind:
Aussen-T/F 251 25-02-2003 06:21:09 -4.9 C 2.64 g/m*3 -4.9 C 0 km/h
252 25-02-2003 06:27:09 -4.8 C 2.66 g/m*3 -4.8 C 0 km/h
253 25-02-2003 06:33:09 -4.9 C 2.64 g/m*3 -4.9 C 0 km/h
254 25-02-2003 06:39:09 -5 C 2.62 g/m*3 -5 C 0 km/h
255 25-02-2003 06:45:09 -5 C 2.62 g/m*3 -5 C 0 km/h
256 25-02-2003 06:51:09 -5.1 C 2.6 g/m*3 -5.1 C 0 km/h
257 25-02-2003 06:57:09 -5.2 C 2.58 g/m*3 -5.2 C 0 km/h
258 25-02-2003 07:03:09 -5.2 C 2.58 g/m*3 -5.2 C 0 km/h
259 25-02-2003 07:09:09 -5.4 C 2.55 g/m*3 -5.4 C 0 km/h
260 25-02-2003 07:15:09 -5.4 C 2.55 g/m*3 -5.4 C 0 km/h
261 25-02-2003 07:21:09 -5.5 C 2.53 g/m*3 -5.5 C 0 km/h
262 25-02-2003 07:27:09 -5.5 C 2.53 g/m*3 -5.5 C 0 km/h
263 25-02-2003 07:33:09 -5.4 C 2.55 g/m*3 -5.4 C 0 km/h
264 25-02-2003 07:39:09 -5.5 C 2.53 g/m*3 -5.5 C 0 km/h
265 25-02-2003 07:45:09 -5.4 C 2.55 g/m*3 -5.4 C 0 km/h
266 25-02-2003 07:51:09 -5.4 C 2.55 g/m*3 -5.4 C 0 km/h
267 25-02-2003 07:57:09 -5.4 C 2.55 g/m*3 -5.4 C 0 km/h
268 25-02-2003 08:03:09 -5.3 C 2.57 g/m*3 -5.3 C 0 km/h
269 25-02-2003 08:09:09 -5.2 C 2.58 g/m*3 -5.2 C 0 km/h
270 25-02-2003 08:15:09 -5.1 C 2.6 g/m*3 -5.1 C 0 km/h
271 25-02-2003 08:21:09 -5 C 2.62 g/m*3 -5 C 0 km/h
272 25-02-2003 08:27:09 -5.1 C 2.6 g/m*3 -5.1 C 0 km/h
273 25-02-2003 08:33:09 -5 C 2.62 g/m*3 -5 C 0 km/h
274 25-02-2003 08:39:09 -5 C 2.62 g/m*3 -5 C 0 km/h
275 25-02-2003 08:45:09 -5 C 2.62 g/m*3 -5 C 0 km/h
Sensor: Nr:Datum:Temp:Abs-Feuchte:Windchill:Wind:
Aussen-T/F 276 25-02-2003 08:51:09 -5 C 2.62 g/m*3 -5 C 0 km/h
277 25-02-2003 08:57:09 -4.7 C 2.71 g/m*3 -4.7 C 0 km/h
278 25-02-2003 09:03:09 -4.7 C 2.71 g/m*3 -4.7 C 0 km/h
279 25-02-2003 09:09:09 -4.6 C 2.73 g/m*3 -4.6 C 0 km/h
280 25-02-2003 09:15:09 -4.6 C 2.7 g/m*3 -4.6 C 0 km/h
281 25-02-2003 09:21:09 -4.4 C 2.74 g/m*3 -4.4 C 0 km/h
282 25-02-2003 09:27:09 -4.4 C 2.74 g/m*3 -4.4 C 0 km/h
283 25-02-2003 09:33:09 -4.3 C 2.76 g/m*3 -4.3 C 0 km/h
284 25-02-2003 09:39:09 -4.2 C 2.81 g/m*3 -4.2 C 0 km/h
285 25-02-2003 09:45:09 -4.1 C 2.83 g/m*3 -4.1 C 0 km/h
286 25-02-2003 09:51:09 -4 C 2.85 g/m*3 -4 C 0 km/h
287 25-02-2003 09:57:09 -3.8 C 2.89 g/m*3 -3.8 C 0 km/h
288 25-02-2003 10:03:09 -3.5 C 2.99 g/m*3 -3.5 C 0 km/h
289 25-02-2003 10:09:09 -3 C 3.14 g/m*3 -3 C 0 km/h
290 25-02-2003 10:15:09 -2.7 C 3.25 g/m*3 -2.7 C 0 km/h
291 25-02-2003 10:21:09 -2.3 C 3.34 g/m*3 -2.3 C 0 km/h
292 25-02-2003 10:27:09 -1.9 C 3.44 g/m*3 -1.9 C 0 km/h
293 25-02-2003 10:33:09 -1.2 C 3.57 g/m*3 -1.2 C 0 km/h
294 25-02-2003 10:39:09 -0.9 C 3.64 g/m*3 -0.9 C 0 km/h
295 25-02-2003 10:45:09 -0.4 C 3.72 g/m*3 -0.4 C 0 km/h
296 25-02-2003 10:51:09 -0.2 C 3.73 g/m*3 -0.2 C 0 km/h
297 25-02-2003 10:57:09 0.2 C 3.83 g/m*3 0.2 C 0 km/h
298 25-02-2003 11:03:09 0.3 C 3.86 g/m*3 0.3 C 0 km/h
299 25-02-2003 11:09:09 0.7 C 3.97 g/m*3 0.7 C 0 km/h
300 25-02-2003 11:15:09 0.7 C 3.97 g/m*3 0.7 C 0 km/h
Sensor: Nr:Datum:Temp:Abs-Feuchte:Windchill:Wind:
Aussen-T/F 301 25-02-2003 11:21:09 1.3 C 3.97 g/m*3 1.3 C 0 km/h
302 25-02-2003 11:27:09 1.5 C 3.97 g/m*3 1.5 C 0 km/h
303 25-02-2003 11:33:09 1.8 C 3.89 g/m*3 1.8 C 0 km/h
304 25-02-2003 11:39:09 2.5 C 3.68 g/m*3 2.5 C 0 km/h
305 25-02-2003 11:45:09 2.9 C 3.48 g/m*3 2.9 C 0 km/h
306 25-02-2003 11:51:09 3 C 3.39 g/m*3 3 C 0 km/h
307 25-02-2003 11:57:09 3.3 C 3.52 g/m*3 3.3 C 0 km/h
308 25-02-2003 12:03:09 3.6 C 3.53 g/m*3 3.6 C 0 km/h
309 25-02-2003 12:09:09 4.1 C 3.26 g/m*3 4.1 C 0 km/h
310 25-02-2003 12:15:09 4.8 C 3.08 g/m*3 4.8 C 0 km/h
311 25-02-2003 12:21:09 5.2 C 3.1 g/m*3 5.2 C 0 km/h
312 25-02-2003 12:27:09 5.7 C 3.06 g/m*3 5.7 C 0 km/h
313 25-02-2003 12:33:09 6.1 C 3 g/m*3 6.1 C 0 km/h
314 25-02-2003 12:39:09 6.3 C 2.96 g/m*3 6.3 C 0 km/h
315 25-02-2003 12:45:09 6.5 C 3 g/m*3 6.5 C 0 km/h
316 25-02-2003 12:51:09 6.9 C 3 g/m*3 6.9 C 0 km/h
317 25-02-2003 12:57:09 7.2 C 2.98 g/m*3 7.2 C 0 km/h
318 25-02-2003 13:03:09 7.4 C 2.94 g/m*3 7.4 C 0 km/h
319 25-02-2003 13:09:09 7.7 C 2.92 g/m*3 7.7 C 0 km/h
320 25-02-2003 13:15:09 7.9 C 2.96 g/m*3 7.9 C 0 km/h
321 25-02-2003 13:21:09 8.2 C 2.93 g/m*3 8.2 C 0 km/h
322 25-02-2003 13:27:09 8.6 C 3.01 g/m*3 8.6 C 0 km/h
323 25-02-2003 13:33:09 8.9 C 2.98 g/m*3 8.9 C 0 km/h
324 25-02-2003 13:39:09 9.1 C 2.93 g/m*3 9.1 C 0 km/h
325 25-02-2003 13:45:09 9.4 C 2.98 g/m*3 9.4 C 0 km/h
Sensor: Nr:Datum:Temp:Abs-Feuchte:Windchill:Wind:
Aussen-T/F 326 25-02-2003 13:51:09 9.6 C 2.93 g/m*3 9.6 C 0 km/h
327 25-02-2003 13:57:09 9.8 C 3.06 g/m*3 9.8 C 0 km/h
328 25-02-2003 14:03:09 10.2 C 2.95 g/m*3 10.2 C 0 km/h
329 25-02-2003 14:09:09 10.3 C 2.87 g/m*3 10.3 C 0 km/h
330 25-02-2003 14:15:09 10.5 C 2.91 g/m*3 10.5 C 0 km/h
331 25-02-2003 14:21:09 10.8 C 2.97 g/m*3 10.8 C 0 km/h
332 25-02-2003 14:33:09 11 C 3 g/m*3 11 C 0 km/h
333 25-02-2003 14:39:09 11.3 C 3.06 g/m*3 11.3 C 0 km/h
334 25-02-2003 14:45:09 11.7 C 3.14 g/m*3 11.7 C 0 km/h
335 25-02-2003 14:51:09 11.5 C 3.1 g/m*3 11.5 C 0 km/h
336 25-02-2003 14:57:09 11.9 C 3.07 g/m*3 11.9 C 0 km/h
337 25-02-2003 15:03:09 12.1 C 2.9 g/m*3 12.1 C 0 km/h
338 25-02-2003 15:09:09 12.2 C 3.02 g/m*3 12.2 C 0 km/h
339 25-02-2003 15:15:09 12.3 C 3.26 g/m*3 12.3 C 0 km/h
340 25-02-2003 15:21:09 12.4 C 3.28 g/m*3 12.4 C 0 km/h
341 25-02-2003 15:27:09 12.4 C 3.17 g/m*3 12.4 C 0 km/h
342 25-02-2003 15:33:09 12.5 C 3.08 g/m*3 12.5 C 0 km/h
343 25-02-2003 15:39:09 12.6 C 3.32 g/m*3 12.6 C 0 km/h
344 25-02-2003 15:45:09 12.7 C 3.23 g/m*3 12.7 C 0 km/h
345 25-02-2003 15:51:09 12.8 C 3.25 g/m*3 12.8 C 0 km/h
346 25-02-2003 15:57:09 12.9 C 3.16 g/m*3 12.9 C 0 km/h
347 25-02-2003 16:03:09 12.7 C 2.89 g/m*3 12.7 C 0 km/h
348 25-02-2003 16:09:09 12.8 C 3.02 g/m*3 12.8 C 0 km/h
349 25-02-2003 16:15:09 12.7 C 3.12 g/m*3 12.7 C 0 km/h
350 25-02-2003 16:21:09 12.5 C 3.19 g/m*3 12.5 C 0 km/h
Sensor: Nr:Datum:Temp:Abs-Feuchte:Windchill:Wind:
Aussen-T/F 351 25-02-2003 16:27:09 12.2 C 3.24 g/m*3 12.2 C 0 km/h
352 25-02-2003 16:33:09 12 C 3.2 g/m*3 12 C 0 km/h
353 25-02-2003 16:39:09 11.8 C 3.37 g/m*3 11.8 C 0 km/h
354 25-02-2003 16:45:09 11.7 C 3.35 g/m*3 11.7 C 0 km/h
355 25-02-2003 16:51:09 11.4 C 3.28 g/m*3 11.4 C 0 km/h
356 25-02-2003 16:57:09 11 C 3.2 g/m*3 11 C 0 km/h
357 25-02-2003 17:03:09 10.7 C 3.24 g/m*3 10.7 C 0 km/h
358 25-02-2003 17:09:09 10.8 C 3.36 g/m*3 10.8 C 0 km/h
359 25-02-2003 17:15:09 10.3 C 3.26 g/m*3 10.3 C 0 km/h
360 25-02-2003 17:21:09 10.1 C 3.22 g/m*3 10.1 C 0 km/h
361 25-02-2003 17:27:09 9.6 C 3.21 g/m*3 9.6 C 0 km/h
362 25-02-2003 17:33:09 8.8 C 3.13 g/m*3 8.8 C 0 km/h
363 25-02-2003 17:39:09 8.1 C 3.16 g/m*3 8.1 C 0 km/h
364 25-02-2003 17:45:09 7.5 C 3.2 g/m*3 7.5 C 0 km/h
365 25-02-2003 17:51:09 7 C 3.18 g/m*3 7 C 0 km/h
366 25-02-2003 17:57:09 6.7 C 3.19 g/m*3 6.7 C 0 km/h
367 25-02-2003 18:03:09 6.2 C 3.24 g/m*3 6.2 C 0 km/h
368 25-02-2003 18:09:09 5.9 C 3.17 g/m*3 5.9 C 0 km/h
369 25-02-2003 18:15:09 5.6 C 3.18 g/m*3 5.6 C 0 km/h
370 25-02-2003 18:21:09 5.5 C 3.16 g/m*3 5.5 C 0 km/h
371 25-02-2003 18:27:09 5.2 C 3.17 g/m*3 5.2 C 0 km/h
372 25-02-2003 18:33:09 4.9 C 3.17 g/m*3 4.9 C 0 km/h
373 25-02-2003 18:39:09 4.7 C 3.13 g/m*3 4.7 C 0 km/h
374 25-02-2003 18:45:09 4.5 C 3.16 g/m*3 4.5 C 0 km/h
375 25-02-2003 18:51:09 4.1 C 3.26 g/m*3 4.1 C 0 km/h
Sensor: Nr:Datum:Temp:Abs-Feuchte:Windchill:Wind:
Aussen-T/F 376 25-02-2003 18:57:09 3.8 C 3.26 g/m*3 3.8 C 0 km/h
377 25-02-2003 19:03:09 3.7 C 3.18 g/m*3 3.7 C 0 km/h
378 25-02-2003 19:09:09 3.6 C 3.22 g/m*3 3.6 C 0 km/h
379 25-02-2003 19:15:09 3.5 C 3.26 g/m*3 3.5 C 0 km/h
380 25-02-2003 19:21:09 3.2 C 3.19 g/m*3 3.2 C 0 km/h
381 25-02-2003 19:27:09 3.1 C 3.23 g/m*3 3.1 C 0 km/h
382 25-02-2003 19:33:09 2.9 C 3.25 g/m*3 2.9 C 0 km/h
383 25-02-2003 19:39:09 2.8 C 3.28 g/m*3 2.8 C 0 km/h
384 25-02-2003 19:45:09 2.7 C 3.26 g/m*3 2.7 C 0 km/h
385 25-02-2003 19:51:09 2.5 C 3.28 g/m*3 2.5 C 0 km/h
386 25-02-2003 19:57:09 2.4 C 3.25 g/m*3 2.4 C 0 km/h
387 25-02-2003 20:04:10 2.1 C 3.24 g/m*3 2.1 C 0 km/h
388 25-02-2003 20:10:10 2 C 3.22 g/m*3 2 C 0 km/h
389 25-02-2003 20:16:10 2 C 3.22 g/m*3 2 C 0 km/h
390 25-02-2003 20:22:10 2 C 3.17 g/m*3 2 C 0 km/h
391 25-02-2003 20:28:10 1.8 C 3.12 g/m*3 1.8 C 0 km/h
392 25-02-2003 20:34:10 1.8 C 3.12 g/m*3 1.8 C 0 km/h
393 25-02-2003 20:40:10 1.7 C 3.1 g/m*3 1.7 C 0 km/h
394 25-02-2003 20:46:10 1.4 C 3.09 g/m*3 1.4 C 0 km/h
395 25-02-2003 20:52:10 1.1 C 3.08 g/m*3 1.1 C 0 km/h
396 25-02-2003 20:58:10 1 C 3.11 g/m*3 1 C 0 km/h
397 25-02-2003 21:04:10 0.8 C 3.17 g/m*3 0.8 C 0 km/h
398 25-02-2003 21:10:10 0.7 C 3.2 g/m*3 0.7 C 0 km/h
399 25-02-2003 21:16:10 0.5 C 3.16 g/m*3 0.5 C 0 km/h
400 25-02-2003 21:22:10 0.3 C 3.07 g/m*3 0.3 C 0 km/h
Sensor: Nr:Datum:Temp:Abs-Feuchte:Windchill:Wind:
Aussen-T/F 401 25-02-2003 21:28:10 0.2 C 3.09 g/m*3 0.2 C 0 km/h
402 25-02-2003 21:34:10 0.2 C 3.14 g/m*3 0.2 C 0 km/h
403 25-02-2003 21:40:10 0.2 C 3.14 g/m*3 0.2 C 0 km/h
404 25-02-2003 21:46:10 0.1 C 3.12 g/m*3 0.1 C 0 km/h
405 25-02-2003 21:52:10 0 C 3.1 g/m*3 0 C 0 km/h
406 25-02-2003 21:58:10 -0.2 C 3.06 g/m*3 -0.2 C 0 km/h
407 25-02-2003 22:04:10 -0.2 C 3.11 g/m*3 -0.2 C 0 km/h
408 25-02-2003 22:10:10 -0.4 C 3.11 g/m*3 -0.4 C 0 km/h
409 25-02-2003 22:16:10 -0.6 C 3.02 g/m*3 -0.6 C 0 km/h
410 25-02-2003 22:22:10 -0.8 C 3.03 g/m*3 -0.8 C 0 km/h
411 25-02-2003 22:28:10 -0.6 C 3.11 g/m*3 -0.6 C 0 km/h
412 25-02-2003 22:34:10 -0.6 C 3.07 g/m*3 -0.6 C 0 km/h
413 25-02-2003 22:40:10 -0.7 C 3.05 g/m*3 -0.7 C 0 km/h
414 25-02-2003 22:46:10 -0.5 C 3.09 g/m*3 -0.5 C 0 km/h
415 25-02-2003 22:52:10 -0.6 C 3.02 g/m*3 -0.6 C 0 km/h
416 25-02-2003 22:58:10 -0.9 C 2.96 g/m*3 -0.9 C 0 km/h
417 25-02-2003 23:04:10 -1.1 C 2.92 g/m*3 -1.1 C 0 km/h
418 25-02-2003 23:10:10 -1.2 C 2.94 g/m*3 -1.2 C 0 km/h
419 25-02-2003 23:16:10 -1.3 C 2.92 g/m*3 -1.3 C 0 km/h
420 25-02-2003 23:22:10 -1.4 C 2.9 g/m*3 -1.4 C 0 km/h
421 25-02-2003 23:28:10 -1.4 C 2.95 g/m*3 -1.4 C 0 km/h
422 25-02-2003 23:34:10 -1.4 C 2.95 g/m*3 -1.4 C 0 km/h
423 25-02-2003 23:40:10 -1.5 C 2.92 g/m*3 -1.5 C 0 km/h
424 25-02-2003 23:46:10 -1.4 C 2.95 g/m*3 -1.4 C 0 km/h
425 25-02-2003 23:52:10 -1.5 C 2.92 g/m*3 -1.5 C 0 km/h
Sensor: Nr:Datum:Temp:Abs-Feuchte:Windchill:Wind:
Aussen-T/F 426 25-02-2003 23:58:10 -1.7 C 2.84 g/m*3 -1.7 C 0 km/h
427 26-02-2003 00:04:10 -2 C 2.78 g/m*3 -2 C 0 km/h
428 26-02-2003 00:10:10 -2.1 C 2.8 g/m*3 -2.1 C 0 km/h
429 26-02-2003 00:16:10 -2.1 C 2.85 g/m*3 -2.1 C 0 km/h
430 26-02-2003 00:22:10 -2.2 C 2.78 g/m*3 -2.2 C 0 km/h
431 26-02-2003 00:28:10 -2.3 C 2.81 g/m*3 -2.3 C 0 km/h
432 26-02-2003 00:34:10 -2.2 C 2.87 g/m*3 -2.2 C 0 km/h
433 26-02-2003 00:40:10 -2.3 C 2.85 g/m*3 -2.3 C 0 km/h
434 26-02-2003 00:46:10 -2.3 C 2.85 g/m*3 -2.3 C 0 km/h
435 26-02-2003 00:52:10 -2.4 C 2.83 g/m*3 -2.4 C 0 km/h
436 26-02-2003 00:58:10 -2.5 C 2.81 g/m*3 -2.5 C 0 km/h
437 26-02-2003 01:04:10 -2.6 C 2.83 g/m*3 -2.6 C 0 km/h
438 26-02-2003 01:10:10 -2.7 C 2.81 g/m*3 -2.7 C 0 km/h
439 26-02-2003 01:16:10 -2.8 C 2.79 g/m*3 -2.8 C 0 km/h
440 26-02-2003 01:22:10 -2.9 C 2.77 g/m*3 -2.9 C 0 km/h
441 26-02-2003 01:28:10 -2.7 C 2.81 g/m*3 -2.7 C 0 km/h
442 26-02-2003 01:34:10 -2.7 C 2.85 g/m*3 -2.7 C 0 km/h
443 26-02-2003 01:40:10 -2.8 C 2.83 g/m*3 -2.8 C 0 km/h
444 26-02-2003 01:46:10 -2.9 C 2.81 g/m*3 -2.9 C 0 km/h
445 26-02-2003 01:52:10 -3 C 2.79 g/m*3 -3 C 0 km/h
446 26-02-2003 01:58:10 -3 C 2.79 g/m*3 -3 C 0 km/h
447 26-02-2003 02:04:10 -2.7 C 2.85 g/m*3 -2.7 C 0 km/h
448 26-02-2003 02:10:10 -2.8 C 2.83 g/m*3 -2.8 C 0 km/h
449 26-02-2003 02:16:10 -3 C 2.79 g/m*3 -3 C 0 km/h
450 26-02-2003 02:22:10 -3.1 C 2.73 g/m*3 -3.1 C 0 km/h
Sensor: Nr:Datum:Temp:Abs-Feuchte:Windchill:Wind:
Aussen-T/F 451 26-02-2003 02:28:10 -3.3 C 2.69 g/m*3 -3.3 C 0 km/h
452 26-02-2003 02:34:10 -3.4 C 2.67 g/m*3 -3.4 C 0 km/h
453 26-02-2003 02:40:10 -3.3 C 2.73 g/m*3 -3.3 C 0 km/h
454 26-02-2003 02:46:10 -3.4 C 2.71 g/m*3 -3.4 C 0 km/h
455 26-02-2003 02:52:10 -3.4 C 2.71 g/m*3 -3.4 C 0 km/h
456 26-02-2003 02:58:10 -3.6 C 2.67 g/m*3 -3.6 C 0 km/h
457 26-02-2003 03:04:10 -3.5 C 2.69 g/m*3 -3.5 C 0 km/h
458 26-02-2003 03:10:10 -3.6 C 2.71 g/m*3 -3.6 C 0 km/h
459 26-02-2003 03:16:10 -3.6 C 2.71 g/m*3 -3.6 C 0 km/h
460 26-02-2003 03:22:10 -3.7 C 2.69 g/m*3 -3.7 C 0 km/h
461 26-02-2003 03:28:10 -3.8 C 2.67 g/m*3 -3.8 C 0 km/h
462 26-02-2003 03:34:10 -3.8 C 2.71 g/m*3 -3.8 C 0 km/h
463 26-02-2003 03:40:10 -3.8 C 2.71 g/m*3 -3.8 C 0 km/h
464 26-02-2003 03:46:10 -3.8 C 2.71 g/m*3 -3.8 C 0 km/h
465 26-02-2003 03:52:10 -3.8 C 2.71 g/m*3 -3.8 C 0 km/h
466 26-02-2003 03:58:10 -3.8 C 2.71 g/m*3 -3.8 C 0 km/h
467 26-02-2003 04:04:10 -3.9 C 2.65 g/m*3 -3.9 C 0 km/h
468 26-02-2003 04:10:10 -3.9 C 2.65 g/m*3 -3.9 C 0 km/h
469 26-02-2003 04:16:10 -3.9 C 2.65 g/m*3 -3.9 C 0 km/h
470 26-02-2003 04:22:10 -3.8 C 2.71 g/m*3 -3.8 C 0 km/h
471 26-02-2003 04:28:10 -3.6 C 2.71 g/m*3 -3.6 C 0 km/h
472 26-02-2003 04:34:10 -3.7 C 2.69 g/m*3 -3.7 C 0 km/h
473 26-02-2003 04:40:10 -3.8 C 2.67 g/m*3 -3.8 C 0 km/h
474 26-02-2003 04:46:10 -3.7 C 2.69 g/m*3 -3.7 C 0 km/h
475 26-02-2003 04:52:10 -3.8 C 2.67 g/m*3 -3.8 C 0 km/h
Sensor: Nr:Datum:Temp:Abs-Feuchte:Windchill:Wind:
Aussen-T/F 476 26-02-2003 04:58:10 -3.9 C 2.65 g/m*3 -3.9 C 0 km/h
477 26-02-2003 05:04:10 -3.9 C 2.69 g/m*3 -3.9 C 0 km/h
478 26-02-2003 05:10:10 -4 C 2.63 g/m*3 -4 C 0 km/h
479 26-02-2003 05:16:10 -4.1 C 2.62 g/m*3 -4.1 C 0 km/h
480 26-02-2003 05:22:10 -4.1 C 2.65 g/m*3 -4.1 C 0 km/h
481 26-02-2003 05:28:10 -4.1 C 2.65 g/m*3 -4.1 C 0 km/h
482 26-02-2003 05:34:10 -4.1 C 2.69 g/m*3 -4.1 C 0 km/h
483 26-02-2003 05:40:10 -4.2 C 2.63 g/m*3 -4.2 C 0 km/h
484 26-02-2003 05:46:10 -4.2 C 2.67 g/m*3 -4.2 C 0 km/h
485 26-02-2003 05:52:10 -4.3 C 2.61 g/m*3 -4.3 C 0 km/h
486 26-02-2003 05:58:10 -4.3 C 2.61 g/m*3 -4.3 C 0 km/h
487 26-02-2003 06:04:10 -4.2 C 2.67 g/m*3 -4.2 C 0 km/h
488 26-02-2003 06:10:10 -4.2 C 2.63 g/m*3 -4.2 C 0 km/h
489 26-02-2003 06:16:10 -4.2 C 2.67 g/m*3 -4.2 C 0 km/h
490 26-02-2003 06:22:10 -4.2 C 2.67 g/m*3 -4.2 C 0 km/h
491 26-02-2003 06:28:10 -4.1 C 2.69 g/m*3 -4.1 C 0 km/h
492 26-02-2003 06:34:10 -4 C 2.71 g/m*3 -4 C 0 km/h
493 26-02-2003 06:40:10 -4.2 C 2.63 g/m*3 -4.2 C 0 km/h
494 26-02-2003 06:46:10 -4.4 C 2.6 g/m*3 -4.4 C 0 km/h
495 26-02-2003 06:52:10 -4.4 C 2.6 g/m*3 -4.4 C 0 km/h
496 26-02-2003 06:58:10 -4.7 C 2.54 g/m*3 -4.7 C 0 km/h
497 26-02-2003 07:04:10 -4.7 C 2.54 g/m*3 -4.7 C 0 km/h
498 26-02-2003 07:10:10 -4.8 C 2.56 g/m*3 -4.8 C 0 km/h
499 26-02-2003 07:16:10 -4.7 C 2.57 g/m*3 -4.7 C 0 km/h
500 26-02-2003 07:22:10 -4.8 C 2.56 g/m*3 -4.8 C 0 km/h
Sensor: Nr:Datum:Temp:Abs-Feuchte:Windchill:Wind:
Aussen-T/F 501 26-02-2003 07:28:10 -4.8 C 2.56 g/m*3 -4.8 C 0 km/h
502 26-02-2003 07:34:10 -4.8 C 2.59 g/m*3 -4.8 C 0 km/h
503 26-02-2003 07:40:10 -4.8 C 2.59 g/m*3 -4.8 C 0 km/h
504 26-02-2003 07:46:10 -4.6 C 2.66 g/m*3 -4.6 C 0 km/h
505 26-02-2003 07:52:10 -4.4 C 2.7 g/m*3 -4.4 C 0 km/h
506 26-02-2003 07:58:10 -4.4 C 2.7 g/m*3 -4.4 C 0 km/h
507 26-02-2003 08:04:10 -4.4 C 2.7 g/m*3 -4.4 C 0 km/h
508 26-02-2003 08:10:10 -4.4 C 2.7 g/m*3 -4.4 C 0 km/h
509 26-02-2003 08:16:10 -4.4 C 2.67 g/m*3 -4.4 C 0 km/h
510 26-02-2003 08:22:10 -4.3 C 2.69 g/m*3 -4.3 C 0 km/h
511 26-02-2003 08:28:10 -4.3 C 2.69 g/m*3 -4.3 C 0 km/h
512 26-02-2003 08:34:10 -4.2 C 2.7 g/m*3 -4.2 C 0 km/h
513 26-02-2003 08:40:10 -4 C 2.74 g/m*3 -4 C 0 km/h
514 26-02-2003 08:46:10 -3.8 C 2.78 g/m*3 -3.8 C 0 km/h
515 26-02-2003 08:52:10 -3.6 C 2.82 g/m*3 -3.6 C 0 km/h
516 26-02-2003 08:58:10 -3.4 C 2.86 g/m*3 -3.4 C 0 km/h
517 26-02-2003 09:04:10 -3.2 C 2.87 g/m*3 -3.2 C 0 km/h
518 26-02-2003 09:10:10 -2.8 C 2.87 g/m*3 -2.8 C 0 km/h
519 26-02-2003 09:16:10 -2.5 C 2.89 g/m*3 -2.5 C 0 km/h
520 26-02-2003 09:22:10 -2.2 C 2.91 g/m*3 -2.2 C 0 km/h
521 26-02-2003 09:28:10 -1.8 C 2.95 g/m*3 -1.8 C 0 km/h
522 26-02-2003 09:34:10 -1.8 C 2.91 g/m*3 -1.8 C 0 km/h
523 26-02-2003 09:40:10 -1.3 C 3.01 g/m*3 -1.3 C 0 km/h
524 26-02-2003 09:46:10 -0.9 C 3.1 g/m*3 -0.9 C 0 km/h
525 26-02-2003 09:52:10 -0.9 C 3 g/m*3 -0.9 C 0 km/h
Sensor: Nr:Datum:Temp:Abs-Feuchte:Windchill:Wind:
Aussen-T/F 526 26-02-2003 09:58:10 -0.9 C 3 g/m*3 -0.9 C 0 km/h
527 26-02-2003 10:04:10 -0.8 C 3.07 g/m*3 -0.8 C 0 km/h
528 26-02-2003 10:10:10 -0.6 C 3.11 g/m*3 -0.6 C 0 km/h
529 26-02-2003 10:16:10 -0.2 C 3.15 g/m*3 -0.2 C 0 km/h
530 26-02-2003 10:22:10 -0.2 C 3.11 g/m*3 -0.2 C 0 km/h
531 26-02-2003 10:28:10 -0.1 C 3.13 g/m*3 -0.1 C 0 km/h
532 26-02-2003 10:34:10 -0.2 C 3.11 g/m*3 -0.2 C 0 km/h
533 26-02-2003 10:40:10 0.4 C 3.19 g/m*3 0.4 C 0 km/h
534 26-02-2003 10:46:10 0.4 C 3.19 g/m*3 0.4 C 0 km/h
535 26-02-2003 10:52:10 0.3 C 3.17 g/m*3 0.3 C 0 km/h
536 26-02-2003 10:58:10 0.4 C 3.24 g/m*3 0.4 C 0 km/h
537 26-02-2003 11:04:10 0.6 C 3.23 g/m*3 0.6 C 0 km/h
538 26-02-2003 11:10:10 0.8 C 3.28 g/m*3 0.8 C 0 km/h
539 26-02-2003 11:16:10 1 C 3.17 g/m*3 1 C 0 km/h
540 26-02-2003 11:22:10 0.8 C 3.17 g/m*3 0.8 C 0 km/h
541 26-02-2003 11:28:10 0.8 C 3.17 g/m*3 0.8 C 0 km/h
542 26-02-2003 11:34:10 1 C 3.17 g/m*3 1 C 0 km/h
543 26-02-2003 11:40:10 1.2 C 3.26 g/m*3 1.2 C 0 km/h
544 26-02-2003 11:46:10 1.2 C 3.26 g/m*3 1.2 C 0 km/h
545 26-02-2003 11:52:10 1.1 C 3.34 g/m*3 1.1 C 0 km/h
546 26-02-2003 11:58:10 1.1 C 3.34 g/m*3 1.1 C 0 km/h
547 26-02-2003 12:04:10 1.2 C 3.37 g/m*3 1.2 C 0 km/h
548 26-02-2003 12:10:10 1.6 C 3.41 g/m*3 1.6 C 0 km/h
549 26-02-2003 12:16:10 2.1 C 3.36 g/m*3 2.1 C 0 km/h
550 26-02-2003 12:22:10 2.4 C 3.43 g/m*3 2.4 C 0 km/h
Sensor: Nr:Datum:Temp:Abs-Feuchte:Windchill:Wind:
Aussen-T/F 551 26-02-2003 12:28:10 2.6 C 3.41 g/m*3 2.6 C 0 km/h
552 26-02-2003 12:34:10 2.7 C 3.38 g/m*3 2.7 C 0 km/h
553 26-02-2003 12:40:10 2.7 C 3.38 g/m*3 2.7 C 0 km/h
554 26-02-2003 12:46:10 2.8 C 3.46 g/m*3 2.8 C 0 km/h
555 26-02-2003 12:52:10 3.3 C 3.58 g/m*3 3.3 C 0 km/h
556 26-02-2003 12:58:10 3.7 C 3.55 g/m*3 3.7 C 0 km/h
557 26-02-2003 13:04:10 4 C 3.5 g/m*3 4 C 0 km/h
558 26-02-2003 13:10:10 4.2 C 3.48 g/m*3 4.2 C 0 km/h
559 26-02-2003 13:16:10 4.1 C 3.46 g/m*3 4.1 C 0 km/h
560 26-02-2003 13:22:10 4.4 C 3.46 g/m*3 4.4 C 0 km/h
561 26-02-2003 13:28:10 4.5 C 3.42 g/m*3 4.5 C 0 km/h
562 26-02-2003 13:34:10 4.5 C 3.35 g/m*3 4.5 C 0 km/h
563 26-02-2003 13:40:10 4.7 C 3.46 g/m*3 4.7 C 0 km/h
564 26-02-2003 13:46:10 5.2 C 3.51 g/m*3 5.2 C 0 km/h
565 26-02-2003 13:52:10 5.4 C 3.56 g/m*3 5.4 C 0 km/h
566 26-02-2003 13:58:10 5.7 C 3.56 g/m*3 5.7 C 0 km/h
567 26-02-2003 14:04:10 5.9 C 3.61 g/m*3 5.9 C 0 km/h
568 26-02-2003 14:08:10 5.9 C 3.61 g/m*3 5.9 C 0 km/h
569 26-02-2003 14:10:10 6.3 C 3.63 g/m*3 6.3 C 0 km/h
570 26-02-2003 14:14:10 6.3 C 3.63 g/m*3 6.3 C 0 km/h
571 26-02-2003 14:16:10 6.6 C 3.7 g/m*3 6.6 C 0 km/h
572 26-02-2003 14:20:10 6.6 C 3.7 g/m*3 6.6 C 0 km/h
573 26-02-2003 14:22:10 6.5 C 3.67 g/m*3 6.5 C 0 km/h
574 26-02-2003 14:26:10 6.5 C 3.67 g/m*3 6.5 C 0 km/h
575 26-02-2003 14:28:10 6.6 C 3.7 g/m*3 6.6 C 0 km/h
Sensor: Nr:Datum:Temp:Abs-Feuchte:Windchill:Wind:
Aussen-T/F 576 26-02-2003 14:32:10 6.6 C 3.7 g/m*3 6.6 C 0 km/h
577 26-02-2003 14:34:10 6.4 C 3.65 g/m*3 6.4 C 0 km/h
578 26-02-2003 14:38:10 6.4 C 3.65 g/m*3 6.4 C 0 km/h
579 26-02-2003 14:40:10 6.4 C 3.58 g/m*3 6.4 C 0 km/h
580 26-02-2003 14:44:10 6.4 C 3.58 g/m*3 6.4 C 0 km/h
581 26-02-2003 14:46:10 6.4 C 3.58 g/m*3 6.4 C 0 km/h
582 26-02-2003 14:50:10 6.4 C 3.58 g/m*3 6.4 C 0 km/h
583 26-02-2003 14:52:10 6.4 C 3.58 g/m*3 6.4 C 0 km/h
584 26-02-2003 14:56:10 6.4 C 3.58 g/m*3 6.4 C 0 km/h
585 26-02-2003 14:58:10 6.5 C 3.52 g/m*3 6.5 C 0 km/h
586 26-02-2003 15:02:10 6.5 C 3.52 g/m*3 6.5 C 0 km/h
587 26-02-2003 15:04:10 6.4 C 3.5 g/m*3 6.4 C 0 km/h
588 26-02-2003 15:08:10 6.4 C 3.5 g/m*3 6.4 C 0 km/h
589 26-02-2003 15:10:10 7.3 C 3.56 g/m*3 7.3 C 0 km/h
590 26-02-2003 15:14:10 7.3 C 3.56 g/m*3 7.3 C 0 km/h
591 26-02-2003 15:16:10 7.3 C 3.56 g/m*3 7.3 C 0 km/h
592 26-02-2003 15:20:10 7.3 C 3.56 g/m*3 7.3 C 0 km/h
593 26-02-2003 15:22:10 7.5 C 3.6 g/m*3 7.5 C 0 km/h
594 26-02-2003 15:26:10 7.5 C 3.6 g/m*3 7.5 C 0 km/h
595 26-02-2003 15:28:10 7.8 C 3.67 g/m*3 7.8 C 0 km/h
596 26-02-2003 15:32:10 7.8 C 3.67 g/m*3 7.8 C 0 km/h
597 26-02-2003 15:34:10 8 C 3.64 g/m*3 8 C 0 km/h
598 26-02-2003 15:38:10 8 C 3.64 g/m*3 8 C 0 km/h
599 26-02-2003 15:40:10 8.4 C 3.65 g/m*3 8.4 C 0 km/h
600 26-02-2003 15:44:10 8.4 C 3.65 g/m*3 8.4 C 0 km/h
Sensor: Nr:Datum:Temp:Abs-Feuchte:Windchill:Wind:
Aussen-T/F 601 26-02-2003 15:46:10 8.3 C 3.62 g/m*3 8.3 C 0 km/h
602 26-02-2003 15:50:10 8.3 C 3.62 g/m*3 8.3 C 0 km/h
603 26-02-2003 15:52:10 8.2 C 3.6 g/m*3 8.2 C 0 km/h
604 26-02-2003 15:56:10 8.2 C 3.6 g/m*3 8.2 C 0 km/h
605 26-02-2003 15:58:10 8.1 C 3.58 g/m*3 8.1 C 0 km/h
606 26-02-2003 16:02:10 8.1 C 3.58 g/m*3 8.1 C 0 km/h
607 26-02-2003 16:10:10 8 C 3.55 g/m*3 8 C 0 km/h
608 26-02-2003 16:14:10 8 C 3.55 g/m*3 8 C 0 km/h
609 26-02-2003 16:16:10 7.9 C 3.61 g/m*3 7.9 C 0 km/h
610 26-02-2003 16:20:10 7.9 C 3.61 g/m*3 7.9 C 0 km/h
611 26-02-2003 16:22:10 8.1 C 3.66 g/m*3 8.1 C 0 km/h
612 26-02-2003 16:26:10 8.1 C 3.66 g/m*3 8.1 C 0 km/h
613 26-02-2003 16:28:10 8 C 3.64 g/m*3 8 C 0 km/h
614 26-02-2003 16:32:10 8 C 3.64 g/m*3 8 C 0 km/h
615 26-02-2003 16:34:10 7.9 C 3.7 g/m*3 7.9 C 0 km/h
616 26-02-2003 16:38:10 7.9 C 3.7 g/m*3 7.9 C 0 km/h
617 26-02-2003 16:40:10 7.9 C 3.7 g/m*3 7.9 C 0 km/h
618 26-02-2003 16:44:10 7.9 C 3.7 g/m*3 7.9 C 0 km/h
619 26-02-2003 16:46:10 7.9 C 3.7 g/m*3 7.9 C 0 km/h
620 26-02-2003 16:50:10 7.9 C 3.7 g/m*3 7.9 C 0 km/h
621 26-02-2003 16:52:10 8.1 C 3.74 g/m*3 8.1 C 0 km/h
622 26-02-2003 16:56:10 8.1 C 3.74 g/m*3 8.1 C 0 km/h
623 26-02-2003 16:58:10 8.4 C 3.82 g/m*3 8.4 C 0 km/h
624 26-02-2003 17:02:10 8.4 C 3.82 g/m*3 8.4 C 0 km/h
625 26-02-2003 17:04:10 8.5 C 3.93 g/m*3 8.5 C 0 km/h
Sensor: Nr:Datum:Temp:Abs-Feuchte:Windchill:Wind:
Aussen-T/F 626 26-02-2003 17:08:10 8.5 C 3.93 g/m*3 8.5 C 0 km/h
627 26-02-2003 17:10:10 8.4 C 3.9 g/m*3 8.4 C 0 km/h
628 26-02-2003 17:14:10 8.4 C 3.9 g/m*3 8.4 C 0 km/h
629 26-02-2003 17:16:10 8.2 C 3.85 g/m*3 8.2 C 0 km/h
630 26-02-2003 17:20:10 8.2 C 3.85 g/m*3 8.2 C 0 km/h
631 26-02-2003 17:22:10 7.8 C 3.67 g/m*3 7.8 C 0 km/h
632 26-02-2003 17:26:10 7.8 C 3.67 g/m*3 7.8 C 0 km/h
633 26-02-2003 17:28:10 7.5 C 3.6 g/m*3 7.5 C 0 km/h
634 26-02-2003 17:32:10 7.5 C 3.6 g/m*3 7.5 C 0 km/h
635 26-02-2003 17:34:10 7.2 C 3.61 g/m*3 7.2 C 0 km/h
636 26-02-2003 17:38:10 7.2 C 3.61 g/m*3 7.2 C 0 km/h
637 26-02-2003 17:40:10 6.8 C 3.75 g/m*3 6.8 C 0 km/h
638 26-02-2003 17:44:10 6.8 C 3.75 g/m*3 6.8 C 0 km/h
639 26-02-2003 17:46:10 6.6 C 3.7 g/m*3 6.6 C 0 km/h
640 26-02-2003 17:50:10 6.6 C 3.7 g/m*3 6.6 C 0 km/h
641 26-02-2003 17:52:10 6.4 C 3.73 g/m*3 6.4 C 0 km/h
642 26-02-2003 17:56:10 6.4 C 3.73 g/m*3 6.4 C 0 km/h
643 26-02-2003 17:58:10 6.2 C 3.75 g/m*3 6.2 C 0 km/h
644 26-02-2003 18:02:10 6.2 C 3.75 g/m*3 6.2 C 0 km/h
645 26-02-2003 18:04:10 5.9 C 3.68 g/m*3 5.9 C 0 km/h
646 26-02-2003 18:08:10 5.9 C 3.68 g/m*3 5.9 C 0 km/h
647 26-02-2003 18:10:10 5.8 C 3.65 g/m*3 5.8 C 0 km/h
648 26-02-2003 18:14:10 5.8 C 3.65 g/m*3 5.8 C 0 km/h
649 26-02-2003 18:16:10 5.6 C 3.68 g/m*3 5.6 C 0 km/h
650 26-02-2003 18:20:10 5.6 C 3.68 g/m*3 5.6 C 0 km/h
Sensor: Nr:Datum:Temp:Abs-Feuchte:Windchill:Wind:
Aussen-T/F 651 26-02-2003 18:22:10 5.4 C 3.63 g/m*3 5.4 C 0 km/h
652 26-02-2003 18:26:10 5.4 C 3.63 g/m*3 5.4 C 0 km/h
653 26-02-2003 18:28:10 5.4 C 3.7 g/m*3 5.4 C 0 km/h
654 26-02-2003 18:32:10 5.4 C 3.7 g/m*3 5.4 C 0 km/h
655 26-02-2003 18:34:10 5.2 C 3.72 g/m*3 5.2 C 0 km/h
656 26-02-2003 18:38:10 5.2 C 3.72 g/m*3 5.2 C 0 km/h
657 26-02-2003 18:40:10 5.1 C 3.69 g/m*3 5.1 C 0 km/h
658 26-02-2003 18:44:10 5.1 C 3.69 g/m*3 5.1 C 0 km/h
659 26-02-2003 18:46:10 5 C 3.74 g/m*3 5 C 0 km/h
660 26-02-2003 18:50:10 5 C 3.74 g/m*3 5 C 0 km/h
661 26-02-2003 18:52:10 4.9 C 3.78 g/m*3 4.9 C 0 km/h
662 26-02-2003 18:56:10 4.9 C 3.78 g/m*3 4.9 C 0 km/h
663 26-02-2003 18:58:10 4.8 C 3.76 g/m*3 4.8 C 0 km/h
664 26-02-2003 19:02:10 4.8 C 3.76 g/m*3 4.8 C 0 km/h
665 26-02-2003 19:04:10 4.7 C 3.73 g/m*3 4.7 C 0 km/h
666 26-02-2003 19:08:10 4.7 C 3.73 g/m*3 4.7 C 0 km/h
667 26-02-2003 19:10:10 4.5 C 3.75 g/m*3 4.5 C 0 km/h
668 26-02-2003 19:14:10 4.5 C 3.75 g/m*3 4.5 C 0 km/h
669 26-02-2003 19:16:10 4.4 C 3.72 g/m*3 4.4 C 0 km/h
670 26-02-2003 19:20:10 4.4 C 3.72 g/m*3 4.4 C 0 km/h
671 26-02-2003 19:22:10 4.2 C 3.67 g/m*3 4.2 C 0 km/h
672 26-02-2003 19:26:10 4.2 C 3.67 g/m*3 4.2 C 0 km/h
673 26-02-2003 19:28:10 4.1 C 3.65 g/m*3 4.1 C 0 km/h
674 26-02-2003 19:32:10 4.1 C 3.65 g/m*3 4.1 C 0 km/h
675 26-02-2003 19:34:10 3.8 C 3.64 g/m*3 3.8 C 0 km/h
Sensor: Nr:Datum:Temp:Abs-Feuchte:Windchill:Wind:
Aussen-T/F 676 26-02-2003 19:38:10 3.8 C 3.64 g/m*3 3.8 C 0 km/h
677 26-02-2003 19:40:10 3.8 C 3.64 g/m*3 3.8 C 0 km/h
678 26-02-2003 19:44:10 3.8 C 3.64 g/m*3 3.8 C 0 km/h
679 26-02-2003 19:46:10 3.5 C 3.63 g/m*3 3.5 C 0 km/h
680 26-02-2003 19:50:10 3.5 C 3.63 g/m*3 3.5 C 0 km/h
681 26-02-2003 19:52:10 3.3 C 3.58 g/m*3 3.3 C 0 km/h
682 26-02-2003 19:56:10 3.3 C 3.58 g/m*3 3.3 C 0 km/h
683 26-02-2003 19:58:10 3.1 C 3.59 g/m*3 3.1 C 0 km/h
684 26-02-2003 20:02:10 3.1 C 3.59 g/m*3 3.1 C 0 km/h
685 26-02-2003 20:05:11 3.1 C 3.59 g/m*3 3.1 C 0 km/h
686 26-02-2003 20:08:10 3.1 C 3.59 g/m*3 3.1 C 0 km/h
687 26-02-2003 20:11:11 3 C 3.57 g/m*3 3 C 0 km/h
688 26-02-2003 20:14:10 3 C 3.57 g/m*3 3 C 0 km/h
689 26-02-2003 20:17:11 2.8 C 3.64 g/m*3 2.8 C 0 km/h
690 26-02-2003 20:20:10 2.8 C 3.64 g/m*3 2.8 C 0 km/h
691 26-02-2003 20:23:11 2.7 C 3.61 g/m*3 2.7 C 0 km/h
692 26-02-2003 20:26:10 2.7 C 3.61 g/m*3 2.7 C 0 km/h
693 26-02-2003 20:29:11 2.7 C 3.61 g/m*3 2.7 C 0 km/h
694 26-02-2003 20:32:10 2.7 C 3.61 g/m*3 2.7 C 0 km/h
695 26-02-2003 20:35:11 2.6 C 3.59 g/m*3 2.6 C 0 km/h
696 26-02-2003 20:38:10 2.6 C 3.59 g/m*3 2.6 C 0 km/h
697 26-02-2003 20:41:11 2.4 C 3.6 g/m*3 2.4 C 0 km/h
698 26-02-2003 20:44:10 2.4 C 3.6 g/m*3 2.4 C 0 km/h
699 26-02-2003 20:47:11 2.3 C 3.57 g/m*3 2.3 C 0 km/h
700 26-02-2003 20:50:10 2.3 C 3.57 g/m*3 2.3 C 0 km/h
Sensor: Nr:Datum:Temp:Abs-Feuchte:Windchill:Wind:
Aussen-T/F 701 26-02-2003 20:53:11 2.3 C 3.63 g/m*3 2.3 C 0 km/h
702 26-02-2003 20:56:10 2.3 C 3.63 g/m*3 2.3 C 0 km/h
703 26-02-2003 20:59:11 2.2 C 3.55 g/m*3 2.2 C 0 km/h
704 26-02-2003 21:02:10 2.2 C 3.55 g/m*3 2.2 C 0 km/h
705 26-02-2003 21:05:11 2.2 C 3.6 g/m*3 2.2 C 0 km/h
706 26-02-2003 21:08:10 2.2 C 3.6 g/m*3 2.2 C 0 km/h
707 26-02-2003 21:11:11 2.2 C 3.6 g/m*3 2.2 C 0 km/h
708 26-02-2003 21:14:10 2.2 C 3.6 g/m*3 2.2 C 0 km/h
709 26-02-2003 21:17:11 2.2 C 3.6 g/m*3 2.2 C 0 km/h
710 26-02-2003 21:20:10 2.2 C 3.6 g/m*3 2.2 C 0 km/h
711 26-02-2003 21:23:11 2.2 C 3.6 g/m*3 2.2 C 0 km/h
712 26-02-2003 21:26:10 2.2 C 3.6 g/m*3 2.2 C 0 km/h
713 26-02-2003 21:29:11 2.3 C 3.63 g/m*3 2.3 C 0 km/h
714 26-02-2003 21:32:10 2.3 C 3.63 g/m*3 2.3 C 0 km/h
715 26-02-2003 21:35:11 2.4 C 3.65 g/m*3 2.4 C 0 km/h
716 26-02-2003 21:38:10 2.4 C 3.65 g/m*3 2.4 C 0 km/h
717 26-02-2003 21:41:11 2.4 C 3.65 g/m*3 2.4 C 0 km/h
718 26-02-2003 21:44:10 2.4 C 3.65 g/m*3 2.4 C 0 km/h
719 26-02-2003 21:47:11 2.4 C 3.65 g/m*3 2.4 C 0 km/h
720 26-02-2003 21:50:10 2.4 C 3.65 g/m*3 2.4 C 0 km/h
721 26-02-2003 21:53:11 2.4 C 3.65 g/m*3 2.4 C 0 km/h
722 26-02-2003 21:56:10 2.4 C 3.65 g/m*3 2.4 C 0 km/h
723 26-02-2003 21:59:11 2.4 C 3.65 g/m*3 2.4 C 0 km/h
724 26-02-2003 22:02:10 2.4 C 3.65 g/m*3 2.4 C 0 km/h
725 26-02-2003 22:05:11 2.4 C 3.65 g/m*3 2.4 C 0 km/h
Sensor: Nr:Datum:Temp:Abs-Feuchte:Windchill:Wind:
Aussen-T/F 726 26-02-2003 22:08:10 2.4 C 3.65 g/m*3 2.4 C 0 km/h
727 26-02-2003 22:11:11 2.4 C 3.65 g/m*3 2.4 C 0 km/h
728 26-02-2003 22:14:10 2.4 C 3.65 g/m*3 2.4 C 0 km/h
729 26-02-2003 22:17:11 2.4 C 3.65 g/m*3 2.4 C 0 km/h
730 26-02-2003 22:20:10 2.4 C 3.65 g/m*3 2.4 C 0 km/h
731 26-02-2003 22:23:11 2.4 C 3.65 g/m*3 2.4 C 0 km/h
732 26-02-2003 22:26:10 2.4 C 3.65 g/m*3 2.4 C 0 km/h
733 26-02-2003 22:29:11 2.4 C 3.71 g/m*3 2.4 C 0 km/h
734 26-02-2003 22:32:10 2.4 C 3.71 g/m*3 2.4 C 0 km/h
735 26-02-2003 22:35:11 2.3 C 3.69 g/m*3 2.3 C 0 km/h
736 26-02-2003 22:38:10 2.3 C 3.69 g/m*3 2.3 C 0 km/h
737 26-02-2003 22:41:11 2.3 C 3.69 g/m*3 2.3 C 0 km/h
738 26-02-2003 22:44:10 2.3 C 3.69 g/m*3 2.3 C 0 km/h
739 26-02-2003 22:47:11 2.3 C 3.69 g/m*3 2.3 C 0 km/h
740 26-02-2003 22:50:10 2.3 C 3.69 g/m*3 2.3 C 0 km/h
741 26-02-2003 22:53:11 2.2 C 3.66 g/m*3 2.2 C 0 km/h
742 26-02-2003 22:56:10 2.2 C 3.66 g/m*3 2.2 C 0 km/h
743 26-02-2003 22:59:11 2.2 C 3.66 g/m*3 2.2 C 0 km/h
744 26-02-2003 23:02:10 2.2 C 3.66 g/m*3 2.2 C 0 km/h
745 26-02-2003 23:05:11 2.2 C 3.66 g/m*3 2.2 C 0 km/h
746 26-02-2003 23:08:10 2.2 C 3.66 g/m*3 2.2 C 0 km/h
747 26-02-2003 23:11:11 2.3 C 3.69 g/m*3 2.3 C 0 km/h
748 26-02-2003 23:14:10 2.3 C 3.69 g/m*3 2.3 C 0 km/h
749 26-02-2003 23:17:11 2.2 C 3.66 g/m*3 2.2 C 0 km/h
750 26-02-2003 23:20:10 2.2 C 3.66 g/m*3 2.2 C 0 km/h
Sensor: Nr:Datum:Temp:Abs-Feuchte:Windchill:Wind:
Aussen-T/F 751 26-02-2003 23:23:11 2.1 C 3.64 g/m*3 2.1 C 0 km/h
752 26-02-2003 23:26:10 2.1 C 3.64 g/m*3 2.1 C 0 km/h
753 26-02-2003 23:29:11 2 C 3.61 g/m*3 2 C 0 km/h
754 26-02-2003 23:32:10 2 C 3.61 g/m*3 2 C 0 km/h
755 26-02-2003 23:35:11 2 C 3.67 g/m*3 2 C 0 km/h
756 26-02-2003 23:38:10 2 C 3.67 g/m*3 2 C 0 km/h
757 26-02-2003 23:41:11 1.9 C 3.7 g/m*3 1.9 C 0 km/h
758 26-02-2003 23:44:10 1.9 C 3.7 g/m*3 1.9 C 0 km/h
759 26-02-2003 23:47:11 1.9 C 3.7 g/m*3 1.9 C 0 km/h
760 26-02-2003 23:50:10 1.9 C 3.7 g/m*3 1.9 C 0 km/h
761 26-02-2003 23:53:11 1.9 C 3.7 g/m*3 1.9 C 0 km/h
762 26-02-2003 23:56:10 1.9 C 3.7 g/m*3 1.9 C 0 km/h
763 26-02-2003 23:59:11 1.7 C 3.65 g/m*3 1.7 C 0 km/h
764 27-02-2003 00:02:10 1.7 C 3.65 g/m*3 1.7 C 0 km/h
765 27-02-2003 00:05:11 1.6 C 3.68 g/m*3 1.6 C 0 km/h
766 27-02-2003 00:08:10 1.6 C 3.68 g/m*3 1.6 C 0 km/h
767 27-02-2003 00:11:11 1.6 C 3.68 g/m*3 1.6 C 0 km/h
768 27-02-2003 00:14:10 1.6 C 3.68 g/m*3 1.6 C 0 km/h
769 27-02-2003 00:17:11 1.7 C 3.7 g/m*3 1.7 C 0 km/h
770 27-02-2003 00:20:10 1.7 C 3.7 g/m*3 1.7 C 0 km/h
771 27-02-2003 00:23:11 1.7 C 3.7 g/m*3 1.7 C 0 km/h
772 27-02-2003 00:26:10 1.7 C 3.7 g/m*3 1.7 C 0 km/h
773 27-02-2003 00:29:11 1.7 C 3.65 g/m*3 1.7 C 0 km/h
774 27-02-2003 00:32:10 1.7 C 3.65 g/m*3 1.7 C 0 km/h
775 27-02-2003 00:35:11 1.8 C 3.73 g/m*3 1.8 C 0 km/h
Sensor: Nr:Datum:Temp:Abs-Feuchte:Windchill:Wind:
Aussen-T/F 776 27-02-2003 00:38:10 1.8 C 3.73 g/m*3 1.8 C 0 km/h
777 27-02-2003 00:41:11 1.8 C 3.67 g/m*3 1.8 C 0 km/h
778 27-02-2003 00:44:10 1.8 C 3.67 g/m*3 1.8 C 0 km/h
779 27-02-2003 00:47:11 1.7 C 3.7 g/m*3 1.7 C 0 km/h
780 27-02-2003 00:50:10 1.7 C 3.7 g/m*3 1.7 C 0 km/h
781 27-02-2003 00:53:11 1.7 C 3.7 g/m*3 1.7 C 0 km/h
782 27-02-2003 00:56:10 1.7 C 3.7 g/m*3 1.7 C 0 km/h
783 27-02-2003 00:59:11 1.7 C 3.7 g/m*3 1.7 C 0 km/h
784 27-02-2003 01:02:10 1.7 C 3.7 g/m*3 1.7 C 0 km/h
785 27-02-2003 01:05:11 1.6 C 3.68 g/m*3 1.6 C 0 km/h
786 27-02-2003 01:08:10 1.6 C 3.68 g/m*3 1.6 C 0 km/h
787 27-02-2003 01:11:11 1.7 C 3.7 g/m*3 1.7 C 0 km/h
788 27-02-2003 01:14:10 1.7 C 3.7 g/m*3 1.7 C 0 km/h
789 27-02-2003 01:17:11 1.7 C 3.7 g/m*3 1.7 C 0 km/h
790 27-02-2003 01:20:10 1.7 C 3.7 g/m*3 1.7 C 0 km/h
791 27-02-2003 01:23:11 1.7 C 3.7 g/m*3 1.7 C 0 km/h
792 27-02-2003 01:26:10 1.7 C 3.7 g/m*3 1.7 C 0 km/h
793 27-02-2003 01:29:11 1.7 C 3.7 g/m*3 1.7 C 0 km/h
794 27-02-2003 01:32:10 1.7 C 3.7 g/m*3 1.7 C 0 km/h
795 27-02-2003 01:35:11 1.8 C 3.73 g/m*3 1.8 C 0 km/h
796 27-02-2003 01:38:10 1.8 C 3.73 g/m*3 1.8 C 0 km/h
797 27-02-2003 01:41:11 1.8 C 3.78 g/m*3 1.8 C 0 km/h
798 27-02-2003 01:44:10 1.8 C 3.78 g/m*3 1.8 C 0 km/h
799 27-02-2003 01:47:11 1.7 C 3.76 g/m*3 1.7 C 0 km/h
800 27-02-2003 01:50:10 1.7 C 3.76 g/m*3 1.7 C 0 km/h
Sensor: Nr:Datum:Temp:Abs-Feuchte:Windchill:Wind:
Aussen-T/F 801 27-02-2003 01:53:11 1.7 C 3.76 g/m*3 1.7 C 0 km/h
802 27-02-2003 01:56:10 1.7 C 3.76 g/m*3 1.7 C 0 km/h
803 27-02-2003 01:59:11 1.6 C 3.73 g/m*3 1.6 C 0 km/h
804 27-02-2003 02:02:10 1.6 C 3.73 g/m*3 1.6 C 0 km/h
805 27-02-2003 02:05:11 1.4 C 3.68 g/m*3 1.4 C 0 km/h
806 27-02-2003 02:08:10 1.4 C 3.68 g/m*3 1.4 C 0 km/h
807 27-02-2003 02:11:11 1.3 C 3.66 g/m*3 1.3 C 0 km/h
808 27-02-2003 02:14:10 1.3 C 3.66 g/m*3 1.3 C 0 km/h
809 27-02-2003 02:17:11 1.2 C 3.63 g/m*3 1.2 C 0 km/h
810 27-02-2003 02:20:10 1.2 C 3.63 g/m*3 1.2 C 0 km/h
811 27-02-2003 02:23:11 1.2 C 3.63 g/m*3 1.2 C 0 km/h
812 27-02-2003 02:26:10 1.2 C 3.63 g/m*3 1.2 C 0 km/h
813 27-02-2003 02:29:11 1.2 C 3.63 g/m*3 1.2 C 0 km/h
814 27-02-2003 02:32:10 1.2 C 3.63 g/m*3 1.2 C 0 km/h
815 27-02-2003 02:35:11 1.3 C 3.71 g/m*3 1.3 C 0 km/h
816 27-02-2003 02:38:10 1.3 C 3.71 g/m*3 1.3 C 0 km/h
817 27-02-2003 02:41:11 1.2 C 3.68 g/m*3 1.2 C 0 km/h
818 27-02-2003 02:44:10 1.2 C 3.68 g/m*3 1.2 C 0 km/h
819 27-02-2003 02:47:11 1.2 C 3.68 g/m*3 1.2 C 0 km/h
820 27-02-2003 02:50:10 1.2 C 3.68 g/m*3 1.2 C 0 km/h
821 27-02-2003 02:53:11 1.2 C 3.68 g/m*3 1.2 C 0 km/h
822 27-02-2003 02:56:10 1.2 C 3.68 g/m*3 1.2 C 0 km/h
823 27-02-2003 02:59:11 1.1 C 3.66 g/m*3 1.1 C 0 km/h
824 27-02-2003 03:02:10 1.1 C 3.66 g/m*3 1.1 C 0 km/h
825 27-02-2003 03:05:11 1.3 C 3.71 g/m*3 1.3 C 0 km/h
Sensor: Nr:Datum:Temp:Abs-Feuchte:Windchill:Wind:
Aussen-T/F 826 27-02-2003 03:08:10 1.3 C 3.71 g/m*3 1.3 C 0 km/h
827 27-02-2003 03:11:11 1.1 C 3.66 g/m*3 1.1 C 0 km/h
828 27-02-2003 03:14:10 1.1 C 3.66 g/m*3 1.1 C 0 km/h
829 27-02-2003 03:17:11 1 C 3.69 g/m*3 1 C 0 km/h
830 27-02-2003 03:20:10 1 C 3.69 g/m*3 1 C 0 km/h
831 27-02-2003 03:23:11 1.1 C 3.71 g/m*3 1.1 C 0 km/h
832 27-02-2003 03:26:10 1.1 C 3.71 g/m*3 1.1 C 0 km/h
833 27-02-2003 03:29:11 1.1 C 3.71 g/m*3 1.1 C 0 km/h
834 27-02-2003 03:32:10 1.1 C 3.71 g/m*3 1.1 C 0 km/h
835 27-02-2003 03:35:11 0.9 C 3.66 g/m*3 0.9 C 0 km/h
836 27-02-2003 03:38:10 0.9 C 3.66 g/m*3 0.9 C 0 km/h
837 27-02-2003 03:41:11 0.8 C 3.63 g/m*3 0.8 C 0 km/h
838 27-02-2003 03:44:10 0.8 C 3.63 g/m*3 0.8 C 0 km/h
839 27-02-2003 03:47:11 0.7 C 3.66 g/m*3 0.7 C 0 km/h
840 27-02-2003 03:50:10 0.7 C 3.66 g/m*3 0.7 C 0 km/h
841 27-02-2003 03:53:11 0.7 C 3.66 g/m*3 0.7 C 0 km/h
842 27-02-2003 03:56:10 0.7 C 3.66 g/m*3 0.7 C 0 km/h
843 27-02-2003 03:59:11 0.7 C 3.61 g/m*3 0.7 C 0 km/h
844 27-02-2003 04:02:10 0.7 C 3.61 g/m*3 0.7 C 0 km/h
845 27-02-2003 04:05:11 0.7 C 3.66 g/m*3 0.7 C 0 km/h
846 27-02-2003 04:08:10 0.7 C 3.66 g/m*3 0.7 C 0 km/h
847 27-02-2003 04:11:11 0.6 C 3.64 g/m*3 0.6 C 0 km/h
848 27-02-2003 04:14:10 0.6 C 3.64 g/m*3 0.6 C 0 km/h
849 27-02-2003 04:17:11 0.5 C 3.61 g/m*3 0.5 C 0 km/h
850 27-02-2003 04:20:10 0.5 C 3.61 g/m*3 0.5 C 0 km/h
Sensor: Nr:Datum:Temp:Abs-Feuchte:Windchill:Wind:
Aussen-T/F 851 27-02-2003 04:23:11 0.5 C 3.66 g/m*3 0.5 C 0 km/h
852 27-02-2003 04:26:10 0.5 C 3.66 g/m*3 0.5 C 0 km/h
853 27-02-2003 04:29:11 0.5 C 3.61 g/m*3 0.5 C 0 km/h
854 27-02-2003 04:32:10 0.5 C 3.61 g/m*3 0.5 C 0 km/h
855 27-02-2003 04:35:11 0.6 C 3.69 g/m*3 0.6 C 0 km/h
856 27-02-2003 04:38:10 0.6 C 3.69 g/m*3 0.6 C 0 km/h
857 27-02-2003 04:41:11 0.5 C 3.66 g/m*3 0.5 C 0 km/h
858 27-02-2003 04:44:10 0.5 C 3.66 g/m*3 0.5 C 0 km/h
859 27-02-2003 04:47:11 0.5 C 3.66 g/m*3 0.5 C 0 km/h
860 27-02-2003 04:50:10 0.5 C 3.66 g/m*3 0.5 C 0 km/h
861 27-02-2003 04:53:11 0.4 C 3.64 g/m*3 0.4 C 0 km/h
862 27-02-2003 04:56:10 0.4 C 3.64 g/m*3 0.4 C 0 km/h
863 27-02-2003 04:59:11 0.3 C 3.61 g/m*3 0.3 C 0 km/h
864 27-02-2003 05:02:10 0.3 C 3.61 g/m*3 0.3 C 0 km/h
865 27-02-2003 05:05:11 0.3 C 3.61 g/m*3 0.3 C 0 km/h
866 27-02-2003 05:08:10 0.3 C 3.61 g/m*3 0.3 C 0 km/h
867 27-02-2003 05:11:11 0.4 C 3.69 g/m*3 0.4 C 0 km/h
868 27-02-2003 05:14:10 0.4 C 3.69 g/m*3 0.4 C 0 km/h
869 27-02-2003 05:17:11 0.4 C 3.74 g/m*3 0.4 C 0 km/h
870 27-02-2003 05:20:10 0.4 C 3.74 g/m*3 0.4 C 0 km/h
871 27-02-2003 05:23:11 0.3 C 3.66 g/m*3 0.3 C 0 km/h
872 27-02-2003 05:26:10 0.3 C 3.66 g/m*3 0.3 C 0 km/h
873 27-02-2003 05:29:11 0.2 C 3.64 g/m*3 0.2 C 0 km/h
874 27-02-2003 05:32:10 0.2 C 3.64 g/m*3 0.2 C 0 km/h
875 27-02-2003 05:35:11 0.1 C 3.56 g/m*3 0.1 C 0 km/h
Sensor: Nr:Datum:Temp:Abs-Feuchte:Windchill:Wind:
Aussen-T/F 876 27-02-2003 05:38:10 0.1 C 3.56 g/m*3 0.1 C 0 km/h
877 27-02-2003 05:41:11 0 C 3.59 g/m*3 0 C 0 km/h
878 27-02-2003 05:44:10 0 C 3.59 g/m*3 0 C 0 km/h
879 27-02-2003 05:47:11 -0.1 C 3.61 g/m*3 -0.1 C 0 km/h
880 27-02-2003 05:50:10 -0.1 C 3.61 g/m*3 -0.1 C 0 km/h
881 27-02-2003 05:53:11 -0.2 C 3.58 g/m*3 -0.2 C 0 km/h
882 27-02-2003 05:56:10 -0.2 C 3.58 g/m*3 -0.2 C 0 km/h
883 27-02-2003 05:59:11 -0.2 C 3.58 g/m*3 -0.2 C 0 km/h
884 27-02-2003 06:02:10 -0.2 C 3.58 g/m*3 -0.2 C 0 km/h
885 27-02-2003 06:05:11 -0.3 C 3.61 g/m*3 -0.3 C 0 km/h
886 27-02-2003 06:08:10 -0.3 C 3.61 g/m*3 -0.3 C 0 km/h
887 27-02-2003 06:11:11 -0.3 C 3.56 g/m*3 -0.3 C 0 km/h
888 27-02-2003 06:14:10 -0.3 C 3.56 g/m*3 -0.3 C 0 km/h
889 27-02-2003 06:17:11 -0.3 C 3.56 g/m*3 -0.3 C 0 km/h
890 27-02-2003 06:20:10 -0.3 C 3.56 g/m*3 -0.3 C 0 km/h
891 27-02-2003 06:23:11 -0.2 C 3.63 g/m*3 -0.2 C 0 km/h
892 27-02-2003 06:26:10 -0.2 C 3.63 g/m*3 -0.2 C 0 km/h
893 27-02-2003 06:29:11 -0.2 C 3.68 g/m*3 -0.2 C 0 km/h
894 27-02-2003 06:32:10 -0.2 C 3.68 g/m*3 -0.2 C 0 km/h
895 27-02-2003 06:35:11 -0.2 C 3.68 g/m*3 -0.2 C 0 km/h
896 27-02-2003 06:38:10 -0.2 C 3.68 g/m*3 -0.2 C 0 km/h
897 27-02-2003 06:41:11 -0.3 C 3.65 g/m*3 -0.3 C 0 km/h
898 27-02-2003 06:44:10 -0.3 C 3.65 g/m*3 -0.3 C 0 km/h
899 27-02-2003 06:47:11 -0.3 C 3.65 g/m*3 -0.3 C 0 km/h
900 27-02-2003 06:50:10 -0.3 C 3.65 g/m*3 -0.3 C 0 km/h
Sensor: Nr:Datum:Temp:Abs-Feuchte:Windchill:Wind:
Aussen-T/F 901 27-02-2003 06:53:11 -0.3 C 3.65 g/m*3 -0.3 C 0 km/h
902 27-02-2003 06:56:10 -0.3 C 3.65 g/m*3 -0.3 C 0 km/h
903 27-02-2003 06:59:11 -0.3 C 3.65 g/m*3 -0.3 C 0 km/h
904 27-02-2003 07:02:10 -0.3 C 3.65 g/m*3 -0.3 C 0 km/h
905 27-02-2003 07:05:11 -0.5 C 3.6 g/m*3 -0.5 C 0 km/h
906 27-02-2003 07:08:10 -0.5 C 3.6 g/m*3 -0.5 C 0 km/h
907 27-02-2003 07:11:11 -0.6 C 3.53 g/m*3 -0.6 C 0 km/h
908 27-02-2003 07:14:10 -0.6 C 3.53 g/m*3 -0.6 C 0 km/h
909 27-02-2003 07:17:11 -0.6 C 3.53 g/m*3 -0.6 C 0 km/h
910 27-02-2003 07:20:10 -0.6 C 3.53 g/m*3 -0.6 C 0 km/h
911 27-02-2003 07:23:11 -0.6 C 3.53 g/m*3 -0.6 C 0 km/h
912 27-02-2003 07:26:10 -0.6 C 3.53 g/m*3 -0.6 C 0 km/h
913 27-02-2003 07:29:11 -0.4 C 3.58 g/m*3 -0.4 C 0 km/h
914 27-02-2003 07:32:10 -0.4 C 3.58 g/m*3 -0.4 C 0 km/h
915 27-02-2003 07:35:11 -0.3 C 3.61 g/m*3 -0.3 C 0 km/h
916 27-02-2003 07:38:10 -0.3 C 3.61 g/m*3 -0.3 C 0 km/h
917 27-02-2003 07:41:11 -0.3 C 3.61 g/m*3 -0.3 C 0 km/h
918 27-02-2003 07:44:10 -0.3 C 3.61 g/m*3 -0.3 C 0 km/h
919 27-02-2003 07:47:11 -0.3 C 3.61 g/m*3 -0.3 C 0 km/h
920 27-02-2003 07:50:10 -0.3 C 3.61 g/m*3 -0.3 C 0 km/h
921 27-02-2003 07:53:11 -0.2 C 3.63 g/m*3 -0.2 C 0 km/h
922 27-02-2003 07:56:10 -0.2 C 3.63 g/m*3 -0.2 C 0 km/h
923 27-02-2003 07:59:11 -0.1 C 3.66 g/m*3 -0.1 C 0 km/h
924 27-02-2003 08:02:10 -0.1 C 3.66 g/m*3 -0.1 C 0 km/h
925 27-02-2003 08:05:10 0 C 3.68 g/m*3 0 C 0 km/h
Sensor: Nr:Datum:Temp:Abs-Feuchte:Windchill:Wind:
Aussen-T/F 926 27-02-2003 08:08:10 0 C 3.68 g/m*3 0 C 0 km/h
927 27-02-2003 08:11:10 0.1 C 3.71 g/m*3 0.1 C 0 km/h
928 27-02-2003 08:14:10 0.1 C 3.71 g/m*3 0.1 C 0 km/h
929 27-02-2003 08:17:10 0.2 C 3.68 g/m*3 0.2 C 0 km/h
930 27-02-2003 08:20:10 0.2 C 3.68 g/m*3 0.2 C 0 km/h
931 27-02-2003 08:23:10 0.2 C 3.68 g/m*3 0.2 C 0 km/h
932 27-02-2003 08:26:10 0.2 C 3.68 g/m*3 0.2 C 0 km/h
933 27-02-2003 08:29:10 0.2 C 3.68 g/m*3 0.2 C 0 km/h
934 27-02-2003 08:32:10 0.2 C 3.68 g/m*3 0.2 C 0 km/h
935 27-02-2003 08:35:10 0.2 C 3.68 g/m*3 0.2 C 0 km/h
936 27-02-2003 08:38:10 0.2 C 3.68 g/m*3 0.2 C 0 km/h
937 27-02-2003 08:41:10 0.3 C 3.71 g/m*3 0.3 C 0 km/h
938 27-02-2003 08:44:10 0.3 C 3.71 g/m*3 0.3 C 0 km/h
939 27-02-2003 08:47:10 0.3 C 3.71 g/m*3 0.3 C 0 km/h
940 27-02-2003 08:50:10 0.3 C 3.71 g/m*3 0.3 C 0 km/h
941 27-02-2003 08:53:10 0.4 C 3.74 g/m*3 0.4 C 0 km/h
942 27-02-2003 08:56:10 0.4 C 3.74 g/m*3 0.4 C 0 km/h
943 27-02-2003 08:59:10 0.5 C 3.76 g/m*3 0.5 C 0 km/h
944 27-02-2003 09:02:10 0.5 C 3.76 g/m*3 0.5 C 0 km/h
945 27-02-2003 09:05:10 0.6 C 3.79 g/m*3 0.6 C 0 km/h
946 27-02-2003 09:08:10 0.6 C 3.79 g/m*3 0.6 C 0 km/h
947 27-02-2003 09:11:10 0.6 C 3.79 g/m*3 0.6 C 0 km/h
948 27-02-2003 09:14:10 0.6 C 3.79 g/m*3 0.6 C 0 km/h
949 27-02-2003 09:17:10 0.7 C 3.76 g/m*3 0.7 C 0 km/h
950 27-02-2003 09:20:10 0.7 C 3.76 g/m*3 0.7 C 0 km/h
Sensor: Nr:Datum:Temp:Abs-Feuchte:Windchill:Wind:
Aussen-T/F 951 27-02-2003 09:23:10 0.9 C 3.81 g/m*3 0.9 C 0 km/h
952 27-02-2003 09:26:10 0.9 C 3.81 g/m*3 0.9 C 0 km/h
953 27-02-2003 09:29:10 1 C 3.79 g/m*3 1 C 0 km/h
954 27-02-2003 09:32:10 1 C 3.79 g/m*3 1 C 0 km/h
955 27-02-2003 09:35:10 1.1 C 3.81 g/m*3 1.1 C 0 km/h
956 27-02-2003 09:38:10 1.1 C 3.81 g/m*3 1.1 C 0 km/h
957 27-02-2003 09:41:10 1.3 C 3.87 g/m*3 1.3 C 0 km/h
958 27-02-2003 09:44:10 1.3 C 3.87 g/m*3 1.3 C 0 km/h
959 27-02-2003 09:47:10 1.4 C 3.84 g/m*3 1.4 C 0 km/h
960 27-02-2003 09:50:10 1.4 C 3.84 g/m*3 1.4 C 0 km/h
961 27-02-2003 09:53:10 1.7 C 3.92 g/m*3 1.7 C 0 km/h
962 27-02-2003 09:56:10 1.7 C 3.92 g/m*3 1.7 C 0 km/h
963 27-02-2003 09:59:10 2.1 C 3.97 g/m*3 2.1 C 0 km/h
964 27-02-2003 10:02:10 2.1 C 3.97 g/m*3 2.1 C 0 km/h
965 27-02-2003 10:05:10 2.5 C 3.97 g/m*3 2.5 C 0 km/h
966 27-02-2003 10:08:10 2.5 C 3.97 g/m*3 2.5 C 0 km/h
967 27-02-2003 10:11:10 2.8 C 3.99 g/m*3 2.8 C 0 km/h
968 27-02-2003 10:14:10 2.8 C 3.99 g/m*3 2.8 C 0 km/h
969 27-02-2003 10:17:10 3.2 C 3.98 g/m*3 3.2 C 0 km/h
970 27-02-2003 10:20:10 3.2 C 3.98 g/m*3 3.2 C 0 km/h
971 27-02-2003 10:23:10 3.5 C 4 g/m*3 3.5 C 0 km/h
972 27-02-2003 10:26:10 3.5 C 4 g/m*3 3.5 C 0 km/h
973 27-02-2003 10:29:10 3.9 C 4.04 g/m*3 3.9 C 0 km/h
974 27-02-2003 10:32:10 3.9 C 4.04 g/m*3 3.9 C 0 km/h
975 27-02-2003 10:35:10 4.2 C 3.93 g/m*3 4.2 C 0 km/h
Sensor: Nr:Datum:Temp:Abs-Feuchte:Windchill:Wind:
Aussen-T/F 976 27-02-2003 10:38:10 4.2 C 3.93 g/m*3 4.2 C 0 km/h
977 27-02-2003 10:41:10 4.2 C 3.93 g/m*3 4.2 C 0 km/h
978 27-02-2003 10:44:10 4.2 C 3.93 g/m*3 4.2 C 0 km/h
979 27-02-2003 10:47:10 4.6 C 3.9 g/m*3 4.6 C 0 km/h
980 27-02-2003 10:50:10 4.6 C 3.9 g/m*3 4.6 C 0 km/h
981 27-02-2003 10:53:10 5.1 C 3.9 g/m*3 5.1 C 0 km/h
982 27-02-2003 10:56:10 5.1 C 3.9 g/m*3 5.1 C 0 km/h
983 27-02-2003 10:59:10 5.3 C 3.95 g/m*3 5.3 C 0 km/h
984 27-02-2003 11:02:10 5.3 C 3.95 g/m*3 5.3 C 0 km/h
985 27-02-2003 11:05:10 5.4 C 3.98 g/m*3 5.4 C 0 km/h
986 27-02-2003 11:08:10 5.4 C 3.98 g/m*3 5.4 C 0 km/h
987 27-02-2003 11:11:10 5.6 C 4.1 g/m*3 5.6 C 0 km/h
988 27-02-2003 11:14:10 5.6 C 4.1 g/m*3 5.6 C 0 km/h
989 27-02-2003 11:17:10 5.8 C 4.08 g/m*3 5.8 C 0 km/h
990 27-02-2003 11:20:10 5.8 C 4.08 g/m*3 5.8 C 0 km/h
991 27-02-2003 11:23:10 5.9 C 4.11 g/m*3 5.9 C 0 km/h
992 27-02-2003 11:26:10 5.9 C 4.11 g/m*3 5.9 C 0 km/h
993 27-02-2003 11:29:10 6.3 C 4.07 g/m*3 6.3 C 0 km/h
994 27-02-2003 11:32:10 6.3 C 4.07 g/m*3 6.3 C 0 km/h
995 27-02-2003 11:35:10 6.5 C 4.05 g/m*3 6.5 C 0 km/h
996 27-02-2003 11:38:10 6.5 C 4.05 g/m*3 6.5 C 0 km/h
997 27-02-2003 11:41:10 7.1 C 3.9 g/m*3 7.1 C 0 km/h
998 27-02-2003 11:44:10 7.1 C 3.9 g/m*3 7.1 C 0 km/h
999 27-02-2003 11:47:10 7.5 C 4 g/m*3 7.5 C 0 km/h
1000 27-02-2003 11:50:10 7.5 C 4 g/m*3 7.5 C 0 km/h
Sensor: Nr:Datum:Temp:Abs-Feuchte:Windchill:Wind:
Aussen-T/F 1001 27-02-2003 11:53:10 7.6 C 3.95 g/m*3 7.6 C 0 km/h
1002 27-02-2003 11:56:10 7.6 C 3.95 g/m*3 7.6 C 0 km/h
1003 27-02-2003 11:59:10 8.2 C 4.02 g/m*3 8.2 C 0 km/h
1004 27-02-2003 12:02:10 8.2 C 4.02 g/m*3 8.2 C 0 km/h
1005 27-02-2003 12:05:00 8.7 C 4.06 g/m*3 8.7 C 0 km/h
1006 27-02-2003 12:08:10 8.7 C 4.06 g/m*3 8.7 C 0 km/h
1007 27-02-2003 12:11:00 9.1 C 4.08 g/m*3 9.1 C 0 km/h
1008 27-02-2003 12:14:10 9.1 C 4.08 g/m*3 9.1 C 0 km/h
1009 27-02-2003 12:17:00 9.5 C 4.1 g/m*3 9.5 C 0 km/h
1010 27-02-2003 12:20:10 9.5 C 4.1 g/m*3 9.5 C 0 km/h
1011 27-02-2003 12:23:00 9.8 C 4.08 g/m*3 9.8 C 0 km/h
1012 27-02-2003 12:26:10 9.8 C 4.08 g/m*3 9.8 C 0 km/h
1013 27-02-2003 12:29:00 10.1 C 3.97 g/m*3 10.1 C 0 km/h
1014 27-02-2003 12:32:10 10.1 C 3.97 g/m*3 10.1 C 0 km/h
1015 27-02-2003 12:35:00 10.4 C 4.05 g/m*3 10.4 C 0 km/h
1016 27-02-2003 12:38:10 10.4 C 4.05 g/m*3 10.4 C 0 km/h
1017 27-02-2003 12:41:00 10.3 C 4.12 g/m*3 10.3 C 0 km/h
1018 27-02-2003 12:44:10 10.3 C 4.12 g/m*3 10.3 C 0 km/h
1019 27-02-2003 12:47:00 10.4 C 4.24 g/m*3 10.4 C 0 km/h
1020 27-02-2003 12:50:10 10.4 C 4.24 g/m*3 10.4 C 0 km/h
1021 27-02-2003 12:53:00 10.6 C 4.29 g/m*3 10.6 C 0 km/h
1022 27-02-2003 12:56:10 10.6 C 4.29 g/m*3 10.6 C 0 km/h
1023 27-02-2003 12:59:00 10.9 C 4.38 g/m*3 10.9 C 0 km/h
1024 27-02-2003 13:02:10 10.9 C 4.38 g/m*3 10.9 C 0 km/h
1025 27-02-2003 13:05:19 11.2 C 4.26 g/m*3 11.2 C 0 km/h
Sensor: Nr:Datum:Temp:Abs-Feuchte:Windchill:Wind:
Aussen-T/F 1026 27-02-2003 13:08:10 11.2 C 4.26 g/m*3 11.2 C 0 km/h
1027 27-02-2003 13:11:15 11.5 C 4.34 g/m*3 11.5 C 0 km/h
1028 27-02-2003 13:14:10 11.5 C 4.34 g/m*3 11.5 C 0 km/h
1029 27-02-2003 13:17:15 12.1 C 4.5 g/m*3 12.1 C 0 km/h
1030 27-02-2003 13:20:10 12.1 C 4.5 g/m*3 12.1 C 0 km/h
1031 27-02-2003 13:23:15 12.7 C 4.45 g/m*3 12.7 C 0 km/h
1032 27-02-2003 13:26:10 12.7 C 4.45 g/m*3 12.7 C 0 km/h
1033 27-02-2003 13:29:15 13.4 C 4.07 g/m*3 13.4 C 0 km/h
1034 27-02-2003 13:32:10 13.4 C 4.07 g/m*3 13.4 C 0 km/h
1035 27-02-2003 13:35:15 13.6 C 4 g/m*3 13.6 C 0 km/h
1036 27-02-2003 13:38:10 13.6 C 4 g/m*3 13.6 C 0 km/h
1037 27-02-2003 13:41:16 13.5 C 4.21 g/m*3 13.5 C 0 km/h
1038 27-02-2003 13:44:10 13.5 C 4.21 g/m*3 13.5 C 0 km/h
1039 27-02-2003 13:47:15 13.9 C 4.32 g/m*3 13.9 C 0 km/h
1040 27-02-2003 13:50:10 13.9 C 4.32 g/m*3 13.9 C 0 km/h
1041 27-02-2003 13:53:10 14 C 4.34 g/m*3 14 C 0 km/h
1042 27-02-2003 13:56:10 14 C 4.34 g/m*3 14 C 0 km/h
1043 27-02-2003 13:59:10 14.8 C 4.18 g/m*3 14.8 C 0 km/h
1044 27-02-2003 14:02:10 14.8 C 4.18 g/m*3 14.8 C 0 km/h
1045 27-02-2003 14:05:10 15.5 C 3.97 g/m*3 15.5 C 0 km/h
1046 27-02-2003 14:08:10 15.5 C 3.97 g/m*3 15.5 C 0 km/h
1047 27-02-2003 14:11:10 16 C 3.95 g/m*3 16 C 0 km/h
1048 27-02-2003 14:14:10 16 C 3.95 g/m*3 16 C 0 km/h
1049 27-02-2003 14:17:10 16.2 C 4 g/m*3 16.2 C 0 km/h
1050 27-02-2003 14:20:10 16.2 C 4 g/m*3 16.2 C 0 km/h
Sensor: Nr:Datum:Temp:Abs-Feuchte:Windchill:Wind:
Aussen-T/F 1051 27-02-2003 14:23:10 16.6 C 4.24 g/m*3 16.6 C 0 km/h
1052 27-02-2003 14:26:10 16.6 C 4.24 g/m*3 16.6 C 0 km/h
1053 27-02-2003 14:29:10 16.9 C 4.31 g/m*3 16.9 C 0 km/h
1054 27-02-2003 14:32:10 16.9 C 4.31 g/m*3 16.9 C 0 km/h
1055 27-02-2003 14:35:10 17.1 C 4.37 g/m*3 17.1 C 0 km/h
1056 27-02-2003 14:38:10 17.1 C 4.37 g/m*3 17.1 C 0 km/h
1057 27-02-2003 14:41:10 16.8 C 4.43 g/m*3 16.8 C 0 km/h
1058 27-02-2003 14:44:10 16.8 C 4.43 g/m*3 16.8 C 0 km/h
1059 27-02-2003 14:47:10 16.7 C 4.41 g/m*3 16.7 C 0 km/h
1060 27-02-2003 14:50:10 16.7 C 4.41 g/m*3 16.7 C 0 km/h
1061 27-02-2003 14:53:10 16.9 C 4.46 g/m*3 16.9 C 0 km/h
1062 27-02-2003 14:56:10 16.9 C 4.46 g/m*3 16.9 C 0 km/h
1063 27-02-2003 14:59:10 17 C 4.34 g/m*3 17 C 0 km/h
1064 27-02-2003 15:02:10 17 C 4.34 g/m*3 17 C 0 km/h
1065 27-02-2003 15:05:10 17.3 C 4.42 g/m*3 17.3 C 0 km/h
1066 27-02-2003 15:08:10 17.3 C 4.42 g/m*3 17.3 C 0 km/h
1067 27-02-2003 15:11:10 17.5 C 4.62 g/m*3 17.5 C 0 km/h
1068 27-02-2003 15:14:10 17.5 C 4.62 g/m*3 17.5 C 0 km/h
1069 27-02-2003 15:17:10 17.7 C 4.53 g/m*3 17.7 C 0 km/h
1070 27-02-2003 15:20:10 17.7 C 4.53 g/m*3 17.7 C 0 km/h
1071 27-02-2003 15:23:10 17.8 C 4.4 g/m*3 17.8 C 0 km/h
1072 27-02-2003 15:26:10 17.8 C 4.4 g/m*3 17.8 C 0 km/h
1073 27-02-2003 15:29:10 18 C 4.61 g/m*3 18 C 0 km/h
1074 27-02-2003 15:32:10 18 C 4.61 g/m*3 18 C 0 km/h
1075 27-02-2003 15:35:10 17.7 C 4.53 g/m*3 17.7 C 0 km/h
Sensor: Nr:Datum:Temp:Abs-Feuchte:Windchill:Wind:
Aussen-T/F 1076 27-02-2003 15:38:10 17.7 C 4.53 g/m*3 17.7 C 0 km/h
1077 27-02-2003 15:41:10 17.8 C 4.4 g/m*3 17.8 C 0 km/h
1078 27-02-2003 15:44:10 17.8 C 4.4 g/m*3 17.8 C 0 km/h
1079 27-02-2003 15:47:10 18.1 C 4.48 g/m*3 18.1 C 0 km/h
1080 27-02-2003 15:50:10 18.1 C 4.48 g/m*3 18.1 C 0 km/h
1081 27-02-2003 15:53:10 18.2 C 4.82 g/m*3 18.2 C 0 km/h
1082 27-02-2003 15:56:10 18.2 C 4.82 g/m*3 18.2 C 0 km/h
1083 27-02-2003 15:59:10 18.2 C 4.51 g/m*3 18.2 C 0 km/h
1084 27-02-2003 16:02:10 18.2 C 4.51 g/m*3 18.2 C 0 km/h
1085 27-02-2003 16:05:53 17.6 C 4.65 g/m*3 17.6 C 0 km/h
1086 27-02-2003 16:08:10 17.6 C 4.65 g/m*3 17.6 C 0 km/h
1087 27-02-2003 16:11:53 17.7 C 4.68 g/m*3 17.7 C 0 km/h
1088 27-02-2003 16:14:10 17.7 C 4.68 g/m*3 17.7 C 0 km/h
1089 27-02-2003 16:17:53 17.7 C 4.53 g/m*3 17.7 C 0 km/h
1090 27-02-2003 16:20:10 17.7 C 4.53 g/m*3 17.7 C 0 km/h
1091 27-02-2003 16:23:53 16.8 C 4.43 g/m*3 16.8 C 0 km/h
1092 27-02-2003 16:26:10 16.8 C 4.43 g/m*3 16.8 C 0 km/h
1093 27-02-2003 16:29:53 15.6 C 4.39 g/m*3 15.6 C 0 km/h
1094 27-02-2003 16:32:10 15.6 C 4.39 g/m*3 15.6 C 0 km/h
1095 27-02-2003 16:35:53 14.8 C 4.56 g/m*3 14.8 C 0 km/h
1096 27-02-2003 16:38:10 14.8 C 4.56 g/m*3 14.8 C 0 km/h
1097 27-02-2003 16:41:53 14.2 C 4.52 g/m*3 14.2 C 0 km/h
1098 27-02-2003 16:44:10 14.2 C 4.52 g/m*3 14.2 C 0 km/h
1099 27-02-2003 16:47:53 13.8 C 4.77 g/m*3 13.8 C 0 km/h
1100 27-02-2003 16:50:10 13.8 C 4.77 g/m*3 13.8 C 0 km/h
Sensor: Nr:Datum:Temp:Abs-Feuchte:Windchill:Wind:
Aussen-T/F 1101 27-02-2003 16:53:53 13.7 C 4.74 g/m*3 13.7 C 0 km/h
1102 27-02-2003 16:56:10 13.7 C 4.74 g/m*3 13.7 C 0 km/h
1103 27-02-2003 16:59:53 13.5 C 4.8 g/m*3 13.5 C 0 km/h
1104 27-02-2003 17:02:10 13.5 C 4.8 g/m*3 13.5 C 0 km/h
1105 27-02-2003 17:05:53 13.3 C 4.74 g/m*3 13.3 C 0 km/h
1106 27-02-2003 17:08:10 13.3 C 4.74 g/m*3 13.3 C 0 km/h
1107 27-02-2003 17:12:10 13.1 C 4.91 g/m*3 13.1 C 0 km/h
1108 27-02-2003 17:14:10 13.1 C 4.91 g/m*3 13.1 C 0 km/h
1109 27-02-2003 17:18:10 13 C 4.65 g/m*3 13 C 0 km/h
1110 27-02-2003 17:20:10 13 C 4.65 g/m*3 13 C 0 km/h
1111 27-02-2003 17:24:10 12.8 C 4.93 g/m*3 12.8 C 0 km/h
1112 27-02-2003 17:26:10 12.8 C 4.93 g/m*3 12.8 C 0 km/h
1113 27-02-2003 17:30:10 12.8 C 4.93 g/m*3 12.8 C 0 km/h
1114 27-02-2003 17:32:10 12.8 C 4.93 g/m*3 12.8 C 0 km/h
1115 27-02-2003 17:36:10 12.9 C 4.96 g/m*3 12.9 C 0 km/h
1116 27-02-2003 17:38:10 12.9 C 4.96 g/m*3 12.9 C 0 km/h
1117 27-02-2003 17:48:10 12.7 C 5.01 g/m*3 12.7 C 0 km/h
1118 27-02-2003 17:50:10 12.7 C 5.01 g/m*3 12.7 C 0 km/h
1119 27-02-2003 17:54:10 12.4 C 5.03 g/m*3 12.4 C 0 km/h
1120 27-02-2003 17:56:10 12.4 C 5.03 g/m*3 12.4 C 0 km/h
1121 27-02-2003 18:00:10 12.1 C 4.93 g/m*3 12.1 C 0 km/h
1122 27-02-2003 18:02:10 12.1 C 4.93 g/m*3 12.1 C 0 km/h
1123 27-02-2003 18:06:10 11.8 C 4.95 g/m*3 11.8 C 0 km/h
1124 27-02-2003 18:08:10 11.8 C 4.95 g/m*3 11.8 C 0 km/h
1125 27-02-2003 18:12:10 11.6 C 4.99 g/m*3 11.6 C 0 km/h
Sensor: Nr:Datum:Temp:Abs-Feuchte:Windchill:Wind:
Aussen-T/F 1126 27-02-2003 18:14:10 11.6 C 4.99 g/m*3 11.6 C 0 km/h
1127 27-02-2003 18:18:10 11.4 C 4.93 g/m*3 11.4 C 0 km/h
1128 27-02-2003 18:20:10 11.4 C 4.93 g/m*3 11.4 C 0 km/h
1129 27-02-2003 18:24:10 11.1 C 4.94 g/m*3 11.1 C 0 km/h
1130 27-02-2003 18:26:10 11.1 C 4.94 g/m*3 11.1 C 0 km/h
1131 27-02-2003 18:30:10 11 C 4.9 g/m*3 11 C 0 km/h
1132 27-02-2003 18:32:10 11 C 4.9 g/m*3 11 C 0 km/h
1133 27-02-2003 18:36:10 10.7 C 4.91 g/m*3 10.7 C 0 km/h
1134 27-02-2003 18:38:10 10.7 C 4.91 g/m*3 10.7 C 0 km/h
1135 27-02-2003 18:42:10 10.6 C 4.88 g/m*3 10.6 C 0 km/h
1136 27-02-2003 18:44:10 10.6 C 4.88 g/m*3 10.6 C 0 km/h
1137 27-02-2003 18:48:10 10.4 C 4.92 g/m*3 10.4 C 0 km/h
1138 27-02-2003 18:50:10 10.4 C 4.92 g/m*3 10.4 C 0 km/h
1139 27-02-2003 18:54:10 10.2 C 4.85 g/m*3 10.2 C 0 km/h
1140 27-02-2003 18:56:10 10.2 C 4.85 g/m*3 10.2 C 0 km/h
1141 27-02-2003 19:00:10 10 C 4.79 g/m*3 10 C 0 km/h
1142 27-02-2003 19:02:10 10 C 4.79 g/m*3 10 C 0 km/h
1143 27-02-2003 19:06:10 9.8 C 4.92 g/m*3 9.8 C 0 km/h
1144 27-02-2003 19:08:10 9.8 C 4.92 g/m*3 9.8 C 0 km/h
1145 27-02-2003 19:12:10 9.7 C 4.89 g/m*3 9.7 C 0 km/h
1146 27-02-2003 19:14:10 9.7 C 4.89 g/m*3 9.7 C 0 km/h
1147 27-02-2003 19:18:10 9.4 C 4.97 g/m*3 9.4 C 0 km/h
1148 27-02-2003 19:20:10 9.4 C 4.97 g/m*3 9.4 C 0 km/h
1149 27-02-2003 19:24:10 9.1 C 4.88 g/m*3 9.1 C 0 km/h
1150 27-02-2003 19:26:10 9.1 C 4.88 g/m*3 9.1 C 0 km/h
Sensor: Nr:Datum:Temp:Abs-Feuchte:Windchill:Wind:
Aussen-T/F 1151 27-02-2003 19:30:10 9 C 4.94 g/m*3 9 C 0 km/h
1152 27-02-2003 19:32:10 9 C 4.94 g/m*3 9 C 0 km/h
1153 27-02-2003 19:36:10 8.9 C 4.99 g/m*3 8.9 C 0 km/h
1154 27-02-2003 19:38:10 8.9 C 4.99 g/m*3 8.9 C 0 km/h
1155 27-02-2003 19:42:10 9.3 C 5.03 g/m*3 9.3 C 0 km/h
1156 27-02-2003 19:44:10 9.3 C 5.03 g/m*3 9.3 C 0 km/h
1157 27-02-2003 19:48:10 9.2 C 4.91 g/m*3 9.2 C 0 km/h
1158 27-02-2003 19:50:10 9.2 C 4.91 g/m*3 9.2 C 0 km/h
1159 27-02-2003 19:54:10 9 C 4.94 g/m*3 9 C 0 km/h
1160 27-02-2003 19:56:10 9 C 4.94 g/m*3 9 C 0 km/h
1161 27-02-2003 20:00:10 9 C 4.94 g/m*3 9 C 0 km/h
1162 27-02-2003 20:02:10 9 C 4.94 g/m*3 9 C 0 km/h
1163 27-02-2003 20:06:10 8.7 C 4.93 g/m*3 8.7 C 0 km/h
1164 27-02-2003 20:08:10 8.7 C 4.93 g/m*3 8.7 C 0 km/h
1165 27-02-2003 20:12:10 8.2 C 4.94 g/m*3 8.2 C 0 km/h
1166 27-02-2003 20:14:10 8.2 C 4.94 g/m*3 8.2 C 0 km/h
1167 27-02-2003 20:18:10 8 C 4.88 g/m*3 8 C 0 km/h
1168 27-02-2003 20:20:10 8 C 4.88 g/m*3 8 C 0 km/h
1169 27-02-2003 20:24:10 7.8 C 4.9 g/m*3 7.8 C 0 km/h
1170 27-02-2003 20:26:10 7.8 C 4.9 g/m*3 7.8 C 0 km/h
1171 27-02-2003 20:30:10 7.5 C 4.8 g/m*3 7.5 C 0 km/h
1172 27-02-2003 20:32:10 7.5 C 4.8 g/m*3 7.5 C 0 km/h
1173 27-02-2003 20:36:10 7.4 C 4.85 g/m*3 7.4 C 0 km/h
1174 27-02-2003 20:38:10 7.4 C 4.85 g/m*3 7.4 C 0 km/h
1175 27-02-2003 20:42:10 7.1 C 4.84 g/m*3 7.1 C 0 km/h
Sensor: Nr:Datum:Temp:Abs-Feuchte:Windchill:Wind:
Aussen-T/F 1176 27-02-2003 20:44:10 7.1 C 4.84 g/m*3 7.1 C 0 km/h
1177 27-02-2003 20:48:10 7 C 4.8 g/m*3 7 C 0 km/h
1178 27-02-2003 20:50:10 7 C 4.8 g/m*3 7 C 0 km/h
1179 27-02-2003 20:54:10 6.7 C 4.86 g/m*3 6.7 C 0 km/h
1180 27-02-2003 20:56:10 6.7 C 4.86 g/m*3 6.7 C 0 km/h
1181 27-02-2003 21:00:10 6.4 C 4.84 g/m*3 6.4 C 0 km/h
1182 27-02-2003 21:02:10 6.4 C 4.84 g/m*3 6.4 C 0 km/h
1183 27-02-2003 21:06:10 6.2 C 4.78 g/m*3 6.2 C 0 km/h
1184 27-02-2003 21:08:10 6.2 C 4.78 g/m*3 6.2 C 0 km/h
1185 27-02-2003 21:12:10 6 C 4.79 g/m*3 6 C 0 km/h
1186 27-02-2003 21:14:10 6 C 4.79 g/m*3 6 C 0 km/h
1187 27-02-2003 21:18:10 5.8 C 4.87 g/m*3 5.8 C 0 km/h
1188 27-02-2003 21:20:10 5.8 C 4.87 g/m*3 5.8 C 0 km/h
1189 27-02-2003 21:24:10 5.7 C 4.84 g/m*3 5.7 C 0 km/h
1190 27-02-2003 21:26:10 5.7 C 4.84 g/m*3 5.7 C 0 km/h
1191 27-02-2003 21:30:10 5.6 C 4.88 g/m*3 5.6 C 0 km/h
1192 27-02-2003 21:32:10 5.6 C 4.88 g/m*3 5.6 C 0 km/h
1193 27-02-2003 21:36:10 5.4 C 4.81 g/m*3 5.4 C 0 km/h
1194 27-02-2003 21:38:10 5.4 C 4.81 g/m*3 5.4 C 0 km/h
1195 27-02-2003 21:42:10 5.4 C 4.88 g/m*3 5.4 C 0 km/h
1196 27-02-2003 21:44:10 5.4 C 4.88 g/m*3 5.4 C 0 km/h
1197 27-02-2003 21:48:10 5.4 C 4.88 g/m*3 5.4 C 0 km/h
1198 27-02-2003 21:50:10 5.4 C 4.88 g/m*3 5.4 C 0 km/h
1199 27-02-2003 21:54:10 5.2 C 4.82 g/m*3 5.2 C 0 km/h
1200 27-02-2003 21:56:10 5.2 C 4.82 g/m*3 5.2 C 0 km/h
Sensor: Nr:Datum:Temp:Abs-Feuchte:Windchill:Wind:
Aussen-T/F 1201 27-02-2003 22:00:10 5 C 4.76 g/m*3 5 C 0 km/h
1202 27-02-2003 22:02:10 5 C 4.76 g/m*3 5 C 0 km/h
1203 27-02-2003 22:06:10 4.9 C 4.79 g/m*3 4.9 C 0 km/h
1204 27-02-2003 22:08:10 4.9 C 4.79 g/m*3 4.9 C 0 km/h
1205 27-02-2003 22:12:10 4.8 C 4.9 g/m*3 4.8 C 0 km/h
1206 27-02-2003 22:14:10 4.8 C 4.9 g/m*3 4.8 C 0 km/h
1207 27-02-2003 22:18:10 4.7 C 4.8 g/m*3 4.7 C 0 km/h
1208 27-02-2003 22:20:10 4.7 C 4.8 g/m*3 4.7 C 0 km/h
1209 27-02-2003 22:24:10 4.7 C 4.86 g/m*3 4.7 C 0 km/h
1210 27-02-2003 22:26:10 4.7 C 4.86 g/m*3 4.7 C 0 km/h
1211 27-02-2003 22:30:10 4.7 C 4.86 g/m*3 4.7 C 0 km/h
1212 27-02-2003 22:32:10 4.7 C 4.86 g/m*3 4.7 C 0 km/h
1213 27-02-2003 22:36:10 4.6 C 4.76 g/m*3 4.6 C 0 km/h
1214 27-02-2003 22:38:10 4.6 C 4.76 g/m*3 4.6 C 0 km/h
1215 27-02-2003 22:42:10 4.5 C 4.73 g/m*3 4.5 C 0 km/h
1216 27-02-2003 22:44:10 4.5 C 4.73 g/m*3 4.5 C 0 km/h
1217 27-02-2003 22:48:10 4.3 C 4.74 g/m*3 4.3 C 0 km/h
1218 27-02-2003 22:50:10 4.3 C 4.74 g/m*3 4.3 C 0 km/h
1219 27-02-2003 22:54:10 4.2 C 4.7 g/m*3 4.2 C 0 km/h
1220 27-02-2003 22:56:10 4.2 C 4.7 g/m*3 4.2 C 0 km/h
1221 27-02-2003 23:00:10 4.2 C 4.77 g/m*3 4.2 C 0 km/h
1222 27-02-2003 23:02:10 4.2 C 4.77 g/m*3 4.2 C 0 km/h
1223 27-02-2003 23:06:10 4.3 C 4.8 g/m*3 4.3 C 0 km/h
1224 27-02-2003 23:08:10 4.3 C 4.8 g/m*3 4.3 C 0 km/h
1225 27-02-2003 23:12:10 4.3 C 4.74 g/m*3 4.3 C 0 km/h
Sensor: Nr:Datum:Temp:Abs-Feuchte:Windchill:Wind:
Aussen-T/F 1226 27-02-2003 23:14:10 4.3 C 4.74 g/m*3 4.3 C 0 km/h
1227 27-02-2003 23:18:10 4.4 C 4.77 g/m*3 4.4 C 0 km/h
1228 27-02-2003 23:20:10 4.4 C 4.77 g/m*3 4.4 C 0 km/h
1229 27-02-2003 23:24:10 4.4 C 4.7 g/m*3 4.4 C 0 km/h
1230 27-02-2003 23:26:10 4.4 C 4.7 g/m*3 4.4 C 0 km/h
1231 27-02-2003 23:30:10 4.3 C 4.67 g/m*3 4.3 C 0 km/h
1232 27-02-2003 23:32:10 4.3 C 4.67 g/m*3 4.3 C 0 km/h
1233 27-02-2003 23:36:10 4.3 C 4.67 g/m*3 4.3 C 0 km/h
1234 27-02-2003 23:38:10 4.3 C 4.67 g/m*3 4.3 C 0 km/h
1235 27-02-2003 23:42:10 4.4 C 4.77 g/m*3 4.4 C 0 km/h
1236 27-02-2003 23:44:10 4.4 C 4.77 g/m*3 4.4 C 0 km/h
1237 27-02-2003 23:48:10 4.4 C 4.77 g/m*3 4.4 C 0 km/h
1238 27-02-2003 23:50:10 4.4 C 4.77 g/m*3 4.4 C 0 km/h
1239 27-02-2003 23:54:10 4.5 C 4.8 g/m*3 4.5 C 0 km/h
1240 27-02-2003 23:56:10 4.5 C 4.8 g/m*3 4.5 C 0 km/h
1241 28-02-2003 00:00:10 4.4 C 4.7 g/m*3 4.4 C 0 km/h
1242 28-02-2003 00:02:10 4.4 C 4.7 g/m*3 4.4 C 0 km/h
1243 28-02-2003 00:06:10 4.3 C 4.67 g/m*3 4.3 C 0 km/h
1244 28-02-2003 00:08:10 4.3 C 4.67 g/m*3 4.3 C 0 km/h
1245 28-02-2003 00:12:10 4 C 4.64 g/m*3 4 C 0 km/h
1246 28-02-2003 00:14:10 4 C 4.64 g/m*3 4 C 0 km/h
1247 28-02-2003 00:18:10 3.8 C 4.64 g/m*3 3.8 C 0 km/h
1248 28-02-2003 00:20:10 3.8 C 4.64 g/m*3 3.8 C 0 km/h
1249 28-02-2003 00:24:10 3.8 C 4.71 g/m*3 3.8 C 0 km/h
1250 28-02-2003 00:26:10 3.8 C 4.71 g/m*3 3.8 C 0 km/h
Sensor: Nr:Datum:Temp:Abs-Feuchte:Windchill:Wind:
Aussen-T/F 1251 28-02-2003 00:30:10 3.8 C 4.71 g/m*3 3.8 C 0 km/h
1252 28-02-2003 00:32:10 3.8 C 4.71 g/m*3 3.8 C 0 km/h
1253 28-02-2003 00:36:10 3.7 C 4.67 g/m*3 3.7 C 0 km/h
1254 28-02-2003 00:38:10 3.7 C 4.67 g/m*3 3.7 C 0 km/h
1255 28-02-2003 00:42:10 3.6 C 4.64 g/m*3 3.6 C 0 km/h
1256 28-02-2003 00:44:10 3.6 C 4.64 g/m*3 3.6 C 0 km/h
1257 28-02-2003 00:48:10 3.5 C 4.61 g/m*3 3.5 C 0 km/h
1258 28-02-2003 00:50:10 3.5 C 4.61 g/m*3 3.5 C 0 km/h
1259 28-02-2003 00:54:10 3.5 C 4.61 g/m*3 3.5 C 0 km/h
1260 28-02-2003 00:56:10 3.5 C 4.61 g/m*3 3.5 C 0 km/h
1261 28-02-2003 01:00:10 3.6 C 4.64 g/m*3 3.6 C 0 km/h
1262 28-02-2003 01:02:10 3.6 C 4.64 g/m*3 3.6 C 0 km/h
1263 28-02-2003 01:06:10 3.6 C 4.7 g/m*3 3.6 C 0 km/h
1264 28-02-2003 01:08:10 3.6 C 4.7 g/m*3 3.6 C 0 km/h
1265 28-02-2003 01:12:10 3.4 C 4.64 g/m*3 3.4 C 0 km/h
1266 28-02-2003 01:14:10 3.4 C 4.64 g/m*3 3.4 C 0 km/h
1267 28-02-2003 01:18:10 3.4 C 4.64 g/m*3 3.4 C 0 km/h
1268 28-02-2003 01:20:10 3.4 C 4.64 g/m*3 3.4 C 0 km/h
1269 28-02-2003 01:24:10 3.6 C 4.7 g/m*3 3.6 C 0 km/h
1270 28-02-2003 01:26:10 3.6 C 4.7 g/m*3 3.6 C 0 km/h
1271 28-02-2003 01:30:10 3.7 C 4.74 g/m*3 3.7 C 0 km/h
1272 28-02-2003 01:32:10 3.7 C 4.74 g/m*3 3.7 C 0 km/h
1273 28-02-2003 01:36:10 3.8 C 4.77 g/m*3 3.8 C 0 km/h
1274 28-02-2003 01:38:10 3.8 C 4.77 g/m*3 3.8 C 0 km/h
1275 28-02-2003 01:42:10 3.8 C 4.71 g/m*3 3.8 C 0 km/h
Sensor: Nr:Datum:Temp:Abs-Feuchte:Windchill:Wind:
Aussen-T/F 1276 28-02-2003 01:44:10 3.8 C 4.71 g/m*3 3.8 C 0 km/h
1277 28-02-2003 01:48:10 4 C 4.7 g/m*3 4 C 0 km/h
1278 28-02-2003 01:50:10 4 C 4.7 g/m*3 4 C 0 km/h
1279 28-02-2003 01:54:10 4 C 4.7 g/m*3 4 C 0 km/h
1280 28-02-2003 01:56:10 4 C 4.7 g/m*3 4 C 0 km/h
1281 28-02-2003 02:00:10 4.1 C 4.67 g/m*3 4.1 C 0 km/h
1282 28-02-2003 02:02:10 4.1 C 4.67 g/m*3 4.1 C 0 km/h
1283 28-02-2003 02:06:10 3.8 C 4.64 g/m*3 3.8 C 0 km/h
1284 28-02-2003 02:08:10 3.8 C 4.64 g/m*3 3.8 C 0 km/h
1285 28-02-2003 02:12:10 3.8 C 4.71 g/m*3 3.8 C 0 km/h
1286 28-02-2003 02:14:10 3.8 C 4.71 g/m*3 3.8 C 0 km/h
1287 28-02-2003 02:18:10 3.8 C 4.71 g/m*3 3.8 C 0 km/h
1288 28-02-2003 02:20:10 3.8 C 4.71 g/m*3 3.8 C 0 km/h
1289 28-02-2003 02:24:10 3.9 C 4.74 g/m*3 3.9 C 0 km/h
1290 28-02-2003 02:26:10 3.9 C 4.74 g/m*3 3.9 C 0 km/h
1291 28-02-2003 02:30:10 3.8 C 4.71 g/m*3 3.8 C 0 km/h
1292 28-02-2003 02:32:10 3.8 C 4.71 g/m*3 3.8 C 0 km/h
1293 28-02-2003 02:36:10 3.7 C 4.67 g/m*3 3.7 C 0 km/h
1294 28-02-2003 02:38:10 3.7 C 4.67 g/m*3 3.7 C 0 km/h
1295 28-02-2003 02:42:10 3.6 C 4.64 g/m*3 3.6 C 0 km/h
1296 28-02-2003 02:44:10 3.6 C 4.64 g/m*3 3.6 C 0 km/h
1297 28-02-2003 02:48:10 3.5 C 4.61 g/m*3 3.5 C 0 km/h
1298 28-02-2003 02:50:10 3.5 C 4.61 g/m*3 3.5 C 0 km/h
1299 28-02-2003 02:54:10 3.4 C 4.58 g/m*3 3.4 C 0 km/h
1300 28-02-2003 02:56:10 3.4 C 4.58 g/m*3 3.4 C 0 km/h
Sensor: Nr:Datum:Temp:Abs-Feuchte:Windchill:Wind:
Aussen-T/F 1301 28-02-2003 03:00:10 3.3 C 4.61 g/m*3 3.3 C 0 km/h
1302 28-02-2003 03:02:10 3.3 C 4.61 g/m*3 3.3 C 0 km/h
1303 28-02-2003 03:06:10 3.2 C 4.58 g/m*3 3.2 C 0 km/h
1304 28-02-2003 03:08:10 3.2 C 4.58 g/m*3 3.2 C 0 km/h
1305 28-02-2003 03:12:10 3.1 C 4.61 g/m*3 3.1 C 0 km/h
1306 28-02-2003 03:14:10 3.1 C 4.61 g/m*3 3.1 C 0 km/h
1307 28-02-2003 03:18:10 3.2 C 4.7 g/m*3 3.2 C 0 km/h
1308 28-02-2003 03:20:10 3.2 C 4.7 g/m*3 3.2 C 0 km/h
1309 28-02-2003 03:24:10 3.4 C 4.7 g/m*3 3.4 C 0 km/h
1310 28-02-2003 03:26:10 3.4 C 4.7 g/m*3 3.4 C 0 km/h
1311 28-02-2003 03:30:10 3.4 C 4.7 g/m*3 3.4 C 0 km/h
1312 28-02-2003 03:32:10 3.4 C 4.7 g/m*3 3.4 C 0 km/h
1313 28-02-2003 03:36:10 3.5 C 4.67 g/m*3 3.5 C 0 km/h
1314 28-02-2003 03:38:10 3.5 C 4.67 g/m*3 3.5 C 0 km/h
1315 28-02-2003 03:42:10 3.5 C 4.67 g/m*3 3.5 C 0 km/h
1316 28-02-2003 03:44:10 3.5 C 4.67 g/m*3 3.5 C 0 km/h
1317 28-02-2003 03:48:10 3.6 C 4.7 g/m*3 3.6 C 0 km/h
1318 28-02-2003 03:50:10 3.6 C 4.7 g/m*3 3.6 C 0 km/h
1319 28-02-2003 03:54:10 3.5 C 4.61 g/m*3 3.5 C 0 km/h
1320 28-02-2003 03:56:10 3.5 C 4.61 g/m*3 3.5 C 0 km/h
1321 28-02-2003 04:00:10 3.4 C 4.64 g/m*3 3.4 C 0 km/h
1322 28-02-2003 04:02:10 3.4 C 4.64 g/m*3 3.4 C 0 km/h
1323 28-02-2003 04:06:10 3.4 C 4.64 g/m*3 3.4 C 0 km/h
1324 28-02-2003 04:08:10 3.4 C 4.64 g/m*3 3.4 C 0 km/h
1325 28-02-2003 04:12:10 3.2 C 4.58 g/m*3 3.2 C 0 km/h
Sensor: Nr:Datum:Temp:Abs-Feuchte:Windchill:Wind:
Aussen-T/F 1326 28-02-2003 04:14:10 3.2 C 4.58 g/m*3 3.2 C 0 km/h
1327 28-02-2003 04:18:10 2.9 C 4.55 g/m*3 2.9 C 0 km/h
1328 28-02-2003 04:20:10 2.9 C 4.55 g/m*3 2.9 C 0 km/h
1329 28-02-2003 04:24:10 2.9 C 4.61 g/m*3 2.9 C 0 km/h
1330 28-02-2003 04:26:10 2.9 C 4.61 g/m*3 2.9 C 0 km/h
1331 28-02-2003 04:30:10 3 C 4.64 g/m*3 3 C 0 km/h
1332 28-02-2003 04:32:10 3 C 4.64 g/m*3 3 C 0 km/h
1333 28-02-2003 04:36:10 3.1 C 4.67 g/m*3 3.1 C 0 km/h
1334 28-02-2003 04:38:10 3.1 C 4.67 g/m*3 3.1 C 0 km/h
1335 28-02-2003 04:42:10 3.3 C 4.67 g/m*3 3.3 C 0 km/h
1336 28-02-2003 04:44:10 3.3 C 4.67 g/m*3 3.3 C 0 km/h
1337 28-02-2003 04:48:10 3.3 C 4.67 g/m*3 3.3 C 0 km/h
1338 28-02-2003 04:50:10 3.3 C 4.67 g/m*3 3.3 C 0 km/h
1339 28-02-2003 04:54:10 3.3 C 4.67 g/m*3 3.3 C 0 km/h
1340 28-02-2003 04:56:10 3.3 C 4.67 g/m*3 3.3 C 0 km/h
1341 28-02-2003 05:00:10 3.4 C 4.7 g/m*3 3.4 C 0 km/h
1342 28-02-2003 05:02:10 3.4 C 4.7 g/m*3 3.4 C 0 km/h
1343 28-02-2003 05:06:10 3.5 C 4.67 g/m*3 3.5 C 0 km/h
1344 28-02-2003 05:08:10 3.5 C 4.67 g/m*3 3.5 C 0 km/h
1345 28-02-2003 05:12:10 3.5 C 4.67 g/m*3 3.5 C 0 km/h
1346 28-02-2003 05:14:10 3.5 C 4.67 g/m*3 3.5 C 0 km/h
1347 28-02-2003 05:18:10 3.5 C 4.67 g/m*3 3.5 C 0 km/h
1348 28-02-2003 05:20:10 3.5 C 4.67 g/m*3 3.5 C 0 km/h
1349 28-02-2003 05:24:10 3.6 C 4.7 g/m*3 3.6 C 0 km/h
1350 28-02-2003 05:26:10 3.6 C 4.7 g/m*3 3.6 C 0 km/h
Sensor: Nr:Datum:Temp:Abs-Feuchte:Windchill:Wind:
Aussen-T/F 1351 28-02-2003 05:30:10 3.5 C 4.67 g/m*3 3.5 C 0 km/h
1352 28-02-2003 05:32:10 3.5 C 4.67 g/m*3 3.5 C 0 km/h
1353 28-02-2003 05:36:10 3.5 C 4.67 g/m*3 3.5 C 0 km/h
1354 28-02-2003 05:38:10 3.5 C 4.67 g/m*3 3.5 C 0 km/h
1355 28-02-2003 05:42:10 3.4 C 4.64 g/m*3 3.4 C 0 km/h
1356 28-02-2003 05:44:10 3.4 C 4.64 g/m*3 3.4 C 0 km/h
1357 28-02-2003 05:48:10 3.4 C 4.64 g/m*3 3.4 C 0 km/h
1358 28-02-2003 05:50:10 3.4 C 4.64 g/m*3 3.4 C 0 km/h
1359 28-02-2003 05:54:10 3.4 C 4.64 g/m*3 3.4 C 0 km/h
1360 28-02-2003 05:56:10 3.4 C 4.64 g/m*3 3.4 C 0 km/h
1361 28-02-2003 06:00:10 3.5 C 4.67 g/m*3 3.5 C 0 km/h
1362 28-02-2003 06:02:10 3.5 C 4.67 g/m*3 3.5 C 0 km/h
1363 28-02-2003 06:06:10 3.5 C 4.67 g/m*3 3.5 C 0 km/h
1364 28-02-2003 06:08:10 3.5 C 4.67 g/m*3 3.5 C 0 km/h
1365 28-02-2003 06:12:10 3.5 C 4.67 g/m*3 3.5 C 0 km/h
1366 28-02-2003 06:14:10 3.5 C 4.67 g/m*3 3.5 C 0 km/h
1367 28-02-2003 06:18:10 3.5 C 4.67 g/m*3 3.5 C 0 km/h
1368 28-02-2003 06:20:10 3.5 C 4.67 g/m*3 3.5 C 0 km/h
1369 28-02-2003 06:24:10 3.5 C 4.67 g/m*3 3.5 C 0 km/h
1370 28-02-2003 06:26:10 3.5 C 4.67 g/m*3 3.5 C 0 km/h
1371 28-02-2003 06:30:10 3.5 C 4.67 g/m*3 3.5 C 0 km/h
1372 28-02-2003 06:32:10 3.5 C 4.67 g/m*3 3.5 C 0 km/h
1373 28-02-2003 06:36:10 3.5 C 4.67 g/m*3 3.5 C 0 km/h
1374 28-02-2003 06:38:10 3.5 C 4.67 g/m*3 3.5 C 0 km/h
1375 28-02-2003 06:42:10 3.5 C 4.67 g/m*3 3.5 C 0 km/h
Sensor: Nr:Datum:Temp:Abs-Feuchte:Windchill:Wind:
Aussen-T/F 1376 28-02-2003 06:44:10 3.5 C 4.67 g/m*3 3.5 C 0 km/h
1377 28-02-2003 06:48:10 3.4 C 4.64 g/m*3 3.4 C 0 km/h
1378 28-02-2003 06:50:10 3.4 C 4.64 g/m*3 3.4 C 0 km/h
1379 28-02-2003 06:54:10 3.4 C 4.64 g/m*3 3.4 C 0 km/h
1380 28-02-2003 06:56:10 3.4 C 4.64 g/m*3 3.4 C 0 km/h
1381 28-02-2003 07:00:10 3.4 C 4.64 g/m*3 3.4 C 0 km/h
1382 28-02-2003 07:02:10 3.4 C 4.64 g/m*3 3.4 C 0 km/h
1383 28-02-2003 07:06:10 3.4 C 4.7 g/m*3 3.4 C 0 km/h
1384 28-02-2003 07:08:10 3.4 C 4.7 g/m*3 3.4 C 0 km/h
1385 28-02-2003 07:12:10 3.4 C 4.7 g/m*3 3.4 C 0 km/h
1386 28-02-2003 07:14:10 3.4 C 4.7 g/m*3 3.4 C 0 km/h
1387 28-02-2003 07:18:10 3.4 C 4.7 g/m*3 3.4 C 0 km/h
1388 28-02-2003 07:20:10 3.4 C 4.7 g/m*3 3.4 C 0 km/h
1389 28-02-2003 07:24:10 3.4 C 4.7 g/m*3 3.4 C 0 km/h
1390 28-02-2003 07:26:10 3.4 C 4.7 g/m*3 3.4 C 0 km/h
1391 28-02-2003 07:30:10 3.4 C 4.7 g/m*3 3.4 C 0 km/h
1392 28-02-2003 07:32:10 3.4 C 4.7 g/m*3 3.4 C 0 km/h
1393 28-02-2003 07:36:10 3.5 C 4.73 g/m*3 3.5 C 0 km/h
1394 28-02-2003 07:38:10 3.5 C 4.73 g/m*3 3.5 C 0 km/h
1395 28-02-2003 07:42:10 3.5 C 4.73 g/m*3 3.5 C 0 km/h
1396 28-02-2003 07:44:10 3.5 C 4.73 g/m*3 3.5 C 0 km/h
1397 28-02-2003 07:48:10 3.5 C 4.73 g/m*3 3.5 C 0 km/h
1398 28-02-2003 07:50:10 3.5 C 4.73 g/m*3 3.5 C 0 km/h
1399 28-02-2003 07:54:10 3.6 C 4.77 g/m*3 3.6 C 0 km/h
1400 28-02-2003 07:56:10 3.6 C 4.77 g/m*3 3.6 C 0 km/h
Sensor: Nr:Datum:Temp:Abs-Feuchte:Windchill:Wind:
Aussen-T/F 1401 28-02-2003 08:00:10 3.7 C 4.8 g/m*3 3.7 C 0 km/h
1402 28-02-2003 08:02:10 3.7 C 4.8 g/m*3 3.7 C 0 km/h
1403 28-02-2003 08:06:10 3.7 C 4.74 g/m*3 3.7 C 0 km/h
1404 28-02-2003 08:08:10 3.7 C 4.74 g/m*3 3.7 C 0 km/h
1405 28-02-2003 08:12:10 3.7 C 4.74 g/m*3 3.7 C 0 km/h
1406 28-02-2003 08:14:10 3.7 C 4.74 g/m*3 3.7 C 0 km/h
1407 28-02-2003 08:18:10 3.8 C 4.77 g/m*3 3.8 C 0 km/h
1408 28-02-2003 08:20:10 3.8 C 4.77 g/m*3 3.8 C 0 km/h
1409 28-02-2003 08:24:10 3.8 C 4.77 g/m*3 3.8 C 0 km/h
1410 28-02-2003 08:26:10 3.8 C 4.77 g/m*3 3.8 C 0 km/h
1411 28-02-2003 08:30:10 3.8 C 4.77 g/m*3 3.8 C 0 km/h
1412 28-02-2003 08:32:10 3.8 C 4.77 g/m*3 3.8 C 0 km/h
1413 28-02-2003 08:36:10 3.9 C 4.74 g/m*3 3.9 C 0 km/h
1414 28-02-2003 08:38:10 3.9 C 4.74 g/m*3 3.9 C 0 km/h
1415 28-02-2003 08:42:10 4 C 4.7 g/m*3 4 C 0 km/h
1416 28-02-2003 08:44:10 4 C 4.7 g/m*3 4 C 0 km/h
1417 28-02-2003 08:48:10 4.3 C 4.8 g/m*3 4.3 C 0 km/h
1418 28-02-2003 08:50:10 4.3 C 4.8 g/m*3 4.3 C 0 km/h
1419 28-02-2003 08:54:10 4.2 C 4.77 g/m*3 4.2 C 0 km/h
1420 28-02-2003 08:56:10 4.2 C 4.77 g/m*3 4.2 C 0 km/h
1421 28-02-2003 09:00:10 4.3 C 4.8 g/m*3 4.3 C 0 km/h
1422 28-02-2003 09:02:10 4.3 C 4.8 g/m*3 4.3 C 0 km/h
1423 28-02-2003 09:06:10 4.3 C 4.8 g/m*3 4.3 C 0 km/h
1424 28-02-2003 09:08:10 4.3 C 4.8 g/m*3 4.3 C 0 km/h
1425 28-02-2003 09:12:10 4.4 C 4.83 g/m*3 4.4 C 0 km/h
Sensor: Nr:Datum:Temp:Abs-Feuchte:Windchill:Wind:
Aussen-T/F 1426 28-02-2003 09:14:10 4.4 C 4.83 g/m*3 4.4 C 0 km/h
1427 28-02-2003 09:18:10 4.4 C 4.83 g/m*3 4.4 C 0 km/h
1428 28-02-2003 09:20:10 4.4 C 4.83 g/m*3 4.4 C 0 km/h
1429 28-02-2003 09:24:10 4.5 C 4.86 g/m*3 4.5 C 0 km/h
1430 28-02-2003 09:26:10 4.5 C 4.86 g/m*3 4.5 C 0 km/h
1431 28-02-2003 09:30:10 4.6 C 4.9 g/m*3 4.6 C 0 km/h
1432 28-02-2003 09:32:10 4.6 C 4.9 g/m*3 4.6 C 0 km/h
1433 28-02-2003 09:36:10 4.7 C 4.86 g/m*3 4.7 C 0 km/h
1434 28-02-2003 09:38:10 4.7 C 4.86 g/m*3 4.7 C 0 km/h
1435 28-02-2003 09:42:10 4.7 C 4.86 g/m*3 4.7 C 0 km/h
1436 28-02-2003 09:44:10 4.7 C 4.86 g/m*3 4.7 C 0 km/h
1437 28-02-2003 09:48:10 4.8 C 4.83 g/m*3 4.8 C 0 km/h
1438 28-02-2003 09:50:10 4.8 C 4.83 g/m*3 4.8 C 0 km/h
1439 28-02-2003 09:54:10 4.9 C 4.86 g/m*3 4.9 C 0 km/h
1440 28-02-2003 09:56:10 4.9 C 4.86 g/m*3 4.9 C 0 km/h
1441 28-02-2003 10:00:10 4.9 C 4.86 g/m*3 4.9 C 0 km/h
1442 28-02-2003 10:02:10 4.9 C 4.86 g/m*3 4.9 C 0 km/h
1443 28-02-2003 10:06:10 5.1 C 4.86 g/m*3 5.1 C 0 km/h
1444 28-02-2003 10:08:10 5.1 C 4.86 g/m*3 5.1 C 0 km/h
1445 28-02-2003 10:12:10 5.3 C 4.92 g/m*3 5.3 C 0 km/h
1446 28-02-2003 10:14:10 5.3 C 4.92 g/m*3 5.3 C 0 km/h
1447 28-02-2003 10:18:10 5.6 C 4.95 g/m*3 5.6 C 0 km/h
1448 28-02-2003 10:20:10 5.6 C 4.95 g/m*3 5.6 C 0 km/h
1449 28-02-2003 10:24:10 5.8 C 5.01 g/m*3 5.8 C 0 km/h
1450 28-02-2003 10:26:10 5.8 C 5.01 g/m*3 5.8 C 0 km/h
Sensor: Nr:Datum:Temp:Abs-Feuchte:Windchill:Wind:
Aussen-T/F 1451 28-02-2003 10:30:10 6 C 4.94 g/m*3 6 C 0 km/h
1452 28-02-2003 10:32:10 6 C 4.94 g/m*3 6 C 0 km/h
1453 28-02-2003 10:36:10 6.3 C 4.96 g/m*3 6.3 C 0 km/h
1454 28-02-2003 10:38:10 6.3 C 4.96 g/m*3 6.3 C 0 km/h
1455 28-02-2003 10:42:10 6.5 C 4.95 g/m*3 6.5 C 0 km/h
1456 28-02-2003 10:44:10 6.5 C 4.95 g/m*3 6.5 C 0 km/h
1457 28-02-2003 10:48:10 6.9 C 5.08 g/m*3 6.9 C 0 km/h
1458 28-02-2003 10:50:10 6.9 C 5.08 g/m*3 6.9 C 0 km/h
1459 28-02-2003 10:54:10 7.1 C 4.99 g/m*3 7.1 C 0 km/h
1460 28-02-2003 10:56:10 7.1 C 4.99 g/m*3 7.1 C 0 km/h
1461 28-02-2003 11:00:10 7.3 C 4.98 g/m*3 7.3 C 0 km/h
1462 28-02-2003 11:02:10 7.3 C 4.98 g/m*3 7.3 C 0 km/h
1463 28-02-2003 11:06:10 7.4 C 4.93 g/m*3 7.4 C 0 km/h
1464 28-02-2003 11:08:10 7.4 C 4.93 g/m*3 7.4 C 0 km/h
1465 28-02-2003 11:12:10 7.6 C 4.99 g/m*3 7.6 C 0 km/h
1466 28-02-2003 11:14:10 7.6 C 4.99 g/m*3 7.6 C 0 km/h
1467 28-02-2003 11:18:10 7.4 C 4.85 g/m*3 7.4 C 0 km/h
1468 28-02-2003 11:20:10 7.4 C 4.85 g/m*3 7.4 C 0 km/h
1469 28-02-2003 11:24:10 7.5 C 4.96 g/m*3 7.5 C 0 km/h
1470 28-02-2003 11:26:10 7.5 C 4.96 g/m*3 7.5 C 0 km/h
1471 28-02-2003 11:30:10 7.9 C 5.09 g/m*3 7.9 C 0 km/h
1472 28-02-2003 11:32:10 7.9 C 5.09 g/m*3 7.9 C 0 km/h
1473 28-02-2003 11:36:10 8 C 4.96 g/m*3 8 C 0 km/h
1474 28-02-2003 11:38:10 8 C 4.96 g/m*3 8 C 0 km/h
1475 28-02-2003 11:42:10 8.2 C 5.02 g/m*3 8.2 C 0 km/h
Sensor: Nr:Datum:Temp:Abs-Feuchte:Windchill:Wind:
Aussen-T/F 1476 28-02-2003 11:44:10 8.2 C 5.02 g/m*3 8.2 C 0 km/h
1477 28-02-2003 11:48:10 8.4 C 5.09 g/m*3 8.4 C 0 km/h
1478 28-02-2003 11:50:10 8.4 C 5.09 g/m*3 8.4 C 0 km/h
1479 28-02-2003 11:54:10 8.9 C 5.26 g/m*3 8.9 C 0 km/h
1480 28-02-2003 11:56:10 8.9 C 5.26 g/m*3 8.9 C 0 km/h
1481 28-02-2003 12:00:41 9.1 C 5.23 g/m*3 9.1 C 0 km/h
1482 28-02-2003 12:02:10 9.1 C 5.23 g/m*3 9.1 C 0 km/h
1483 28-02-2003 12:06:41 9.5 C 5.28 g/m*3 9.5 C 0 km/h
1484 28-02-2003 12:08:10 9.5 C 5.28 g/m*3 9.5 C 0 km/h
1485 28-02-2003 12:12:41 9.8 C 5.29 g/m*3 9.8 C 0 km/h
1486 28-02-2003 12:14:10 9.8 C 5.29 g/m*3 9.8 C 0 km/h
1487 28-02-2003 12:18:41 10.1 C 5.3 g/m*3 10.1 C 0 km/h
1488 28-02-2003 12:20:10 10.1 C 5.3 g/m*3 10.1 C 0 km/h
1489 28-02-2003 12:24:41 10.3 C 5.36 g/m*3 10.3 C 0 km/h
1490 28-02-2003 12:26:10 10.3 C 5.36 g/m*3 10.3 C 0 km/h
1491 28-02-2003 12:30:41 10.5 C 5.43 g/m*3 10.5 C 0 km/h
1492 28-02-2003 12:32:10 10.5 C 5.43 g/m*3 10.5 C 0 km/h
1493 28-02-2003 12:36:41 10.8 C 5.54 g/m*3 10.8 C 0 km/h
1494 28-02-2003 12:38:10 10.8 C 5.54 g/m*3 10.8 C 0 km/h
1495 28-02-2003 12:42:41 11 C 5.41 g/m*3 11 C 0 km/h
1496 28-02-2003 12:44:10 11 C 5.41 g/m*3 11 C 0 km/h
1497 28-02-2003 12:48:41 11.3 C 5.61 g/m*3 11.3 C 0 km/h
1498 28-02-2003 12:50:10 11.3 C 5.61 g/m*3 11.3 C 0 km/h
1499 28-02-2003 12:54:41 11.3 C 5.61 g/m*3 11.3 C 0 km/h
1500 28-02-2003 12:56:10 11.3 C 5.61 g/m*3 11.3 C 0 km/h
Sensor: Nr:Datum:Temp:Abs-Feuchte:Windchill:Wind:
Aussen-T/F 1501 28-02-2003 13:00:41 11.4 C 5.75 g/m*3 11.4 C 0 km/h
1502 28-02-2003 13:02:10 11.4 C 5.75 g/m*3 11.4 C 0 km/h
1503 28-02-2003 13:06:41 11.8 C 5.89 g/m*3 11.8 C 0 km/h
1504 28-02-2003 13:08:10 11.8 C 5.89 g/m*3 11.8 C 0 km/h
1505 28-02-2003 13:12:41 12 C 5.86 g/m*3 12 C 0 km/h
1506 28-02-2003 13:14:10 12 C 5.86 g/m*3 12 C 0 km/h
1507 28-02-2003 13:18:41 12 C 5.86 g/m*3 12 C 0 km/h
1508 28-02-2003 13:20:10 12 C 5.86 g/m*3 12 C 0 km/h
1509 28-02-2003 13:24:41 12.1 C 5.79 g/m*3 12.1 C 0 km/h
1510 28-02-2003 13:26:10 12.1 C 5.79 g/m*3 12.1 C 0 km/h
1511 28-02-2003 13:30:41 12.3 C 5.97 g/m*3 12.3 C 0 km/h
1512 28-02-2003 13:32:10 12.3 C 5.97 g/m*3 12.3 C 0 km/h
1513 28-02-2003 13:36:41 12.5 C 6.05 g/m*3 12.5 C 0 km/h
1514 28-02-2003 13:38:10 12.5 C 6.05 g/m*3 12.5 C 0 km/h
1515 28-02-2003 13:42:41 12.3 C 5.97 g/m*3 12.3 C 0 km/h
1516 28-02-2003 13:44:10 12.3 C 5.97 g/m*3 12.3 C 0 km/h
1517 28-02-2003 13:48:41 12.7 C 6.12 g/m*3 12.7 C 0 km/h
1518 28-02-2003 13:50:10 12.7 C 6.12 g/m*3 12.7 C 0 km/h
1519 28-02-2003 13:54:41 12.8 C 6.16 g/m*3 12.8 C 0 km/h
1520 28-02-2003 13:56:10 12.8 C 6.16 g/m*3 12.8 C 0 km/h
1521 28-02-2003 14:00:11 12.5 C 6.05 g/m*3 12.5 C 0 km/h
1522 28-02-2003 14:02:10 12.5 C 6.05 g/m*3 12.5 C 0 km/h
1523 28-02-2003 14:06:11 12.7 C 6.23 g/m*3 12.7 C 0 km/h
1524 28-02-2003 14:08:10 12.7 C 6.23 g/m*3 12.7 C 0 km/h
1525 28-02-2003 14:12:11 12.7 C 6.12 g/m*3 12.7 C 0 km/h
Sensor: Nr:Datum:Temp:Abs-Feuchte:Windchill:Wind:
Aussen-T/F 1526 28-02-2003 14:14:10 12.7 C 6.12 g/m*3 12.7 C 0 km/h
1527 28-02-2003 14:18:11 12.8 C 6.16 g/m*3 12.8 C 0 km/h
1528 28-02-2003 14:20:10 12.8 C 6.16 g/m*3 12.8 C 0 km/h
1529 28-02-2003 14:24:11 12.9 C 6.2 g/m*3 12.9 C 0 km/h
1530 28-02-2003 14:26:10 12.9 C 6.2 g/m*3 12.9 C 0 km/h
1531 28-02-2003 14:30:11 13 C 6.12 g/m*3 13 C 0 km/h
1532 28-02-2003 14:32:10 13 C 6.12 g/m*3 13 C 0 km/h
1533 28-02-2003 14:36:11 13.1 C 6.16 g/m*3 13.1 C 0 km/h
1534 28-02-2003 14:38:10 13.1 C 6.16 g/m*3 13.1 C 0 km/h
1535 28-02-2003 14:42:11 13.3 C 6.24 g/m*3 13.3 C 0 km/h
1536 28-02-2003 14:44:10 13.3 C 6.24 g/m*3 13.3 C 0 km/h
1537 28-02-2003 14:48:11 13.2 C 6.2 g/m*3 13.2 C 0 km/h
1538 28-02-2003 14:50:10 13.2 C 6.2 g/m*3 13.2 C 0 km/h
1539 28-02-2003 14:54:11 13.7 C 6.39 g/m*3 13.7 C 0 km/h
1540 28-02-2003 14:56:10 13.7 C 6.39 g/m*3 13.7 C 0 km/h
1541 28-02-2003 15:00:11 13.8 C 6.31 g/m*3 13.8 C 0 km/h
1542 28-02-2003 15:02:10 13.8 C 6.31 g/m*3 13.8 C 0 km/h
1543 28-02-2003 15:06:11 13.7 C 6.28 g/m*3 13.7 C 0 km/h
1544 28-02-2003 15:08:10 13.7 C 6.28 g/m*3 13.7 C 0 km/h
1545 28-02-2003 15:12:11 13.7 C 6.28 g/m*3 13.7 C 0 km/h
1546 28-02-2003 15:14:10 13.7 C 6.28 g/m*3 13.7 C 0 km/h
1547 28-02-2003 15:18:11 13.5 C 6.32 g/m*3 13.5 C 0 km/h
1548 28-02-2003 15:20:10 13.5 C 6.32 g/m*3 13.5 C 0 km/h
1549 28-02-2003 15:24:11 14 C 6.27 g/m*3 14 C 0 km/h
1550 28-02-2003 15:26:10 14 C 6.27 g/m*3 14 C 0 km/h
Sensor: Nr:Datum:Temp:Abs-Feuchte:Windchill:Wind:
Aussen-T/F 1551 28-02-2003 15:30:11 13.6 C 6.24 g/m*3 13.6 C 0 km/h
1552 28-02-2003 15:32:10 13.6 C 6.24 g/m*3 13.6 C 0 km/h
1553 28-02-2003 15:36:11 13.3 C 6.35 g/m*3 13.3 C 0 km/h
1554 28-02-2003 15:38:10 13.3 C 6.35 g/m*3 13.3 C 0 km/h
1555 28-02-2003 15:42:11 12.8 C 6.38 g/m*3 12.8 C 0 km/h
1556 28-02-2003 15:44:10 12.8 C 6.38 g/m*3 12.8 C 0 km/h
1557 28-02-2003 15:48:11 12.9 C 6.42 g/m*3 12.9 C 0 km/h
1558 28-02-2003 15:50:10 12.9 C 6.42 g/m*3 12.9 C 0 km/h
1559 28-02-2003 15:54:11 13.3 C 6.35 g/m*3 13.3 C 0 km/h
1560 28-02-2003 15:56:10 13.3 C 6.35 g/m*3 13.3 C 0 km/h
1561 28-02-2003 16:00:57 13.8 C 6.43 g/m*3 13.8 C 0 km/h
1562 28-02-2003 16:02:10 13.8 C 6.43 g/m*3 13.8 C 0 km/h
1563 28-02-2003 16:06:57 13.5 C 6.32 g/m*3 13.5 C 0 km/h
1564 28-02-2003 16:08:10 13.5 C 6.32 g/m*3 13.5 C 0 km/h
1565 28-02-2003 16:12:57 13.7 C 6.51 g/m*3 13.7 C 0 km/h
1566 28-02-2003 16:14:10 13.7 C 6.51 g/m*3 13.7 C 0 km/h
1567 28-02-2003 16:18:57 13.8 C 6.43 g/m*3 13.8 C 0 km/h
1568 28-02-2003 16:20:10 13.8 C 6.43 g/m*3 13.8 C 0 km/h
1569 28-02-2003 16:24:57 13.6 C 6.36 g/m*3 13.6 C 0 km/h
1570 28-02-2003 16:26:10 13.6 C 6.36 g/m*3 13.6 C 0 km/h
1571 28-02-2003 16:30:57 13.5 C 6.43 g/m*3 13.5 C 0 km/h
1572 28-02-2003 16:32:10 13.5 C 6.43 g/m*3 13.5 C 0 km/h
1573 28-02-2003 16:36:57 13.3 C 6.35 g/m*3 13.3 C 0 km/h
1574 28-02-2003 16:38:10 13.3 C 6.35 g/m*3 13.3 C 0 km/h
1575 28-02-2003 16:42:57 13.2 C 6.32 g/m*3 13.2 C 0 km/h
Sensor: Nr:Datum:Temp:Abs-Feuchte:Windchill:Wind:
Aussen-T/F 1576 28-02-2003 16:44:10 13.2 C 6.32 g/m*3 13.2 C 0 km/h
1577 28-02-2003 16:48:11 13 C 6.24 g/m*3 13 C 0 km/h
1578 28-02-2003 16:50:10 13 C 6.24 g/m*3 13 C 0 km/h
1579 28-02-2003 16:54:11 12.8 C 6.38 g/m*3 12.8 C 0 km/h
1580 28-02-2003 16:56:10 12.8 C 6.38 g/m*3 12.8 C 0 km/h
1581 28-02-2003 17:00:11 13 C 6.35 g/m*3 13 C 0 km/h
1582 28-02-2003 17:02:10 13 C 6.35 g/m*3 13 C 0 km/h
1583 28-02-2003 17:06:11 12.9 C 6.42 g/m*3 12.9 C 0 km/h
1584 28-02-2003 17:08:10 12.9 C 6.42 g/m*3 12.9 C 0 km/h
1585 28-02-2003 17:12:11 12.8 C 6.38 g/m*3 12.8 C 0 km/h
1586 28-02-2003 17:14:10 12.8 C 6.38 g/m*3 12.8 C 0 km/h
1587 28-02-2003 17:18:11 12.5 C 6.38 g/m*3 12.5 C 0 km/h
1588 28-02-2003 17:20:10 12.5 C 6.38 g/m*3 12.5 C 0 km/h
1589 28-02-2003 17:24:11 12.3 C 6.3 g/m*3 12.3 C 0 km/h
1590 28-02-2003 17:26:10 12.3 C 6.3 g/m*3 12.3 C 0 km/h
1591 28-02-2003 17:30:11 12.1 C 6.33 g/m*3 12.1 C 0 km/h
1592 28-02-2003 17:32:10 12.1 C 6.33 g/m*3 12.1 C 0 km/h
1593 28-02-2003 17:36:11 11.8 C 6.31 g/m*3 11.8 C 0 km/h
1594 28-02-2003 17:38:10 11.8 C 6.31 g/m*3 11.8 C 0 km/h
1595 28-02-2003 17:42:11 11.2 C 6.18 g/m*3 11.2 C 0 km/h
1596 28-02-2003 17:44:10 11.2 C 6.18 g/m*3 11.2 C 0 km/h
1597 28-02-2003 17:48:11 11.1 C 6.14 g/m*3 11.1 C 0 km/h
1598 28-02-2003 17:50:10 11.1 C 6.14 g/m*3 11.1 C 0 km/h
1599 28-02-2003 17:54:11 10.7 C 6.19 g/m*3 10.7 C 0 km/h
1600 28-02-2003 17:56:10 10.7 C 6.19 g/m*3 10.7 C 0 km/h
Sensor: Nr:Datum:Temp:Abs-Feuchte:Windchill:Wind:
Aussen-T/F 1601 28-02-2003 18:00:11 10.6 C 6.15 g/m*3 10.6 C 0 km/h
1602 28-02-2003 18:02:10 10.6 C 6.15 g/m*3 10.6 C 0 km/h
1603 28-02-2003 18:06:11 10.5 C 6.11 g/m*3 10.5 C 0 km/h
1604 28-02-2003 18:08:10 10.5 C 6.11 g/m*3 10.5 C 0 km/h
1605 28-02-2003 18:12:11 10.4 C 6.17 g/m*3 10.4 C 0 km/h
1606 28-02-2003 18:14:10 10.4 C 6.17 g/m*3 10.4 C 0 km/h
1607 28-02-2003 18:18:11 10.3 C 6.13 g/m*3 10.3 C 0 km/h
1608 28-02-2003 18:20:10 10.3 C 6.13 g/m*3 10.3 C 0 km/h
1609 28-02-2003 18:24:11 10.2 C 6 g/m*3 10.2 C 0 km/h
1610 28-02-2003 18:26:10 10.2 C 6 g/m*3 10.2 C 0 km/h
1611 28-02-2003 18:30:11 10 C 6.01 g/m*3 10 C 0 km/h
1612 28-02-2003 18:32:10 10 C 6.01 g/m*3 10 C 0 km/h
1613 28-02-2003 18:36:11 10 C 6.01 g/m*3 10 C 0 km/h
1614 28-02-2003 18:38:10 10 C 6.01 g/m*3 10 C 0 km/h
1615 28-02-2003 18:42:11 10 C 6.01 g/m*3 10 C 0 km/h
1616 28-02-2003 18:44:10 10 C 6.01 g/m*3 10 C 0 km/h
1617 28-02-2003 18:48:11 9.9 C 6.07 g/m*3 9.9 C 0 km/h
1618 28-02-2003 18:50:10 9.9 C 6.07 g/m*3 9.9 C 0 km/h
1619 28-02-2003 18:54:11 9.9 C 6.16 g/m*3 9.9 C 0 km/h
1620 28-02-2003 18:56:10 9.9 C 6.16 g/m*3 9.9 C 0 km/h
1621 28-02-2003 19:00:11 9.9 C 6.16 g/m*3 9.9 C 0 km/h
1622 28-02-2003 19:02:10 9.9 C 6.16 g/m*3 9.9 C 0 km/h
1623 28-02-2003 19:06:11 9.8 C 6.03 g/m*3 9.8 C 0 km/h
1624 28-02-2003 19:08:10 9.8 C 6.03 g/m*3 9.8 C 0 km/h
1625 28-02-2003 19:12:11 9.6 C 6.05 g/m*3 9.6 C 0 km/h
Sensor: Nr:Datum:Temp:Abs-Feuchte:Windchill:Wind:
Aussen-T/F 1626 28-02-2003 19:14:10 9.6 C 6.05 g/m*3 9.6 C 0 km/h
1627 28-02-2003 19:24:11 9.1 C 5.86 g/m*3 9.1 C 0 km/h
1628 28-02-2003 19:26:10 9.1 C 5.86 g/m*3 9.1 C 0 km/h
1629 28-02-2003 19:30:11 8.8 C 5.92 g/m*3 8.8 C 0 km/h
1630 28-02-2003 19:32:10 8.8 C 5.92 g/m*3 8.8 C 0 km/h
1631 28-02-2003 19:36:11 8.7 C 5.97 g/m*3 8.7 C 0 km/h
1632 28-02-2003 19:38:10 8.7 C 5.97 g/m*3 8.7 C 0 km/h
1633 28-02-2003 19:42:11 8.5 C 5.89 g/m*3 8.5 C 0 km/h
1634 28-02-2003 19:44:10 8.5 C 5.89 g/m*3 8.5 C 0 km/h
1635 28-02-2003 19:48:11 8.2 C 5.86 g/m*3 8.2 C 0 km/h
1636 28-02-2003 19:50:10 8.2 C 5.86 g/m*3 8.2 C 0 km/h
1637 28-02-2003 19:54:11 8 C 5.79 g/m*3 8 C 0 km/h
1638 28-02-2003 19:56:10 8 C 5.79 g/m*3 8 C 0 km/h
1639 28-02-2003 20:01:10 7.9 C 5.91 g/m*3 7.9 C 0 km/h
1640 28-02-2003 20:02:10 7.9 C 5.91 g/m*3 7.9 C 0 km/h
1641 28-02-2003 20:07:10 8 C 5.87 g/m*3 8 C 0 km/h
1642 28-02-2003 20:08:10 8 C 5.87 g/m*3 8 C 0 km/h
1643 28-02-2003 20:13:10 7.8 C 5.88 g/m*3 7.8 C 0 km/h
1644 28-02-2003 20:14:10 7.8 C 5.88 g/m*3 7.8 C 0 km/h
1645 28-02-2003 20:19:10 7.7 C 5.84 g/m*3 7.7 C 0 km/h
1646 28-02-2003 20:20:10 7.7 C 5.84 g/m*3 7.7 C 0 km/h
1647 28-02-2003 20:25:10 7.5 C 5.84 g/m*3 7.5 C 0 km/h
1648 28-02-2003 20:26:10 7.5 C 5.84 g/m*3 7.5 C 0 km/h
1649 28-02-2003 20:31:10 7.3 C 5.77 g/m*3 7.3 C 0 km/h
1650 28-02-2003 20:32:10 7.3 C 5.77 g/m*3 7.3 C 0 km/h
Sensor: Nr:Datum:Temp:Abs-Feuchte:Windchill:Wind:
Aussen-T/F 1651 28-02-2003 20:37:10 7.2 C 5.73 g/m*3 7.2 C 0 km/h
1652 28-02-2003 20:38:10 7.2 C 5.73 g/m*3 7.2 C 0 km/h
1653 28-02-2003 20:43:10 7.1 C 5.77 g/m*3 7.1 C 0 km/h
1654 28-02-2003 20:44:10 7.1 C 5.77 g/m*3 7.1 C 0 km/h
1655 28-02-2003 20:49:10 7 C 5.73 g/m*3 7 C 0 km/h
1656 28-02-2003 20:50:10 7 C 5.73 g/m*3 7 C 0 km/h
1657 28-02-2003 20:55:10 6.9 C 5.77 g/m*3 6.9 C 0 km/h
1658 28-02-2003 20:56:10 6.9 C 5.77 g/m*3 6.9 C 0 km/h
1659 28-02-2003 21:01:10 6.8 C 5.74 g/m*3 6.8 C 0 km/h
1660 28-02-2003 21:02:10 6.8 C 5.74 g/m*3 6.8 C 0 km/h
1661 28-02-2003 21:07:10 6.7 C 5.77 g/m*3 6.7 C 0 km/h
1662 28-02-2003 21:08:10 6.7 C 5.77 g/m*3 6.7 C 0 km/h
1663 28-02-2003 21:13:10 6.6 C 5.74 g/m*3 6.6 C 0 km/h
1664 28-02-2003 21:14:10 6.6 C 5.74 g/m*3 6.6 C 0 km/h
1665 28-02-2003 21:19:10 6.5 C 5.77 g/m*3 6.5 C 0 km/h
1666 28-02-2003 21:20:10 6.5 C 5.77 g/m*3 6.5 C 0 km/h
1667 28-02-2003 21:25:10 6.4 C 5.74 g/m*3 6.4 C 0 km/h
1668 28-02-2003 21:26:10 6.4 C 5.74 g/m*3 6.4 C 0 km/h
1669 28-02-2003 21:31:10 6.2 C 5.66 g/m*3 6.2 C 0 km/h
1670 28-02-2003 21:32:10 6.2 C 5.66 g/m*3 6.2 C 0 km/h
1671 28-02-2003 21:37:10 6 C 5.52 g/m*3 6 C 0 km/h
1672 28-02-2003 21:38:10 6 C 5.52 g/m*3 6 C 0 km/h
1673 28-02-2003 21:43:10 5.8 C 5.59 g/m*3 5.8 C 0 km/h
1674 28-02-2003 21:44:10 5.8 C 5.59 g/m*3 5.8 C 0 km/h
1675 28-02-2003 21:49:10 5.7 C 5.62 g/m*3 5.7 C 0 km/h
Sensor: Nr:Datum:Temp:Abs-Feuchte:Windchill:Wind:
Aussen-T/F 1676 28-02-2003 21:50:10 5.7 C 5.62 g/m*3 5.7 C 0 km/h
1677 28-02-2003 21:55:10 5.6 C 5.59 g/m*3 5.6 C 0 km/h
1678 28-02-2003 21:56:10 5.6 C 5.59 g/m*3 5.6 C 0 km/h
1679 28-02-2003 22:01:10 5.6 C 5.66 g/m*3 5.6 C 0 km/h
1680 28-02-2003 22:02:10 5.6 C 5.66 g/m*3 5.6 C 0 km/h
1681 28-02-2003 22:07:10 5.5 C 5.62 g/m*3 5.5 C 0 km/h
1682 28-02-2003 22:08:10 5.5 C 5.62 g/m*3 5.5 C 0 km/h
1683 28-02-2003 22:13:10 5.4 C 5.65 g/m*3 5.4 C 0 km/h
1684 28-02-2003 22:14:10 5.4 C 5.65 g/m*3 5.4 C 0 km/h
1685 28-02-2003 22:19:10 5.4 C 5.65 g/m*3 5.4 C 0 km/h
1686 28-02-2003 22:20:10 5.4 C 5.65 g/m*3 5.4 C 0 km/h
1687 28-02-2003 22:25:10 5.3 C 5.61 g/m*3 5.3 C 0 km/h
1688 28-02-2003 22:26:10 5.3 C 5.61 g/m*3 5.3 C 0 km/h
1689 28-02-2003 22:31:10 5.4 C 5.72 g/m*3 5.4 C 0 km/h
1690 28-02-2003 22:32:10 5.4 C 5.72 g/m*3 5.4 C 0 km/h
1691 28-02-2003 22:37:10 5.4 C 5.72 g/m*3 5.4 C 0 km/h
1692 28-02-2003 22:38:10 5.4 C 5.72 g/m*3 5.4 C 0 km/h
1693 28-02-2003 22:43:10 5.4 C 5.72 g/m*3 5.4 C 0 km/h
1694 28-02-2003 22:44:10 5.4 C 5.72 g/m*3 5.4 C 0 km/h
1695 28-02-2003 22:49:10 5.5 C 5.76 g/m*3 5.5 C 0 km/h
1696 28-02-2003 22:50:10 5.5 C 5.76 g/m*3 5.5 C 0 km/h
1697 28-02-2003 22:55:10 5.4 C 5.65 g/m*3 5.4 C 0 km/h
1698 28-02-2003 22:56:10 5.4 C 5.65 g/m*3 5.4 C 0 km/h
1699 28-02-2003 23:01:10 5.4 C 5.65 g/m*3 5.4 C 0 km/h
1700 28-02-2003 23:02:10 5.4 C 5.65 g/m*3 5.4 C 0 km/h
Sensor: Nr:Datum:Temp:Abs-Feuchte:Windchill:Wind:
Aussen-T/F 1701 28-02-2003 23:07:10 5.4 C 5.58 g/m*3 5.4 C 0 km/h
1702 28-02-2003 23:08:10 5.4 C 5.58 g/m*3 5.4 C 0 km/h
1703 28-02-2003 23:13:10 5.2 C 5.51 g/m*3 5.2 C 0 km/h
1704 28-02-2003 23:14:10 5.2 C 5.51 g/m*3 5.2 C 0 km/h
1705 28-02-2003 23:19:10 5.2 C 5.65 g/m*3 5.2 C 0 km/h
1706 28-02-2003 23:20:10 5.2 C 5.65 g/m*3 5.2 C 0 km/h
1707 28-02-2003 23:25:10 5.3 C 5.68 g/m*3 5.3 C 0 km/h
1708 28-02-2003 23:26:10 5.3 C 5.68 g/m*3 5.3 C 0 km/h
1709 28-02-2003 23:31:10 5.3 C 5.68 g/m*3 5.3 C 0 km/h
1710 28-02-2003 23:32:10 5.3 C 5.68 g/m*3 5.3 C 0 km/h
1711 28-02-2003 23:37:10 5.3 C 5.68 g/m*3 5.3 C 0 km/h
1712 28-02-2003 23:38:10 5.3 C 5.68 g/m*3 5.3 C 0 km/h
1713 28-02-2003 23:43:10 5.4 C 5.72 g/m*3 5.4 C 0 km/h
1714 28-02-2003 23:44:10 5.4 C 5.72 g/m*3 5.4 C 0 km/h
1715 28-02-2003 23:49:10 5.4 C 5.72 g/m*3 5.4 C 0 km/h
1716 28-02-2003 23:50:10 5.4 C 5.72 g/m*3 5.4 C 0 km/h
1717 28-02-2003 23:55:10 5.4 C 5.72 g/m*3 5.4 C 0 km/h
1718 28-02-2003 23:56:10 5.4 C 5.72 g/m*3 5.4 C 0 km/h
1719 01-03-2003 00:01:10 5.2 C 5.58 g/m*3 5.2 C 0 km/h
1720 01-03-2003 00:02:10 5.2 C 5.58 g/m*3 5.2 C 0 km/h
1721 01-03-2003 00:07:10 5.2 C 5.65 g/m*3 5.2 C 0 km/h
1722 01-03-2003 00:08:10 5.2 C 5.65 g/m*3 5.2 C 0 km/h
1723 01-03-2003 00:13:10 5.1 C 5.61 g/m*3 5.1 C 0 km/h
1724 01-03-2003 00:14:10 5.1 C 5.61 g/m*3 5.1 C 0 km/h
1725 01-03-2003 00:19:10 4.7 C 5.46 g/m*3 4.7 C 0 km/h
Sensor: Nr:Datum:Temp:Abs-Feuchte:Windchill:Wind:
Aussen-T/F 1726 01-03-2003 00:20:10 4.7 C 5.46 g/m*3 4.7 C 0 km/h
1727 01-03-2003 00:25:10 4.5 C 5.39 g/m*3 4.5 C 0 km/h
1728 01-03-2003 00:26:10 4.5 C 5.39 g/m*3 4.5 C 0 km/h
1729 01-03-2003 00:31:10 4.5 C 5.46 g/m*3 4.5 C 0 km/h
1730 01-03-2003 00:32:10 4.5 C 5.46 g/m*3 4.5 C 0 km/h
1731 01-03-2003 00:37:10 4.4 C 5.48 g/m*3 4.4 C 0 km/h
1732 01-03-2003 00:38:10 4.4 C 5.48 g/m*3 4.4 C 0 km/h
1733 01-03-2003 00:43:10 4.5 C 5.59 g/m*3 4.5 C 0 km/h
1734 01-03-2003 00:44:10 4.5 C 5.59 g/m*3 4.5 C 0 km/h
1735 01-03-2003 00:49:10 4.5 C 5.59 g/m*3 4.5 C 0 km/h
1736 01-03-2003 00:50:10 4.5 C 5.59 g/m*3 4.5 C 0 km/h
1737 01-03-2003 00:55:10 4.5 C 5.52 g/m*3 4.5 C 0 km/h
1738 01-03-2003 00:56:10 4.5 C 5.52 g/m*3 4.5 C 0 km/h
1739 01-03-2003 01:01:10 4.4 C 5.42 g/m*3 4.4 C 0 km/h
1740 01-03-2003 01:02:10 4.4 C 5.42 g/m*3 4.4 C 0 km/h
1741 01-03-2003 01:07:10 4.3 C 5.38 g/m*3 4.3 C 0 km/h
1742 01-03-2003 01:08:10 4.3 C 5.38 g/m*3 4.3 C 0 km/h
1743 01-03-2003 01:13:10 4.2 C 5.35 g/m*3 4.2 C 0 km/h
1744 01-03-2003 01:14:10 4.2 C 5.35 g/m*3 4.2 C 0 km/h
1745 01-03-2003 01:19:10 4.2 C 5.35 g/m*3 4.2 C 0 km/h
1746 01-03-2003 01:20:10 4.2 C 5.35 g/m*3 4.2 C 0 km/h
1747 01-03-2003 01:25:10 4.3 C 5.38 g/m*3 4.3 C 0 km/h
1748 01-03-2003 01:26:10 4.3 C 5.38 g/m*3 4.3 C 0 km/h
1749 01-03-2003 01:31:10 4.3 C 5.38 g/m*3 4.3 C 0 km/h
1750 01-03-2003 01:32:10 4.3 C 5.38 g/m*3 4.3 C 0 km/h
Sensor: Nr:Datum:Temp:Abs-Feuchte:Windchill:Wind:
Aussen-T/F 1751 01-03-2003 01:37:10 4.2 C 5.35 g/m*3 4.2 C 0 km/h
1752 01-03-2003 01:38:10 4.2 C 5.35 g/m*3 4.2 C 0 km/h
1753 01-03-2003 01:43:10 4.2 C 5.35 g/m*3 4.2 C 0 km/h
1754 01-03-2003 01:44:10 4.2 C 5.35 g/m*3 4.2 C 0 km/h
1755 01-03-2003 01:49:10 4.3 C 5.38 g/m*3 4.3 C 0 km/h
1756 01-03-2003 01:50:10 4.3 C 5.38 g/m*3 4.3 C 0 km/h
1757 01-03-2003 01:55:10 4.3 C 5.38 g/m*3 4.3 C 0 km/h
1758 01-03-2003 01:56:10 4.3 C 5.38 g/m*3 4.3 C 0 km/h
1759 01-03-2003 02:01:10 4.3 C 5.38 g/m*3 4.3 C 0 km/h
1760 01-03-2003 02:02:10 4.3 C 5.38 g/m*3 4.3 C 0 km/h
1761 01-03-2003 02:07:10 4.4 C 5.42 g/m*3 4.4 C 0 km/h
1762 01-03-2003 02:08:10 4.4 C 5.42 g/m*3 4.4 C 0 km/h
1763 01-03-2003 02:13:10 4.4 C 5.42 g/m*3 4.4 C 0 km/h
1764 01-03-2003 02:14:10 4.4 C 5.42 g/m*3 4.4 C 0 km/h
1765 01-03-2003 02:19:10 4.5 C 5.46 g/m*3 4.5 C 0 km/h
1766 01-03-2003 02:20:10 4.5 C 5.46 g/m*3 4.5 C 0 km/h
1767 01-03-2003 02:25:10 4.5 C 5.39 g/m*3 4.5 C 0 km/h
1768 01-03-2003 02:26:10 4.5 C 5.39 g/m*3 4.5 C 0 km/h
1769 01-03-2003 02:31:10 4.6 C 5.49 g/m*3 4.6 C 0 km/h
1770 01-03-2003 02:32:10 4.6 C 5.49 g/m*3 4.6 C 0 km/h
1771 01-03-2003 02:37:10 4.7 C 5.46 g/m*3 4.7 C 0 km/h
1772 01-03-2003 02:38:10 4.7 C 5.46 g/m*3 4.7 C 0 km/h
1773 01-03-2003 02:43:10 4.7 C 5.46 g/m*3 4.7 C 0 km/h
1774 01-03-2003 02:44:10 4.7 C 5.46 g/m*3 4.7 C 0 km/h
1775 01-03-2003 02:49:10 4.6 C 5.49 g/m*3 4.6 C 0 km/h
Sensor: Nr:Datum:Temp:Abs-Feuchte:Windchill:Wind:
Aussen-T/F 1776 01-03-2003 02:50:10 4.6 C 5.49 g/m*3 4.6 C 0 km/h
1777 01-03-2003 02:50:37 4.6 C 5.49 g/m*3 4.6 C 0 km/h
1778 01-03-2003 02:55:10 4.7 C 5.53 g/m*3 4.7 C 0 km/h
1779 01-03-2003 02:56:37 4.7 C 5.53 g/m*3 4.7 C 0 km/h
1780 01-03-2003 03:01:10 4.6 C 5.56 g/m*3 4.6 C 0 km/h
1781 01-03-2003 03:02:37 4.6 C 5.56 g/m*3 4.6 C 0 km/h
1782 01-03-2003 03:07:10 4.5 C 5.59 g/m*3 4.5 C 0 km/h
1783 01-03-2003 03:08:37 4.5 C 5.59 g/m*3 4.5 C 0 km/h
1784 01-03-2003 03:13:10 4.4 C 5.62 g/m*3 4.4 C 0 km/h
1785 01-03-2003 03:14:37 4.4 C 5.62 g/m*3 4.4 C 0 km/h
1786 01-03-2003 03:19:10 4.3 C 5.58 g/m*3 4.3 C 0 km/h
1787 01-03-2003 03:20:37 4.3 C 5.58 g/m*3 4.3 C 0 km/h
1788 01-03-2003 03:25:10 4.3 C 5.64 g/m*3 4.3 C 0 km/h
1789 01-03-2003 03:26:37 4.3 C 5.64 g/m*3 4.3 C 0 km/h
1790 01-03-2003 03:31:10 4.3 C 5.71 g/m*3 4.3 C 0 km/h
1791 01-03-2003 03:32:37 4.3 C 5.71 g/m*3 4.3 C 0 km/h
1792 01-03-2003 03:37:10 4.4 C 5.75 g/m*3 4.4 C 0 km/h
1793 01-03-2003 03:38:37 4.4 C 5.75 g/m*3 4.4 C 0 km/h
1794 01-03-2003 03:43:10 4.4 C 5.81 g/m*3 4.4 C 0 km/h
1795 01-03-2003 03:44:37 4.4 C 5.81 g/m*3 4.4 C 0 km/h
1796 01-03-2003 03:49:10 4.5 C 5.85 g/m*3 4.5 C 0 km/h
1797 01-03-2003 03:50:37 4.5 C 5.85 g/m*3 4.5 C 0 km/h
1798 01-03-2003 03:55:10 4.4 C 5.81 g/m*3 4.4 C 0 km/h
1799 01-03-2003 03:56:37 4.4 C 5.81 g/m*3 4.4 C 0 km/h
1800 01-03-2003 04:01:10 4.4 C 5.88 g/m*3 4.4 C 0 km/h
Sensor: Nr:Datum:Temp:Abs-Feuchte:Windchill:Wind:
Aussen-T/F 1801 01-03-2003 04:02:37 4.4 C 5.88 g/m*3 4.4 C 0 km/h
1802 01-03-2003 04:07:10 4.3 C 5.84 g/m*3 4.3 C 0 km/h
1803 01-03-2003 04:08:37 4.3 C 5.84 g/m*3 4.3 C 0 km/h
1804 01-03-2003 04:13:10 4.3 C 5.84 g/m*3 4.3 C 0 km/h
1805 01-03-2003 04:14:37 4.3 C 5.84 g/m*3 4.3 C 0 km/h
1806 01-03-2003 04:19:10 4.4 C 5.94 g/m*3 4.4 C 0 km/h
1807 01-03-2003 04:20:37 4.4 C 5.94 g/m*3 4.4 C 0 km/h
1808 01-03-2003 04:25:10 4.4 C 5.94 g/m*3 4.4 C 0 km/h
1809 01-03-2003 04:26:37 4.4 C 5.94 g/m*3 4.4 C 0 km/h
1810 01-03-2003 04:31:10 4.4 C 5.94 g/m*3 4.4 C 0 km/h
1811 01-03-2003 04:32:37 4.4 C 5.94 g/m*3 4.4 C 0 km/h
1812 01-03-2003 04:37:10 4.6 C 6.02 g/m*3 4.6 C 0 km/h
1813 01-03-2003 04:38:37 4.6 C 6.02 g/m*3 4.6 C 0 km/h
1814 01-03-2003 04:43:10 4.6 C 6.09 g/m*3 4.6 C 0 km/h
1815 01-03-2003 04:44:37 4.6 C 6.09 g/m*3 4.6 C 0 km/h
1816 01-03-2003 04:49:10 4.7 C 6.13 g/m*3 4.7 C 0 km/h
1817 01-03-2003 04:50:37 4.7 C 6.13 g/m*3 4.7 C 0 km/h
1818 01-03-2003 04:55:10 4.7 C 6.13 g/m*3 4.7 C 0 km/h
1819 01-03-2003 04:56:37 4.7 C 6.13 g/m*3 4.7 C 0 km/h
1820 01-03-2003 05:01:10 4.6 C 6.09 g/m*3 4.6 C 0 km/h
1821 01-03-2003 05:02:37 4.6 C 6.09 g/m*3 4.6 C 0 km/h
1822 01-03-2003 05:07:10 4.7 C 6.13 g/m*3 4.7 C 0 km/h
1823 01-03-2003 05:08:37 4.7 C 6.13 g/m*3 4.7 C 0 km/h
1824 01-03-2003 05:13:10 4.6 C 6.09 g/m*3 4.6 C 0 km/h
1825 01-03-2003 05:14:37 4.6 C 6.09 g/m*3 4.6 C 0 km/h
Sensor: Nr:Datum:Temp:Abs-Feuchte:Windchill:Wind:
Aussen-T/F 1826 01-03-2003 05:19:10 4.7 C 6.13 g/m*3 4.7 C 0 km/h
1827 01-03-2003 05:20:37 4.7 C 6.13 g/m*3 4.7 C 0 km/h
1828 01-03-2003 05:25:10 4.5 C 6.05 g/m*3 4.5 C 0 km/h
1829 01-03-2003 05:26:37 4.5 C 6.05 g/m*3 4.5 C 0 km/h
1830 01-03-2003 05:31:10 4.4 C 6.01 g/m*3 4.4 C 0 km/h
1831 01-03-2003 05:32:37 4.4 C 6.01 g/m*3 4.4 C 0 km/h
1832 01-03-2003 05:37:10 4.4 C 6.01 g/m*3 4.4 C 0 km/h
1833 01-03-2003 05:38:37 4.4 C 6.01 g/m*3 4.4 C 0 km/h
1834 01-03-2003 05:43:10 4.3 C 5.97 g/m*3 4.3 C 0 km/h
1835 01-03-2003 05:44:37 4.3 C 5.97 g/m*3 4.3 C 0 km/h
1836 01-03-2003 05:49:10 4.3 C 5.97 g/m*3 4.3 C 0 km/h
1837 01-03-2003 05:50:37 4.3 C 5.97 g/m*3 4.3 C 0 km/h
1838 01-03-2003 05:55:10 4.3 C 5.97 g/m*3 4.3 C 0 km/h
1839 01-03-2003 05:56:37 4.3 C 5.97 g/m*3 4.3 C 0 km/h
1840 01-03-2003 06:01:10 4.5 C 6.05 g/m*3 4.5 C 0 km/h
1841 01-03-2003 06:02:37 4.5 C 6.05 g/m*3 4.5 C 0 km/h
1842 01-03-2003 06:07:10 4.5 C 6.05 g/m*3 4.5 C 0 km/h
1843 01-03-2003 06:08:37 4.5 C 6.05 g/m*3 4.5 C 0 km/h
1844 01-03-2003 06:13:10 4.8 C 6.24 g/m*3 4.8 C 0 km/h
1845 01-03-2003 06:14:37 4.8 C 6.24 g/m*3 4.8 C 0 km/h
1846 01-03-2003 06:19:10 5 C 6.25 g/m*3 5 C 0 km/h
1847 01-03-2003 06:20:37 5 C 6.25 g/m*3 5 C 0 km/h
1848 01-03-2003 06:25:10 4.9 C 6.28 g/m*3 4.9 C 0 km/h
1849 01-03-2003 06:26:37 4.9 C 6.28 g/m*3 4.9 C 0 km/h
1850 01-03-2003 06:31:10 5.1 C 6.29 g/m*3 5.1 C 0 km/h
Sensor: Nr:Datum:Temp:Abs-Feuchte:Windchill:Wind:
Aussen-T/F 1851 01-03-2003 06:32:37 5.1 C 6.29 g/m*3 5.1 C 0 km/h
1852 01-03-2003 06:37:10 5.2 C 6.33 g/m*3 5.2 C 0 km/h
1853 01-03-2003 06:38:37 5.2 C 6.33 g/m*3 5.2 C 0 km/h
1854 01-03-2003 06:43:10 5.4 C 6.42 g/m*3 5.4 C 0 km/h
1855 01-03-2003 06:44:37 5.4 C 6.42 g/m*3 5.4 C 0 km/h
1856 01-03-2003 06:49:10 5.7 C 6.62 g/m*3 5.7 C 0 km/h
1857 01-03-2003 06:50:37 5.7 C 6.62 g/m*3 5.7 C 0 km/h
1858 01-03-2003 06:55:10 6 C 6.75 g/m*3 6 C 0 km/h
1859 01-03-2003 06:56:37 6 C 6.75 g/m*3 6 C 0 km/h
1860 01-03-2003 07:01:10 6.3 C 6.88 g/m*3 6.3 C 0 km/h
1861 01-03-2003 07:02:37 6.3 C 6.88 g/m*3 6.3 C 0 km/h
1862 01-03-2003 07:07:10 6.5 C 6.9 g/m*3 6.5 C 0 km/h
1863 01-03-2003 07:08:37 6.5 C 6.9 g/m*3 6.5 C 0 km/h
1864 01-03-2003 07:13:10 6.7 C 6.91 g/m*3 6.7 C 0 km/h
1865 01-03-2003 07:14:37 6.7 C 6.91 g/m*3 6.7 C 0 km/h
1866 01-03-2003 07:19:10 6.8 C 6.96 g/m*3 6.8 C 0 km/h
1867 01-03-2003 07:20:37 6.8 C 6.96 g/m*3 6.8 C 0 km/h
1868 01-03-2003 07:25:10 7 C 6.97 g/m*3 7 C 0 km/h
1869 01-03-2003 07:26:37 7 C 6.97 g/m*3 7 C 0 km/h
1870 01-03-2003 07:31:10 7.3 C 7.03 g/m*3 7.3 C 0 km/h
1871 01-03-2003 07:32:37 7.3 C 7.03 g/m*3 7.3 C 0 km/h
1872 01-03-2003 07:37:10 7.6 C 7.09 g/m*3 7.6 C 0 km/h
1873 01-03-2003 07:38:37 7.6 C 7.09 g/m*3 7.6 C 0 km/h
1874 01-03-2003 07:43:10 7.7 C 7.05 g/m*3 7.7 C 0 km/h
1875 01-03-2003 07:44:37 7.7 C 7.05 g/m*3 7.7 C 0 km/h
Sensor: Nr:Datum:Temp:Abs-Feuchte:Windchill:Wind:
Aussen-T/F 1876 01-03-2003 07:49:10 7.8 C 7.02 g/m*3 7.8 C 0 km/h
1877 01-03-2003 07:50:37 7.8 C 7.02 g/m*3 7.8 C 0 km/h
1878 01-03-2003 07:55:10 7.9 C 6.98 g/m*3 7.9 C 0 km/h
1879 01-03-2003 07:56:37 7.9 C 6.98 g/m*3 7.9 C 0 km/h
1880 01-03-2003 08:01:10 8 C 6.94 g/m*3 8 C 0 km/h
1881 01-03-2003 08:02:37 8 C 6.94 g/m*3 8 C 0 km/h
1882 01-03-2003 08:07:10 8 C 6.86 g/m*3 8 C 0 km/h
1883 01-03-2003 08:08:37 8 C 6.86 g/m*3 8 C 0 km/h
1884 01-03-2003 08:13:10 8.1 C 6.91 g/m*3 8.1 C 0 km/h
1885 01-03-2003 08:14:37 8.1 C 6.91 g/m*3 8.1 C 0 km/h
1886 01-03-2003 08:19:10 8.1 C 6.91 g/m*3 8.1 C 0 km/h
1887 01-03-2003 08:20:37 8.1 C 6.91 g/m*3 8.1 C 0 km/h
1888 01-03-2003 08:25:10 8.2 C 6.87 g/m*3 8.2 C 0 km/h
1889 01-03-2003 08:26:37 8.2 C 6.87 g/m*3 8.2 C 0 km/h
1890 01-03-2003 08:31:10 8.1 C 6.91 g/m*3 8.1 C 0 km/h
1891 01-03-2003 08:32:37 8.1 C 6.91 g/m*3 8.1 C 0 km/h
1892 01-03-2003 08:37:10 8.1 C 6.91 g/m*3 8.1 C 0 km/h
1893 01-03-2003 08:38:37 8.1 C 6.91 g/m*3 8.1 C 0 km/h
1894 01-03-2003 08:43:10 8 C 6.86 g/m*3 8 C 0 km/h
1895 01-03-2003 08:44:37 8 C 6.86 g/m*3 8 C 0 km/h
1896 01-03-2003 08:49:10 7.9 C 6.98 g/m*3 7.9 C 0 km/h
1897 01-03-2003 08:50:37 7.9 C 6.98 g/m*3 7.9 C 0 km/h
1898 01-03-2003 08:55:10 7.8 C 6.94 g/m*3 7.8 C 0 km/h
1899 01-03-2003 08:56:37 7.8 C 6.94 g/m*3 7.8 C 0 km/h
1900 01-03-2003 09:01:10 7.8 C 7.02 g/m*3 7.8 C 0 km/h
Sensor: Nr:Datum:Temp:Abs-Feuchte:Windchill:Wind:
Aussen-T/F 1901 01-03-2003 09:02:37 7.8 C 7.02 g/m*3 7.8 C 0 km/h
1902 01-03-2003 09:07:10 7.9 C 7.06 g/m*3 7.9 C 0 km/h
1903 01-03-2003 09:08:37 7.9 C 7.06 g/m*3 7.9 C 0 km/h
1904 01-03-2003 09:13:10 7.9 C 7.06 g/m*3 7.9 C 0 km/h
1905 01-03-2003 09:14:37 7.9 C 7.06 g/m*3 7.9 C 0 km/h
1906 01-03-2003 09:19:10 8 C 6.94 g/m*3 8 C 0 km/h
1907 01-03-2003 09:20:37 8 C 6.94 g/m*3 8 C 0 km/h
1908 01-03-2003 09:25:10 8.1 C 6.99 g/m*3 8.1 C 0 km/h
1909 01-03-2003 09:26:37 8.1 C 6.99 g/m*3 8.1 C 0 km/h
1910 01-03-2003 09:31:10 8.2 C 7.03 g/m*3 8.2 C 0 km/h
1911 01-03-2003 09:32:37 8.2 C 7.03 g/m*3 8.2 C 0 km/h
1912 01-03-2003 09:37:10 8.2 C 7.03 g/m*3 8.2 C 0 km/h
1913 01-03-2003 09:38:37 8.2 C 7.03 g/m*3 8.2 C 0 km/h
1914 01-03-2003 09:43:10 8.3 C 7 g/m*3 8.3 C 0 km/h
1915 01-03-2003 09:44:37 8.3 C 7 g/m*3 8.3 C 0 km/h
1916 01-03-2003 09:49:10 8.4 C 7.04 g/m*3 8.4 C 0 km/h
1917 01-03-2003 09:50:37 8.4 C 7.04 g/m*3 8.4 C 0 km/h
1918 01-03-2003 09:55:10 8.5 C 7.09 g/m*3 8.5 C 0 km/h
1919 01-03-2003 09:56:37 8.5 C 7.09 g/m*3 8.5 C 0 km/h
1920 01-03-2003 10:01:10 8.7 C 7.09 g/m*3 8.7 C 0 km/h
1921 01-03-2003 10:02:37 8.7 C 7.09 g/m*3 8.7 C 0 km/h
1922 01-03-2003 10:07:10 8.8 C 7.14 g/m*3 8.8 C 0 km/h
1923 01-03-2003 10:08:37 8.8 C 7.14 g/m*3 8.8 C 0 km/h
1924 01-03-2003 10:13:10 8.9 C 7.1 g/m*3 8.9 C 0 km/h
1925 01-03-2003 10:14:37 8.9 C 7.1 g/m*3 8.9 C 0 km/h
Sensor: Nr:Datum:Temp:Abs-Feuchte:Windchill:Wind:
Aussen-T/F 1926 01-03-2003 10:19:10 8.9 C 7.1 g/m*3 8.9 C 0 km/h
1927 01-03-2003 10:20:37 8.9 C 7.1 g/m*3 8.9 C 0 km/h
1928 01-03-2003 10:25:10 8.9 C 7.1 g/m*3 8.9 C 0 km/h
1929 01-03-2003 10:26:37 8.9 C 7.1 g/m*3 8.9 C 0 km/h
1930 01-03-2003 10:31:10 8.9 C 7.1 g/m*3 8.9 C 0 km/h
1931 01-03-2003 10:32:37 8.9 C 7.1 g/m*3 8.9 C 0 km/h
1932 01-03-2003 10:37:10 8.9 C 7.1 g/m*3 8.9 C 0 km/h
1933 01-03-2003 10:38:37 8.9 C 7.1 g/m*3 8.9 C 0 km/h
1934 01-03-2003 10:43:10 8.9 C 7.1 g/m*3 8.9 C 0 km/h
1935 01-03-2003 10:44:37 8.9 C 7.1 g/m*3 8.9 C 0 km/h
1936 01-03-2003 10:49:10 9 C 6.96 g/m*3 9 C 0 km/h
1937 01-03-2003 10:50:37 9 C 6.96 g/m*3 9 C 0 km/h
1938 01-03-2003 10:55:10 9 C 6.96 g/m*3 9 C 0 km/h
1939 01-03-2003 10:56:37 9 C 6.96 g/m*3 9 C 0 km/h
1940 01-03-2003 11:01:10 9.1 C 7.01 g/m*3 9.1 C 0 km/h
1941 01-03-2003 11:02:37 9.1 C 7.01 g/m*3 9.1 C 0 km/h
1942 01-03-2003 11:07:10 9.2 C 7.05 g/m*3 9.2 C 0 km/h
1943 01-03-2003 11:08:37 9.2 C 7.05 g/m*3 9.2 C 0 km/h
1944 01-03-2003 11:13:10 9.3 C 7.01 g/m*3 9.3 C 0 km/h
1945 01-03-2003 11:14:37 9.3 C 7.01 g/m*3 9.3 C 0 km/h
1946 01-03-2003 11:19:10 9.3 C 7.01 g/m*3 9.3 C 0 km/h
1947 01-03-2003 11:20:37 9.3 C 7.01 g/m*3 9.3 C 0 km/h
1948 01-03-2003 11:25:10 9.4 C 7.05 g/m*3 9.4 C 0 km/h
1949 01-03-2003 11:26:37 9.4 C 7.05 g/m*3 9.4 C 0 km/h
1950 01-03-2003 11:31:10 9.4 C 7.05 g/m*3 9.4 C 0 km/h
Sensor: Nr:Datum:Temp:Abs-Feuchte:Windchill:Wind:
Aussen-T/F 1951 01-03-2003 11:32:37 9.4 C 7.05 g/m*3 9.4 C 0 km/h
1952 01-03-2003 11:37:10 9.6 C 7.05 g/m*3 9.6 C 0 km/h
1953 01-03-2003 11:38:37 9.6 C 7.05 g/m*3 9.6 C 0 km/h
1954 01-03-2003 11:43:10 9.6 C 7.05 g/m*3 9.6 C 0 km/h
1955 01-03-2003 11:44:37 9.6 C 7.05 g/m*3 9.6 C 0 km/h
1956 01-03-2003 11:49:10 9.6 C 7.05 g/m*3 9.6 C 0 km/h
1957 01-03-2003 11:50:37 9.6 C 7.05 g/m*3 9.6 C 0 km/h
1958 01-03-2003 11:55:10 9.7 C 7.01 g/m*3 9.7 C 0 km/h
1959 01-03-2003 11:56:37 9.7 C 7.01 g/m*3 9.7 C 0 km/h
1960 01-03-2003 12:01:10 9.7 C 7.01 g/m*3 9.7 C 0 km/h
1961 01-03-2003 12:02:37 9.7 C 7.01 g/m*3 9.7 C 0 km/h
1962 01-03-2003 12:07:10 9.8 C 7.05 g/m*3 9.8 C 0 km/h
1963 01-03-2003 12:08:37 9.8 C 7.05 g/m*3 9.8 C 0 km/h
1964 01-03-2003 12:13:10 9.8 C 7.05 g/m*3 9.8 C 0 km/h
1965 01-03-2003 12:14:37 9.8 C 7.05 g/m*3 9.8 C 0 km/h
1966 01-03-2003 12:19:10 9.9 C 7 g/m*3 9.9 C 0 km/h
1967 01-03-2003 12:20:37 9.9 C 7 g/m*3 9.9 C 0 km/h
1968 01-03-2003 12:25:10 10 C 6.86 g/m*3 10 C 0 km/h
1969 01-03-2003 12:26:37 10 C 6.86 g/m*3 10 C 0 km/h
1970 01-03-2003 12:31:10 9.9 C 7 g/m*3 9.9 C 0 km/h
1971 01-03-2003 12:32:37 9.9 C 7 g/m*3 9.9 C 0 km/h
1972 01-03-2003 12:37:10 9.8 C 6.96 g/m*3 9.8 C 0 km/h
1973 01-03-2003 12:38:37 9.8 C 6.96 g/m*3 9.8 C 0 km/h
1974 01-03-2003 12:43:10 9.8 C 6.96 g/m*3 9.8 C 0 km/h
1975 01-03-2003 12:44:37 9.8 C 6.96 g/m*3 9.8 C 0 km/h
Sensor: Nr:Datum:Temp:Abs-Feuchte:Windchill:Wind:
Aussen-T/F 1976 01-03-2003 12:49:10 9.9 C 7 g/m*3 9.9 C 0 km/h
1977 01-03-2003 12:50:37 9.9 C 7 g/m*3 9.9 C 0 km/h
1978 01-03-2003 12:55:10 10 C 6.95 g/m*3 10 C 0 km/h
1979 01-03-2003 12:56:37 10 C 6.95 g/m*3 10 C 0 km/h
1980 01-03-2003 13:01:10 10.1 C 6.9 g/m*3 10.1 C 0 km/h
1981 01-03-2003 13:02:37 10.1 C 6.9 g/m*3 10.1 C 0 km/h
1982 01-03-2003 13:07:10 10 C 6.86 g/m*3 10 C 0 km/h
1983 01-03-2003 13:08:37 10 C 6.86 g/m*3 10 C 0 km/h
1984 01-03-2003 13:13:10 10 C 6.86 g/m*3 10 C 0 km/h
1985 01-03-2003 13:14:37 10 C 6.86 g/m*3 10 C 0 km/h
1986 01-03-2003 13:19:10 10 C 6.86 g/m*3 10 C 0 km/h
1987 01-03-2003 13:20:37 10 C 6.86 g/m*3 10 C 0 km/h
1988 01-03-2003 13:25:10 10 C 6.86 g/m*3 10 C 0 km/h
1989 01-03-2003 13:26:37 10 C 6.86 g/m*3 10 C 0 km/h
1990 01-03-2003 13:31:10 10 C 6.86 g/m*3 10 C 0 km/h
1991 01-03-2003 13:32:37 10 C 6.86 g/m*3 10 C 0 km/h
1992 01-03-2003 13:37:10 10.1 C 7 g/m*3 10.1 C 0 km/h
1993 01-03-2003 13:38:37 10.1 C 7 g/m*3 10.1 C 0 km/h
1994 01-03-2003 13:43:10 10.1 C 6.9 g/m*3 10.1 C 0 km/h
1995 01-03-2003 13:44:37 10.1 C 6.9 g/m*3 10.1 C 0 km/h
1996 01-03-2003 13:49:10 10.2 C 6.95 g/m*3 10.2 C 0 km/h
1997 01-03-2003 13:50:37 10.2 C 6.95 g/m*3 10.2 C 0 km/h
1998 01-03-2003 13:55:10 10.2 C 6.95 g/m*3 10.2 C 0 km/h
1999 01-03-2003 13:56:37 10.2 C 6.95 g/m*3 10.2 C 0 km/h
2000 01-03-2003 14:01:10 10.2 C 6.85 g/m*3 10.2 C 0 km/h
Sensor: Nr:Datum:Temp:Abs-Feuchte:Windchill:Wind:
Aussen-T/F 2001 01-03-2003 14:02:37 10.2 C 6.85 g/m*3 10.2 C 0 km/h
2002 01-03-2003 14:07:10 10.4 C 6.94 g/m*3 10.4 C 0 km/h
2003 01-03-2003 14:08:37 10.4 C 6.94 g/m*3 10.4 C 0 km/h
2004 01-03-2003 14:13:10 10.5 C 6.98 g/m*3 10.5 C 0 km/h
2005 01-03-2003 14:14:37 10.5 C 6.98 g/m*3 10.5 C 0 km/h
2006 01-03-2003 14:19:10 10.6 C 7.03 g/m*3 10.6 C 0 km/h
2007 01-03-2003 14:20:37 10.6 C 7.03 g/m*3 10.6 C 0 km/h
2008 01-03-2003 14:25:10 10.9 C 7.06 g/m*3 10.9 C 0 km/h
2009 01-03-2003 14:26:37 10.9 C 7.06 g/m*3 10.9 C 0 km/h
2010 01-03-2003 14:31:10 11 C 7.01 g/m*3 11 C 0 km/h
2011 01-03-2003 14:32:37 11 C 7.01 g/m*3 11 C 0 km/h
2012 01-03-2003 14:37:10 11.1 C 7.05 g/m*3 11.1 C 0 km/h
2013 01-03-2003 14:38:37 11.1 C 7.05 g/m*3 11.1 C 0 km/h
2014 01-03-2003 14:43:10 11.3 C 7.04 g/m*3 11.3 C 0 km/h
2015 01-03-2003 14:44:37 11.3 C 7.04 g/m*3 11.3 C 0 km/h
2016 01-03-2003 14:49:10 11.5 C 7.13 g/m*3 11.5 C 0 km/h
2017 01-03-2003 14:50:37 11.5 C 7.13 g/m*3 11.5 C 0 km/h
2018 01-03-2003 14:55:10 11.6 C 7.07 g/m*3 11.6 C 0 km/h
2019 01-03-2003 14:56:37 11.6 C 7.07 g/m*3 11.6 C 0 km/h
2020 01-03-2003 15:01:10 11.7 C 7.11 g/m*3 11.7 C 0 km/h
2021 01-03-2003 15:02:37 11.7 C 7.11 g/m*3 11.7 C 0 km/h
2022 01-03-2003 15:07:10 11.7 C 7.11 g/m*3 11.7 C 0 km/h
2023 01-03-2003 15:08:37 11.7 C 7.11 g/m*3 11.7 C 0 km/h
2024 01-03-2003 15:13:10 11.8 C 7.16 g/m*3 11.8 C 0 km/h
2025 01-03-2003 15:14:37 11.8 C 7.16 g/m*3 11.8 C 0 km/h
Sensor: Nr:Datum:Temp:Abs-Feuchte:Windchill:Wind:
Aussen-T/F 2026 01-03-2003 15:19:10 11.7 C 7.22 g/m*3 11.7 C 0 km/h
2027 01-03-2003 15:20:37 11.7 C 7.22 g/m*3 11.7 C 0 km/h
2028 01-03-2003 15:25:10 11.8 C 7.16 g/m*3 11.8 C 0 km/h
2029 01-03-2003 15:26:37 11.8 C 7.16 g/m*3 11.8 C 0 km/h
2030 01-03-2003 15:31:10 11.9 C 7.2 g/m*3 11.9 C 0 km/h
2031 01-03-2003 15:32:37 11.9 C 7.2 g/m*3 11.9 C 0 km/h
2032 01-03-2003 15:37:10 11.8 C 6.95 g/m*3 11.8 C 0 km/h
2033 01-03-2003 15:38:37 11.8 C 6.95 g/m*3 11.8 C 0 km/h
2034 01-03-2003 15:43:10 11.7 C 7.01 g/m*3 11.7 C 0 km/h
2035 01-03-2003 15:44:37 11.7 C 7.01 g/m*3 11.7 C 0 km/h
2036 01-03-2003 15:49:10 11.7 C 7.01 g/m*3 11.7 C 0 km/h
2037 01-03-2003 15:50:37 11.7 C 7.01 g/m*3 11.7 C 0 km/h
2038 01-03-2003 15:55:10 11.6 C 6.96 g/m*3 11.6 C 0 km/h
2039 01-03-2003 15:56:37 11.6 C 6.96 g/m*3 11.6 C 0 km/h
2040 01-03-2003 16:01:11 11.6 C 7.07 g/m*3 11.6 C 0 km/h
2041 01-03-2003 16:02:37 11.6 C 7.07 g/m*3 11.6 C 0 km/h
2042 01-03-2003 16:07:11 11.5 C 6.92 g/m*3 11.5 C 0 km/h
2043 01-03-2003 16:08:37 11.5 C 6.92 g/m*3 11.5 C 0 km/h
2044 01-03-2003 16:13:11 11.5 C 7.02 g/m*3 11.5 C 0 km/h
2045 01-03-2003 16:14:37 11.5 C 7.02 g/m*3 11.5 C 0 km/h
2046 01-03-2003 16:19:11 11.4 C 6.98 g/m*3 11.4 C 0 km/h
2047 01-03-2003 16:20:37 11.4 C 6.98 g/m*3 11.4 C 0 km/h
2048 01-03-2003 16:25:11 11.4 C 6.88 g/m*3 11.4 C 0 km/h
2049 01-03-2003 16:26:37 11.4 C 6.88 g/m*3 11.4 C 0 km/h
2050 01-03-2003 16:31:11 11.4 C 6.88 g/m*3 11.4 C 0 km/h
Sensor: Nr:Datum:Temp:Abs-Feuchte:Windchill:Wind:
Aussen-T/F 2051 01-03-2003 16:32:37 11.4 C 6.88 g/m*3 11.4 C 0 km/h
2052 01-03-2003 16:37:11 11.4 C 6.88 g/m*3 11.4 C 0 km/h
2053 01-03-2003 16:38:37 11.4 C 6.88 g/m*3 11.4 C 0 km/h
2054 01-03-2003 16:43:11 11.2 C 6.79 g/m*3 11.2 C 0 km/h
2055 01-03-2003 16:44:37 11.2 C 6.79 g/m*3 11.2 C 0 km/h
2056 01-03-2003 16:49:11 11.2 C 6.89 g/m*3 11.2 C 0 km/h
2057 01-03-2003 16:50:37 11.2 C 6.89 g/m*3 11.2 C 0 km/h
2058 01-03-2003 16:55:11 11.2 C 6.89 g/m*3 11.2 C 0 km/h
2059 01-03-2003 16:56:37 11.2 C 6.89 g/m*3 11.2 C 0 km/h
2060 01-03-2003 17:01:11 11.1 C 6.85 g/m*3 11.1 C 0 km/h
2061 01-03-2003 17:02:37 11.1 C 6.85 g/m*3 11.1 C 0 km/h
2062 01-03-2003 17:07:11 11 C 6.91 g/m*3 11 C 0 km/h
2063 01-03-2003 17:08:37 11 C 6.91 g/m*3 11 C 0 km/h
2064 01-03-2003 17:13:11 10.9 C 6.96 g/m*3 10.9 C 0 km/h
2065 01-03-2003 17:14:37 10.9 C 6.96 g/m*3 10.9 C 0 km/h
2066 01-03-2003 17:19:11 10.8 C 7.02 g/m*3 10.8 C 0 km/h
2067 01-03-2003 17:20:37 10.8 C 7.02 g/m*3 10.8 C 0 km/h
2068 01-03-2003 17:25:11 10.7 C 6.97 g/m*3 10.7 C 0 km/h
2069 01-03-2003 17:26:37 10.7 C 6.97 g/m*3 10.7 C 0 km/h
2070 01-03-2003 17:31:11 10.5 C 6.89 g/m*3 10.5 C 0 km/h
2071 01-03-2003 17:32:37 10.5 C 6.89 g/m*3 10.5 C 0 km/h
2072 01-03-2003 17:37:11 10.5 C 6.98 g/m*3 10.5 C 0 km/h
2073 01-03-2003 17:38:37 10.5 C 6.98 g/m*3 10.5 C 0 km/h
2074 01-03-2003 17:43:11 10.4 C 6.94 g/m*3 10.4 C 0 km/h
2075 01-03-2003 17:44:37 10.4 C 6.94 g/m*3 10.4 C 0 km/h
Sensor: Nr:Datum:Temp:Abs-Feuchte:Windchill:Wind:
Aussen-T/F 2076 01-03-2003 17:49:11 10.4 C 6.84 g/m*3 10.4 C 0 km/h
2077 01-03-2003 17:50:37 10.4 C 6.84 g/m*3 10.4 C 0 km/h
2078 01-03-2003 17:55:11 10.3 C 6.8 g/m*3 10.3 C 0 km/h
2079 01-03-2003 17:56:37 10.3 C 6.8 g/m*3 10.3 C 0 km/h
2080 01-03-2003 18:01:11 10.2 C 6.85 g/m*3 10.2 C 0 km/h
2081 01-03-2003 18:02:37 10.2 C 6.85 g/m*3 10.2 C 0 km/h
2082 01-03-2003 18:07:11 10.1 C 6.81 g/m*3 10.1 C 0 km/h
2083 01-03-2003 18:08:37 10.1 C 6.81 g/m*3 10.1 C 0 km/h
2084 01-03-2003 18:13:11 10 C 6.77 g/m*3 10 C 0 km/h
2085 01-03-2003 18:14:37 10 C 6.77 g/m*3 10 C 0 km/h
2086 01-03-2003 18:19:11 9.9 C 6.91 g/m*3 9.9 C 0 km/h
2087 01-03-2003 18:20:37 9.9 C 6.91 g/m*3 9.9 C 0 km/h
2088 01-03-2003 18:25:11 9.8 C 6.87 g/m*3 9.8 C 0 km/h
2089 01-03-2003 18:26:37 9.8 C 6.87 g/m*3 9.8 C 0 km/h
2090 01-03-2003 18:31:11 9.8 C 6.87 g/m*3 9.8 C 0 km/h
2091 01-03-2003 18:32:37 9.8 C 6.87 g/m*3 9.8 C 0 km/h
2092 01-03-2003 18:37:11 9.7 C 6.82 g/m*3 9.7 C 0 km/h
2093 01-03-2003 18:38:37 9.7 C 6.82 g/m*3 9.7 C 0 km/h
2094 01-03-2003 18:43:11 9.6 C 6.87 g/m*3 9.6 C 0 km/h
2095 01-03-2003 18:44:37 9.6 C 6.87 g/m*3 9.6 C 0 km/h
2096 01-03-2003 18:49:11 9.6 C 6.87 g/m*3 9.6 C 0 km/h
2097 01-03-2003 18:50:37 9.6 C 6.87 g/m*3 9.6 C 0 km/h
2098 01-03-2003 18:55:11 9.6 C 6.87 g/m*3 9.6 C 0 km/h
2099 01-03-2003 18:56:37 9.6 C 6.87 g/m*3 9.6 C 0 km/h
2100 01-03-2003 19:01:11 9.6 C 6.87 g/m*3 9.6 C 0 km/h
Sensor: Nr:Datum:Temp:Abs-Feuchte:Windchill:Wind:
Aussen-T/F 2101 01-03-2003 19:02:37 9.6 C 6.87 g/m*3 9.6 C 0 km/h
2102 01-03-2003 19:07:11 9.5 C 6.83 g/m*3 9.5 C 0 km/h
2103 01-03-2003 19:08:37 9.5 C 6.83 g/m*3 9.5 C 0 km/h
2104 01-03-2003 19:13:11 9.5 C 6.92 g/m*3 9.5 C 0 km/h
2105 01-03-2003 19:14:37 9.5 C 6.92 g/m*3 9.5 C 0 km/h
2106 01-03-2003 19:19:11 9.5 C 6.92 g/m*3 9.5 C 0 km/h
2107 01-03-2003 19:20:37 9.5 C 6.92 g/m*3 9.5 C 0 km/h
2108 01-03-2003 19:25:11 9.4 C 6.87 g/m*3 9.4 C 0 km/h
2109 01-03-2003 19:26:37 9.4 C 6.87 g/m*3 9.4 C 0 km/h
2110 01-03-2003 19:31:11 9.4 C 6.87 g/m*3 9.4 C 0 km/h
2111 01-03-2003 19:32:37 9.4 C 6.87 g/m*3 9.4 C 0 km/h
2112 01-03-2003 19:37:11 9.4 C 6.87 g/m*3 9.4 C 0 km/h
2113 01-03-2003 19:38:37 9.4 C 6.87 g/m*3 9.4 C 0 km/h
2114 01-03-2003 19:43:11 9.4 C 6.87 g/m*3 9.4 C 0 km/h
2115 01-03-2003 19:44:37 9.4 C 6.87 g/m*3 9.4 C 0 km/h
2116 01-03-2003 19:49:11 9.4 C 6.87 g/m*3 9.4 C 0 km/h
2117 01-03-2003 19:50:37 9.4 C 6.87 g/m*3 9.4 C 0 km/h
2118 01-03-2003 19:55:11 9.4 C 6.87 g/m*3 9.4 C 0 km/h
2119 01-03-2003 19:56:37 9.4 C 6.87 g/m*3 9.4 C 0 km/h
2120 01-03-2003 20:02:11 9.3 C 6.83 g/m*3 9.3 C 0 km/h
2121 01-03-2003 20:02:37 9.3 C 6.83 g/m*3 9.3 C 0 km/h
2122 01-03-2003 20:08:11 9.4 C 6.87 g/m*3 9.4 C 0 km/h
2123 01-03-2003 20:08:37 9.4 C 6.87 g/m*3 9.4 C 0 km/h
2124 01-03-2003 20:14:11 9.3 C 6.83 g/m*3 9.3 C 0 km/h
2125 01-03-2003 20:14:37 9.3 C 6.83 g/m*3 9.3 C 0 km/h
Sensor: Nr:Datum:Temp:Abs-Feuchte:Windchill:Wind:
Aussen-T/F 2126 01-03-2003 20:20:11 9.3 C 6.83 g/m*3 9.3 C 0 km/h
2127 01-03-2003 20:20:37 9.3 C 6.83 g/m*3 9.3 C 0 km/h
2128 01-03-2003 20:26:11 9.3 C 6.92 g/m*3 9.3 C 0 km/h
2129 01-03-2003 20:26:37 9.3 C 6.92 g/m*3 9.3 C 0 km/h
2130 01-03-2003 20:32:11 9.3 C 6.92 g/m*3 9.3 C 0 km/h
2131 01-03-2003 20:32:37 9.3 C 6.92 g/m*3 9.3 C 0 km/h
2132 01-03-2003 20:38:11 9.2 C 6.88 g/m*3 9.2 C 0 km/h
2133 01-03-2003 20:38:37 9.2 C 6.88 g/m*3 9.2 C 0 km/h
2134 01-03-2003 20:44:11 9.1 C 6.83 g/m*3 9.1 C 0 km/h
2135 01-03-2003 20:44:37 9.1 C 6.83 g/m*3 9.1 C 0 km/h
2136 01-03-2003 20:50:11 9.1 C 6.83 g/m*3 9.1 C 0 km/h
2137 01-03-2003 20:50:37 9.1 C 6.83 g/m*3 9.1 C 0 km/h
2138 01-03-2003 21:02:11 9 C 6.88 g/m*3 9 C 0 km/h
2139 01-03-2003 21:02:37 9 C 6.88 g/m*3 9 C 0 km/h
2140 01-03-2003 21:08:11 9 C 6.88 g/m*3 9 C 0 km/h
2141 01-03-2003 21:08:37 9 C 6.88 g/m*3 9 C 0 km/h
2142 01-03-2003 21:14:11 8.9 C 6.92 g/m*3 8.9 C 0 km/h
2143 01-03-2003 21:14:37 8.9 C 6.92 g/m*3 8.9 C 0 km/h
2144 01-03-2003 21:20:11 8.8 C 6.96 g/m*3 8.8 C 0 km/h
2145 01-03-2003 21:20:37 8.8 C 6.96 g/m*3 8.8 C 0 km/h
2146 01-03-2003 21:26:11 8.8 C 7.05 g/m*3 8.8 C 0 km/h
2147 01-03-2003 21:26:37 8.8 C 7.05 g/m*3 8.8 C 0 km/h
2148 01-03-2003 21:32:11 8.7 C 7.01 g/m*3 8.7 C 0 km/h
2149 01-03-2003 21:32:37 8.7 C 7.01 g/m*3 8.7 C 0 km/h
2150 01-03-2003 21:38:11 8.8 C 7.05 g/m*3 8.8 C 0 km/h
Sensor: Nr:Datum:Temp:Abs-Feuchte:Windchill:Wind:
Aussen-T/F 2151 01-03-2003 21:38:37 8.8 C 7.05 g/m*3 8.8 C 0 km/h
2152 01-03-2003 21:44:11 8.7 C 7.09 g/m*3 8.7 C 0 km/h
2153 01-03-2003 21:44:37 8.7 C 7.09 g/m*3 8.7 C 0 km/h
2154 01-03-2003 21:50:11 8.6 C 7.05 g/m*3 8.6 C 0 km/h
2155 01-03-2003 21:50:37 8.6 C 7.05 g/m*3 8.6 C 0 km/h
2156 01-03-2003 21:56:11 8.5 C 7.09 g/m*3 8.5 C 0 km/h
2157 01-03-2003 21:56:37 8.5 C 7.09 g/m*3 8.5 C 0 km/h
2158 01-03-2003 22:02:11 8.5 C 7.09 g/m*3 8.5 C 0 km/h
2159 01-03-2003 22:02:37 8.5 C 7.09 g/m*3 8.5 C 0 km/h
2160 01-03-2003 22:08:11 8.4 C 7.13 g/m*3 8.4 C 0 km/h
2161 01-03-2003 22:08:37 8.4 C 7.13 g/m*3 8.4 C 0 km/h
2162 01-03-2003 22:14:11 8.4 C 7.13 g/m*3 8.4 C 0 km/h
2163 01-03-2003 22:14:37 8.4 C 7.13 g/m*3 8.4 C 0 km/h
2164 01-03-2003 22:20:11 8.3 C 7.08 g/m*3 8.3 C 0 km/h
2165 01-03-2003 22:20:37 8.3 C 7.08 g/m*3 8.3 C 0 km/h
2166 01-03-2003 22:26:11 8.4 C 7.21 g/m*3 8.4 C 0 km/h
2167 01-03-2003 22:26:37 8.4 C 7.21 g/m*3 8.4 C 0 km/h
2168 01-03-2003 22:32:11 8.4 C 7.21 g/m*3 8.4 C 0 km/h
2169 01-03-2003 22:32:37 8.4 C 7.21 g/m*3 8.4 C 0 km/h
2170 01-03-2003 22:38:11 8.3 C 7.25 g/m*3 8.3 C 0 km/h
2171 01-03-2003 22:38:37 8.3 C 7.25 g/m*3 8.3 C 0 km/h
2172 01-03-2003 22:44:11 8.3 C 7.25 g/m*3 8.3 C 0 km/h
2173 01-03-2003 22:44:37 8.3 C 7.25 g/m*3 8.3 C 0 km/h
2174 01-03-2003 22:50:11 8.3 C 7.25 g/m*3 8.3 C 0 km/h
2175 01-03-2003 22:50:37 8.3 C 7.25 g/m*3 8.3 C 0 km/h
Sensor: Nr:Datum:Temp:Abs-Feuchte:Windchill:Wind:
Aussen-T/F 2176 01-03-2003 22:56:11 8.2 C 7.2 g/m*3 8.2 C 0 km/h
2177 01-03-2003 22:56:37 8.2 C 7.2 g/m*3 8.2 C 0 km/h
2178 01-03-2003 23:02:11 8.3 C 7.25 g/m*3 8.3 C 0 km/h
2179 01-03-2003 23:02:37 8.3 C 7.25 g/m*3 8.3 C 0 km/h
2180 01-03-2003 23:08:11 8.3 C 7.33 g/m*3 8.3 C 0 km/h
2181 01-03-2003 23:08:37 8.3 C 7.33 g/m*3 8.3 C 0 km/h
2182 01-03-2003 23:14:11 8.2 C 7.29 g/m*3 8.2 C 0 km/h
2183 01-03-2003 23:14:37 8.2 C 7.29 g/m*3 8.2 C 0 km/h
2184 01-03-2003 23:20:11 8.2 C 7.37 g/m*3 8.2 C 0 km/h
2185 01-03-2003 23:20:37 8.2 C 7.37 g/m*3 8.2 C 0 km/h
2186 01-03-2003 23:26:11 8.2 C 7.37 g/m*3 8.2 C 0 km/h
2187 01-03-2003 23:26:37 8.2 C 7.37 g/m*3 8.2 C 0 km/h
2188 01-03-2003 23:32:11 8.1 C 7.32 g/m*3 8.1 C 0 km/h
2189 01-03-2003 23:32:37 8.1 C 7.32 g/m*3 8.1 C 0 km/h
2190 01-03-2003 23:38:11 8.1 C 7.32 g/m*3 8.1 C 0 km/h
2191 01-03-2003 23:38:37 8.1 C 7.32 g/m*3 8.1 C 0 km/h
2192 01-03-2003 23:44:11 8.1 C 7.32 g/m*3 8.1 C 0 km/h
2193 01-03-2003 23:44:37 8.1 C 7.32 g/m*3 8.1 C 0 km/h
2194 01-03-2003 23:50:11 8.1 C 7.32 g/m*3 8.1 C 0 km/h
2195 01-03-2003 23:50:37 8.1 C 7.32 g/m*3 8.1 C 0 km/h
2196 01-03-2003 23:56:11 8.1 C 7.32 g/m*3 8.1 C 0 km/h
2197 01-03-2003 23:56:37 8.1 C 7.32 g/m*3 8.1 C 0 km/h
2198 02-03-2003 00:02:11 8 C 7.28 g/m*3 8 C 0 km/h
2199 02-03-2003 00:02:37 8 C 7.28 g/m*3 8 C 0 km/h
2200 02-03-2003 00:08:11 8.1 C 7.32 g/m*3 8.1 C 0 km/h
Sensor: Nr:Datum:Temp:Abs-Feuchte:Windchill:Wind:
Aussen-T/F 2201 02-03-2003 00:08:37 8.1 C 7.32 g/m*3 8.1 C 0 km/h
2202 02-03-2003 00:14:11 8 C 7.36 g/m*3 8 C 0 km/h
2203 02-03-2003 00:14:37 8 C 7.36 g/m*3 8 C 0 km/h
2204 02-03-2003 00:20:11 7.9 C 7.39 g/m*3 7.9 C 0 km/h
2205 02-03-2003 00:20:37 7.9 C 7.39 g/m*3 7.9 C 0 km/h
2206 02-03-2003 00:26:11 7.9 C 7.39 g/m*3 7.9 C 0 km/h
2207 02-03-2003 00:26:37 7.9 C 7.39 g/m*3 7.9 C 0 km/h
2208 02-03-2003 00:32:11 7.9 C 7.39 g/m*3 7.9 C 0 km/h
2209 02-03-2003 00:32:37 7.9 C 7.39 g/m*3 7.9 C 0 km/h
2210 02-03-2003 00:38:11 7.8 C 7.35 g/m*3 7.8 C 0 km/h
2211 02-03-2003 00:38:37 7.8 C 7.35 g/m*3 7.8 C 0 km/h
2212 02-03-2003 00:44:11 7.8 C 7.35 g/m*3 7.8 C 0 km/h
2213 02-03-2003 00:44:37 7.8 C 7.35 g/m*3 7.8 C 0 km/h
2214 02-03-2003 00:50:11 7.8 C 7.43 g/m*3 7.8 C 0 km/h
2215 02-03-2003 00:50:37 7.8 C 7.43 g/m*3 7.8 C 0 km/h
2216 02-03-2003 00:56:11 7.9 C 7.39 g/m*3 7.9 C 0 km/h
2217 02-03-2003 00:56:37 7.9 C 7.39 g/m*3 7.9 C 0 km/h
2218 02-03-2003 01:02:11 7.9 C 7.39 g/m*3 7.9 C 0 km/h
2219 02-03-2003 01:02:37 7.9 C 7.39 g/m*3 7.9 C 0 km/h
2220 02-03-2003 01:08:11 7.8 C 7.35 g/m*3 7.8 C 0 km/h
2221 02-03-2003 01:08:37 7.8 C 7.35 g/m*3 7.8 C 0 km/h
2222 02-03-2003 01:14:11 7.8 C 7.35 g/m*3 7.8 C 0 km/h
2223 02-03-2003 01:14:37 7.8 C 7.35 g/m*3 7.8 C 0 km/h
2224 02-03-2003 01:20:11 7.8 C 7.43 g/m*3 7.8 C 0 km/h
2225 02-03-2003 01:20:37 7.8 C 7.43 g/m*3 7.8 C 0 km/h
Sensor: Nr:Datum:Temp:Abs-Feuchte:Windchill:Wind:
Aussen-T/F 2226 02-03-2003 01:26:11 7.7 C 7.38 g/m*3 7.7 C 0 km/h
2227 02-03-2003 01:26:37 7.7 C 7.38 g/m*3 7.7 C 0 km/h
2228 02-03-2003 01:32:11 7.8 C 7.43 g/m*3 7.8 C 0 km/h
2229 02-03-2003 01:32:37 7.8 C 7.43 g/m*3 7.8 C 0 km/h
2230 02-03-2003 01:38:11 7.8 C 7.43 g/m*3 7.8 C 0 km/h
2231 02-03-2003 01:38:37 7.8 C 7.43 g/m*3 7.8 C 0 km/h
2232 02-03-2003 01:44:11 7.8 C 7.43 g/m*3 7.8 C 0 km/h
2233 02-03-2003 01:44:37 7.8 C 7.43 g/m*3 7.8 C 0 km/h
2234 02-03-2003 01:50:11 7.7 C 7.38 g/m*3 7.7 C 0 km/h
2235 02-03-2003 01:50:37 7.7 C 7.38 g/m*3 7.7 C 0 km/h
2236 02-03-2003 01:56:11 7.8 C 7.43 g/m*3 7.8 C 0 km/h
2237 02-03-2003 01:56:37 7.8 C 7.43 g/m*3 7.8 C 0 km/h
2238 02-03-2003 02:02:11 7.8 C 7.43 g/m*3 7.8 C 0 km/h
2239 02-03-2003 02:02:37 7.8 C 7.43 g/m*3 7.8 C 0 km/h
2240 02-03-2003 02:08:11 7.7 C 7.38 g/m*3 7.7 C 0 km/h
2241 02-03-2003 02:08:37 7.7 C 7.38 g/m*3 7.7 C 0 km/h
2242 02-03-2003 02:14:11 7.6 C 7.33 g/m*3 7.6 C 0 km/h
2243 02-03-2003 02:14:37 7.6 C 7.33 g/m*3 7.6 C 0 km/h
2244 02-03-2003 02:20:11 7.6 C 7.33 g/m*3 7.6 C 0 km/h
2245 02-03-2003 02:20:37 7.6 C 7.33 g/m*3 7.6 C 0 km/h
2246 02-03-2003 02:26:11 7.6 C 7.33 g/m*3 7.6 C 0 km/h
2247 02-03-2003 02:26:37 7.6 C 7.33 g/m*3 7.6 C 0 km/h
2248 02-03-2003 02:32:11 7.7 C 7.38 g/m*3 7.7 C 0 km/h
2249 02-03-2003 02:32:37 7.7 C 7.38 g/m*3 7.7 C 0 km/h
2250 02-03-2003 02:38:11 7.8 C 7.43 g/m*3 7.8 C 0 km/h
Sensor: Nr:Datum:Temp:Abs-Feuchte:Windchill:Wind:
Aussen-T/F 2251 02-03-2003 02:38:37 7.8 C 7.43 g/m*3 7.8 C 0 km/h
2252 02-03-2003 02:44:11 7.7 C 7.38 g/m*3 7.7 C 0 km/h
2253 02-03-2003 02:44:37 7.7 C 7.38 g/m*3 7.7 C 0 km/h
2254 02-03-2003 02:50:11 7.7 C 7.38 g/m*3 7.7 C 0 km/h
2255 02-03-2003 02:50:37 7.7 C 7.38 g/m*3 7.7 C 0 km/h
2256 02-03-2003 02:56:11 7.8 C 7.35 g/m*3 7.8 C 0 km/h
2257 02-03-2003 02:56:37 7.8 C 7.35 g/m*3 7.8 C 0 km/h
2258 02-03-2003 03:02:11 7.8 C 7.35 g/m*3 7.8 C 0 km/h
2259 02-03-2003 03:02:37 7.8 C 7.35 g/m*3 7.8 C 0 km/h
2260 02-03-2003 03:08:11 8 C 7.36 g/m*3 8 C 0 km/h
2261 02-03-2003 03:08:37 8 C 7.36 g/m*3 8 C 0 km/h
2262 02-03-2003 03:14:11 7.8 C 7.26 g/m*3 7.8 C 0 km/h
2263 02-03-2003 03:14:37 7.8 C 7.26 g/m*3 7.8 C 0 km/h
2264 02-03-2003 03:20:11 7.7 C 7.22 g/m*3 7.7 C 0 km/h
2265 02-03-2003 03:20:37 7.7 C 7.22 g/m*3 7.7 C 0 km/h
2266 02-03-2003 03:26:11 7.7 C 7.22 g/m*3 7.7 C 0 km/h
2267 02-03-2003 03:26:37 7.7 C 7.22 g/m*3 7.7 C 0 km/h
2268 02-03-2003 03:32:11 7.7 C 7.3 g/m*3 7.7 C 0 km/h
2269 02-03-2003 03:32:37 7.7 C 7.3 g/m*3 7.7 C 0 km/h
2270 02-03-2003 03:38:11 7.7 C 7.3 g/m*3 7.7 C 0 km/h
2271 02-03-2003 03:38:37 7.7 C 7.3 g/m*3 7.7 C 0 km/h
2272 02-03-2003 03:44:11 7.6 C 7.25 g/m*3 7.6 C 0 km/h
2273 02-03-2003 03:44:37 7.6 C 7.25 g/m*3 7.6 C 0 km/h
2274 02-03-2003 03:50:11 7.6 C 7.25 g/m*3 7.6 C 0 km/h
2275 02-03-2003 03:50:37 7.6 C 7.25 g/m*3 7.6 C 0 km/h
Sensor: Nr:Datum:Temp:Abs-Feuchte:Windchill:Wind:
Aussen-T/F 2276 02-03-2003 03:56:11 7.5 C 7.2 g/m*3 7.5 C 0 km/h
2277 02-03-2003 03:56:37 7.5 C 7.2 g/m*3 7.5 C 0 km/h
2278 02-03-2003 04:02:11 7.5 C 7.2 g/m*3 7.5 C 0 km/h
2279 02-03-2003 04:02:37 7.5 C 7.2 g/m*3 7.5 C 0 km/h
2280 02-03-2003 04:08:11 7.5 C 7.2 g/m*3 7.5 C 0 km/h
2281 02-03-2003 04:08:37 7.5 C 7.2 g/m*3 7.5 C 0 km/h
2282 02-03-2003 04:14:11 7.6 C 7.25 g/m*3 7.6 C 0 km/h
2283 02-03-2003 04:14:37 7.6 C 7.25 g/m*3 7.6 C 0 km/h
2284 02-03-2003 04:20:11 7.6 C 7.25 g/m*3 7.6 C 0 km/h
2285 02-03-2003 04:20:37 7.6 C 7.25 g/m*3 7.6 C 0 km/h
2286 02-03-2003 04:26:11 7.5 C 7.12 g/m*3 7.5 C 0 km/h
2287 02-03-2003 04:26:37 7.5 C 7.12 g/m*3 7.5 C 0 km/h
2288 02-03-2003 04:32:11 7.5 C 7.2 g/m*3 7.5 C 0 km/h
2289 02-03-2003 04:32:37 7.5 C 7.2 g/m*3 7.5 C 0 km/h
2290 02-03-2003 04:38:11 7.5 C 7.2 g/m*3 7.5 C 0 km/h
2291 02-03-2003 04:38:37 7.5 C 7.2 g/m*3 7.5 C 0 km/h
2292 02-03-2003 04:44:11 7.4 C 7.16 g/m*3 7.4 C 0 km/h
2293 02-03-2003 04:44:37 7.4 C 7.16 g/m*3 7.4 C 0 km/h
2294 02-03-2003 04:50:11 7.4 C 7.16 g/m*3 7.4 C 0 km/h
2295 02-03-2003 04:50:37 7.4 C 7.16 g/m*3 7.4 C 0 km/h
2296 02-03-2003 04:56:11 7.4 C 7.16 g/m*3 7.4 C 0 km/h
2297 02-03-2003 04:56:37 7.4 C 7.16 g/m*3 7.4 C 0 km/h
2298 02-03-2003 05:02:11 7.5 C 7.2 g/m*3 7.5 C 0 km/h
2299 02-03-2003 05:02:37 7.5 C 7.2 g/m*3 7.5 C 0 km/h
2300 02-03-2003 05:08:11 7.5 C 7.2 g/m*3 7.5 C 0 km/h
Sensor: Nr:Datum:Temp:Abs-Feuchte:Windchill:Wind:
Aussen-T/F 2301 02-03-2003 05:08:37 7.5 C 7.2 g/m*3 7.5 C 0 km/h
2302 02-03-2003 05:14:11 7.5 C 7.2 g/m*3 7.5 C 0 km/h
2303 02-03-2003 05:14:37 7.5 C 7.2 g/m*3 7.5 C 0 km/h
2304 02-03-2003 05:20:11 7.5 C 7.2 g/m*3 7.5 C 0 km/h
2305 02-03-2003 05:20:37 7.5 C 7.2 g/m*3 7.5 C 0 km/h
2306 02-03-2003 05:26:11 7.4 C 7.16 g/m*3 7.4 C 0 km/h
2307 02-03-2003 05:26:37 7.4 C 7.16 g/m*3 7.4 C 0 km/h
2308 02-03-2003 05:32:11 7.3 C 7.11 g/m*3 7.3 C 0 km/h
2309 02-03-2003 05:32:37 7.3 C 7.11 g/m*3 7.3 C 0 km/h
2310 02-03-2003 05:38:11 7.3 C 7.11 g/m*3 7.3 C 0 km/h
2311 02-03-2003 05:38:37 7.3 C 7.11 g/m*3 7.3 C 0 km/h
2312 02-03-2003 05:44:11 7.1 C 7.02 g/m*3 7.1 C 0 km/h
2313 02-03-2003 05:44:37 7.1 C 7.02 g/m*3 7.1 C 0 km/h
2314 02-03-2003 05:50:11 7.1 C 7.02 g/m*3 7.1 C 0 km/h
2315 02-03-2003 05:50:37 7.1 C 7.02 g/m*3 7.1 C 0 km/h
2316 02-03-2003 05:56:11 7.2 C 7.14 g/m*3 7.2 C 0 km/h
2317 02-03-2003 05:56:37 7.2 C 7.14 g/m*3 7.2 C 0 km/h
2318 02-03-2003 06:02:11 7.3 C 7.19 g/m*3 7.3 C 0 km/h
2319 02-03-2003 06:02:37 7.3 C 7.19 g/m*3 7.3 C 0 km/h
2320 02-03-2003 06:08:11 7.3 C 7.19 g/m*3 7.3 C 0 km/h
2321 02-03-2003 06:08:37 7.3 C 7.19 g/m*3 7.3 C 0 km/h
2322 02-03-2003 06:14:11 7.2 C 7.14 g/m*3 7.2 C 0 km/h
2323 02-03-2003 06:14:37 7.2 C 7.14 g/m*3 7.2 C 0 km/h
2324 02-03-2003 06:20:11 7.2 C 7.14 g/m*3 7.2 C 0 km/h
2325 02-03-2003 06:20:37 7.2 C 7.14 g/m*3 7.2 C 0 km/h
Sensor: Nr:Datum:Temp:Abs-Feuchte:Windchill:Wind:
Aussen-T/F 2326 02-03-2003 06:26:11 7.2 C 7.14 g/m*3 7.2 C 0 km/h
2327 02-03-2003 06:26:37 7.2 C 7.14 g/m*3 7.2 C 0 km/h
2328 02-03-2003 06:32:11 7.2 C 7.14 g/m*3 7.2 C 0 km/h
2329 02-03-2003 06:32:37 7.2 C 7.14 g/m*3 7.2 C 0 km/h
2330 02-03-2003 06:38:11 7.3 C 7.19 g/m*3 7.3 C 0 km/h
2331 02-03-2003 06:38:37 7.3 C 7.19 g/m*3 7.3 C 0 km/h
2332 02-03-2003 06:44:11 7.4 C 7.32 g/m*3 7.4 C 0 km/h
2333 02-03-2003 06:44:37 7.4 C 7.32 g/m*3 7.4 C 0 km/h
2334 02-03-2003 06:50:11 7.3 C 7.27 g/m*3 7.3 C 0 km/h
2335 02-03-2003 06:50:37 7.3 C 7.27 g/m*3 7.3 C 0 km/h
2336 02-03-2003 06:56:11 7.3 C 7.27 g/m*3 7.3 C 0 km/h
2337 02-03-2003 06:56:37 7.3 C 7.27 g/m*3 7.3 C 0 km/h
2338 02-03-2003 07:02:11 7.2 C 7.14 g/m*3 7.2 C 0 km/h
2339 02-03-2003 07:02:37 7.2 C 7.14 g/m*3 7.2 C 0 km/h
2340 02-03-2003 07:08:11 7.3 C 7.19 g/m*3 7.3 C 0 km/h
2341 02-03-2003 07:08:37 7.3 C 7.19 g/m*3 7.3 C 0 km/h
2342 02-03-2003 07:14:11 7.3 C 7.27 g/m*3 7.3 C 0 km/h
2343 02-03-2003 07:14:37 7.3 C 7.27 g/m*3 7.3 C 0 km/h
2344 02-03-2003 07:20:11 7.4 C 7.32 g/m*3 7.4 C 0 km/h
2345 02-03-2003 07:20:37 7.4 C 7.32 g/m*3 7.4 C 0 km/h
2346 02-03-2003 07:26:11 7.3 C 7.27 g/m*3 7.3 C 0 km/h
2347 02-03-2003 07:26:37 7.3 C 7.27 g/m*3 7.3 C 0 km/h
2348 02-03-2003 07:32:11 7.4 C 7.32 g/m*3 7.4 C 0 km/h
2349 02-03-2003 07:32:37 7.4 C 7.32 g/m*3 7.4 C 0 km/h
2350 02-03-2003 07:38:11 7.3 C 7.27 g/m*3 7.3 C 0 km/h
Sensor: Nr:Datum:Temp:Abs-Feuchte:Windchill:Wind:
Aussen-T/F 2351 02-03-2003 07:38:37 7.3 C 7.27 g/m*3 7.3 C 0 km/h
2352 02-03-2003 07:44:11 7.4 C 7.32 g/m*3 7.4 C 0 km/h
2353 02-03-2003 07:44:37 7.4 C 7.32 g/m*3 7.4 C 0 km/h
2354 02-03-2003 07:50:11 7.4 C 7.32 g/m*3 7.4 C 0 km/h
2355 02-03-2003 07:50:37 7.4 C 7.32 g/m*3 7.4 C 0 km/h
2356 02-03-2003 07:56:11 7.5 C 7.36 g/m*3 7.5 C 0 km/h
2357 02-03-2003 07:56:37 7.5 C 7.36 g/m*3 7.5 C 0 km/h
2358 02-03-2003 08:02:11 7.5 C 7.36 g/m*3 7.5 C 0 km/h
2359 02-03-2003 08:02:37 7.5 C 7.36 g/m*3 7.5 C 0 km/h
2360 02-03-2003 08:08:11 7.3 C 7.19 g/m*3 7.3 C 0 km/h
2361 02-03-2003 08:08:37 7.3 C 7.19 g/m*3 7.3 C 0 km/h
2362 02-03-2003 08:14:11 7.5 C 7.28 g/m*3 7.5 C 0 km/h
2363 02-03-2003 08:14:37 7.5 C 7.28 g/m*3 7.5 C 0 km/h
2364 02-03-2003 08:20:11 7.5 C 7.28 g/m*3 7.5 C 0 km/h
2365 02-03-2003 08:20:37 7.5 C 7.28 g/m*3 7.5 C 0 km/h
2366 02-03-2003 08:26:11 7.4 C 7.24 g/m*3 7.4 C 0 km/h
2367 02-03-2003 08:26:37 7.4 C 7.24 g/m*3 7.4 C 0 km/h
2368 02-03-2003 08:32:11 7.5 C 7.28 g/m*3 7.5 C 0 km/h
2369 02-03-2003 08:32:37 7.5 C 7.28 g/m*3 7.5 C 0 km/h
2370 02-03-2003 08:38:11 7.6 C 7.33 g/m*3 7.6 C 0 km/h
2371 02-03-2003 08:38:37 7.6 C 7.33 g/m*3 7.6 C 0 km/h
2372 02-03-2003 08:44:11 7.6 C 7.33 g/m*3 7.6 C 0 km/h
2373 02-03-2003 08:44:37 7.6 C 7.33 g/m*3 7.6 C 0 km/h
2374 02-03-2003 08:50:11 7.7 C 7.38 g/m*3 7.7 C 0 km/h
2375 02-03-2003 08:50:37 7.7 C 7.38 g/m*3 7.7 C 0 km/h
Sensor: Nr:Datum:Temp:Abs-Feuchte:Windchill:Wind:
Aussen-T/F 2376 02-03-2003 08:56:11 7.8 C 7.43 g/m*3 7.8 C 0 km/h
2377 02-03-2003 08:56:37 7.8 C 7.43 g/m*3 7.8 C 0 km/h
2378 02-03-2003 09:02:11 7.7 C 7.38 g/m*3 7.7 C 0 km/h
2379 02-03-2003 09:02:37 7.7 C 7.38 g/m*3 7.7 C 0 km/h
2380 02-03-2003 09:08:11 7.9 C 7.47 g/m*3 7.9 C 0 km/h
2381 02-03-2003 09:08:37 7.9 C 7.47 g/m*3 7.9 C 0 km/h
2382 02-03-2003 09:14:11 8.1 C 7.57 g/m*3 8.1 C 0 km/h
2383 02-03-2003 09:14:37 8.1 C 7.57 g/m*3 8.1 C 0 km/h
2384 02-03-2003 09:20:11 8.2 C 7.62 g/m*3 8.2 C 0 km/h
2385 02-03-2003 09:20:37 8.2 C 7.62 g/m*3 8.2 C 0 km/h
2386 02-03-2003 09:26:11 8.6 C 7.82 g/m*3 8.6 C 0 km/h
2387 02-03-2003 09:26:37 8.6 C 7.82 g/m*3 8.6 C 0 km/h
2388 02-03-2003 09:32:11 8.8 C 7.92 g/m*3 8.8 C 0 km/h
2389 02-03-2003 09:32:37 8.8 C 7.92 g/m*3 8.8 C 0 km/h
2390 02-03-2003 09:38:11 9 C 7.85 g/m*3 9 C 0 km/h
2391 02-03-2003 09:38:37 9 C 7.85 g/m*3 9 C 0 km/h
2392 02-03-2003 09:44:11 9.1 C 7.9 g/m*3 9.1 C 0 km/h
2393 02-03-2003 09:44:37 9.1 C 7.9 g/m*3 9.1 C 0 km/h
2394 02-03-2003 09:50:11 9.5 C 8.1 g/m*3 9.5 C 0 km/h
2395 02-03-2003 09:50:37 9.5 C 8.1 g/m*3 9.5 C 0 km/h
2396 02-03-2003 09:56:11 9.6 C 8.06 g/m*3 9.6 C 0 km/h
2397 02-03-2003 09:56:37 9.6 C 8.06 g/m*3 9.6 C 0 km/h
2398 02-03-2003 10:02:11 10.1 C 7.66 g/m*3 10.1 C 0 km/h
2399 02-03-2003 10:02:37 10.1 C 7.66 g/m*3 10.1 C 0 km/h
2400 02-03-2003 10:08:11 10.2 C 7.52 g/m*3 10.2 C 0 km/h
Sensor: Nr:Datum:Temp:Abs-Feuchte:Windchill:Wind:
Aussen-T/F 2401 02-03-2003 10:08:37 10.2 C 7.52 g/m*3 10.2 C 0 km/h
2402 02-03-2003 10:14:11 10.4 C 7.61 g/m*3 10.4 C 0 km/h
2403 02-03-2003 10:14:37 10.4 C 7.61 g/m*3 10.4 C 0 km/h
2404 02-03-2003 10:20:11 10.8 C 7.81 g/m*3 10.8 C 0 km/h
2405 02-03-2003 10:20:37 10.8 C 7.81 g/m*3 10.8 C 0 km/h
2406 02-03-2003 10:26:11 11.1 C 7.96 g/m*3 11.1 C 0 km/h
2407 02-03-2003 10:26:37 11.1 C 7.96 g/m*3 11.1 C 0 km/h
2408 02-03-2003 10:32:11 11.3 C 7.65 g/m*3 11.3 C 0 km/h
2409 02-03-2003 10:32:37 11.3 C 7.65 g/m*3 11.3 C 0 km/h
2410 02-03-2003 10:38:11 11.4 C 7.6 g/m*3 11.4 C 0 km/h
2411 02-03-2003 10:38:37 11.4 C 7.6 g/m*3 11.4 C 0 km/h
2412 02-03-2003 10:44:11 11.5 C 7.44 g/m*3 11.5 C 0 km/h
2413 02-03-2003 10:44:37 11.5 C 7.44 g/m*3 11.5 C 0 km/h
2414 02-03-2003 10:50:11 11.4 C 7.08 g/m*3 11.4 C 0 km/h
2415 02-03-2003 10:50:37 11.4 C 7.08 g/m*3 11.4 C 0 km/h
2416 02-03-2003 10:56:11 11.1 C 6.85 g/m*3 11.1 C 0 km/h
2417 02-03-2003 10:56:37 11.1 C 6.85 g/m*3 11.1 C 0 km/h
2418 02-03-2003 11:02:11 11.2 C 6.99 g/m*3 11.2 C 0 km/h
2419 02-03-2003 11:02:37 11.2 C 6.99 g/m*3 11.2 C 0 km/h
2420 02-03-2003 11:08:11 11.2 C 6.89 g/m*3 11.2 C 0 km/h
2421 02-03-2003 11:08:37 11.2 C 6.89 g/m*3 11.2 C 0 km/h
2422 02-03-2003 11:14:11 11.2 C 6.89 g/m*3 11.2 C 0 km/h
2423 02-03-2003 11:14:37 11.2 C 6.89 g/m*3 11.2 C 0 km/h
2424 02-03-2003 11:20:11 11.1 C 6.75 g/m*3 11.1 C 0 km/h
2425 02-03-2003 11:20:37 11.1 C 6.75 g/m*3 11.1 C 0 km/h
Sensor: Nr:Datum:Temp:Abs-Feuchte:Windchill:Wind:
Aussen-T/F 2426 02-03-2003 11:26:11 11.2 C 6.79 g/m*3 11.2 C 0 km/h
2427 02-03-2003 11:26:37 11.2 C 6.79 g/m*3 11.2 C 0 km/h
2428 02-03-2003 11:32:11 11.3 C 6.73 g/m*3 11.3 C 0 km/h
2429 02-03-2003 11:32:37 11.3 C 6.73 g/m*3 11.3 C 0 km/h
2430 02-03-2003 11:38:11 11.5 C 6.92 g/m*3 11.5 C 0 km/h
2431 02-03-2003 11:38:37 11.5 C 6.92 g/m*3 11.5 C 0 km/h
2432 02-03-2003 11:44:11 11.8 C 7.05 g/m*3 11.8 C 0 km/h
2433 02-03-2003 11:44:37 11.8 C 7.05 g/m*3 11.8 C 0 km/h
2434 02-03-2003 11:50:11 11.9 C 6.99 g/m*3 11.9 C 0 km/h
2435 02-03-2003 11:50:37 11.9 C 6.99 g/m*3 11.9 C 0 km/h
2436 02-03-2003 11:56:11 11.7 C 6.9 g/m*3 11.7 C 0 km/h
2437 02-03-2003 11:56:37 11.7 C 6.9 g/m*3 11.7 C 0 km/h
2438 02-03-2003 12:02:37 11.3 C 6.94 g/m*3 11.3 C 0 km/h
2439 02-03-2003 12:02:54 11.3 C 6.94 g/m*3 11.3 C 0 km/h
2440 02-03-2003 12:08:37 11 C 7.01 g/m*3 11 C 0 km/h
2441 02-03-2003 12:08:54 11 C 7.01 g/m*3 11 C 0 km/h
2442 02-03-2003 12:14:37 10.4 C 7.04 g/m*3 10.4 C 0 km/h
2443 02-03-2003 12:14:54 10.4 C 7.04 g/m*3 10.4 C 0 km/h
2444 02-03-2003 12:20:37 10.2 C 7.23 g/m*3 10.2 C 0 km/h
2445 02-03-2003 12:20:54 10.2 C 7.23 g/m*3 10.2 C 0 km/h
2446 02-03-2003 12:26:37 10 C 7.24 g/m*3 10 C 0 km/h
2447 02-03-2003 12:26:54 10 C 7.24 g/m*3 10 C 0 km/h
2448 02-03-2003 12:32:37 9.6 C 7.24 g/m*3 9.6 C 0 km/h
2449 02-03-2003 12:32:54 9.6 C 7.24 g/m*3 9.6 C 0 km/h
2450 02-03-2003 12:38:37 9.7 C 7.56 g/m*3 9.7 C 0 km/h
Sensor: Nr:Datum:Temp:Abs-Feuchte:Windchill:Wind:
Aussen-T/F 2451 02-03-2003 12:38:54 9.7 C 7.56 g/m*3 9.7 C 0 km/h
2452 02-03-2003 12:44:37 10.1 C 7.75 g/m*3 10.1 C 0 km/h
2453 02-03-2003 12:44:54 10.1 C 7.75 g/m*3 10.1 C 0 km/h
2454 02-03-2003 12:50:37 10.4 C 7.81 g/m*3 10.4 C 0 km/h
2455 02-03-2003 12:50:54 10.4 C 7.81 g/m*3 10.4 C 0 km/h
2456 02-03-2003 12:56:37 10.5 C 7.66 g/m*3 10.5 C 0 km/h
2457 02-03-2003 12:56:54 10.5 C 7.66 g/m*3 10.5 C 0 km/h
2458 02-03-2003 13:02:37 10.6 C 7.61 g/m*3 10.6 C 0 km/h
2459 02-03-2003 13:02:54 10.6 C 7.61 g/m*3 10.6 C 0 km/h
2460 02-03-2003 13:08:37 10.6 C 7.42 g/m*3 10.6 C 0 km/h
2461 02-03-2003 13:08:54 10.6 C 7.42 g/m*3 10.6 C 0 km/h
2462 02-03-2003 13:14:37 10.7 C 7.27 g/m*3 10.7 C 0 km/h
2463 02-03-2003 13:14:54 10.7 C 7.27 g/m*3 10.7 C 0 km/h
2464 02-03-2003 13:20:37 11 C 7.61 g/m*3 11 C 0 km/h
2465 02-03-2003 13:20:54 11 C 7.61 g/m*3 11 C 0 km/h
2466 02-03-2003 13:26:37 11.1 C 7.25 g/m*3 11.1 C 0 km/h
2467 02-03-2003 13:26:54 11.1 C 7.25 g/m*3 11.1 C 0 km/h
2468 02-03-2003 13:32:37 11.1 C 7.25 g/m*3 11.1 C 0 km/h
2469 02-03-2003 13:32:54 11.1 C 7.25 g/m*3 11.1 C 0 km/h
2470 02-03-2003 13:38:37 11 C 7.21 g/m*3 11 C 0 km/h
2471 02-03-2003 13:38:54 11 C 7.21 g/m*3 11 C 0 km/h
2472 02-03-2003 13:44:37 11.1 C 7.55 g/m*3 11.1 C 0 km/h
2473 02-03-2003 13:44:54 11.1 C 7.55 g/m*3 11.1 C 0 km/h
2474 02-03-2003 13:50:37 10.8 C 7.61 g/m*3 10.8 C 0 km/h
2475 02-03-2003 13:50:54 10.8 C 7.61 g/m*3 10.8 C 0 km/h
Sensor: Nr:Datum:Temp:Abs-Feuchte:Windchill:Wind:
Aussen-T/F 2476 02-03-2003 13:56:37 10.6 C 7.52 g/m*3 10.6 C 0 km/h
2477 02-03-2003 13:56:54 10.6 C 7.52 g/m*3 10.6 C 0 km/h
2478 02-03-2003 14:02:37 10.2 C 7.33 g/m*3 10.2 C 0 km/h
2479 02-03-2003 14:02:54 10.2 C 7.33 g/m*3 10.2 C 0 km/h
2480 02-03-2003 14:08:37 10.2 C 7.33 g/m*3 10.2 C 0 km/h
2481 02-03-2003 14:08:54 10.2 C 7.33 g/m*3 10.2 C 0 km/h
2482 02-03-2003 14:14:37 9.9 C 7.66 g/m*3 9.9 C 0 km/h
2483 02-03-2003 14:14:54 9.9 C 7.66 g/m*3 9.9 C 0 km/h
2484 02-03-2003 14:20:37 9.7 C 7.65 g/m*3 9.7 C 0 km/h
2485 02-03-2003 14:20:54 9.7 C 7.65 g/m*3 9.7 C 0 km/h
2486 02-03-2003 14:26:37 10 C 7.8 g/m*3 10 C 0 km/h
2487 02-03-2003 14:26:54 10 C 7.8 g/m*3 10 C 0 km/h
2488 02-03-2003 14:32:37 10.1 C 7.56 g/m*3 10.1 C 0 km/h
2489 02-03-2003 14:32:54 10.1 C 7.56 g/m*3 10.1 C 0 km/h
2490 02-03-2003 14:38:37 10.1 C 7.28 g/m*3 10.1 C 0 km/h
2491 02-03-2003 14:38:54 10.1 C 7.28 g/m*3 10.1 C 0 km/h
2492 02-03-2003 14:44:37 9.8 C 7.24 g/m*3 9.8 C 0 km/h
2493 02-03-2003 14:44:54 9.8 C 7.24 g/m*3 9.8 C 0 km/h
2494 02-03-2003 14:50:37 9.6 C 7.15 g/m*3 9.6 C 0 km/h
2495 02-03-2003 14:50:54 9.6 C 7.15 g/m*3 9.6 C 0 km/h
2496 02-03-2003 14:56:37 9.6 C 7.24 g/m*3 9.6 C 0 km/h
2497 02-03-2003 14:56:54 9.6 C 7.24 g/m*3 9.6 C 0 km/h
2498 02-03-2003 15:02:37 9.4 C 7.05 g/m*3 9.4 C 0 km/h
2499 02-03-2003 15:02:54 9.4 C 7.05 g/m*3 9.4 C 0 km/h
2500 02-03-2003 15:08:10 9.5 C 7.1 g/m*3 9.5 C 0 km/h
Sensor: Nr:Datum:Temp:Abs-Feuchte:Windchill:Wind:
Aussen-T/F 2501 02-03-2003 15:08:37 9.5 C 7.1 g/m*3 9.5 C 0 km/h
2502 02-03-2003 15:14:10 9.6 C 7.33 g/m*3 9.6 C 0 km/h
2503 02-03-2003 15:14:37 9.6 C 7.33 g/m*3 9.6 C 0 km/h
2504 02-03-2003 15:20:10 9.4 C 6.87 g/m*3 9.4 C 0 km/h
2505 02-03-2003 15:20:37 9.4 C 6.87 g/m*3 9.4 C 0 km/h
2506 02-03-2003 15:26:10 9.5 C 6.64 g/m*3 9.5 C 0 km/h
2507 02-03-2003 15:26:37 9.5 C 6.64 g/m*3 9.5 C 0 km/h
2508 02-03-2003 15:32:10 9.7 C 6.64 g/m*3 9.7 C 0 km/h
2509 02-03-2003 15:32:37 9.7 C 6.64 g/m*3 9.7 C 0 km/h
2510 02-03-2003 15:38:10 9.6 C 6.5 g/m*3 9.6 C 0 km/h
2511 02-03-2003 15:38:37 9.6 C 6.5 g/m*3 9.6 C 0 km/h
2512 02-03-2003 15:44:10 9.9 C 6.82 g/m*3 9.9 C 0 km/h
2513 02-03-2003 15:44:37 9.9 C 6.82 g/m*3 9.9 C 0 km/h
2514 02-03-2003 15:50:10 10 C 6.58 g/m*3 10 C 0 km/h
2515 02-03-2003 15:50:37 10 C 6.58 g/m*3 10 C 0 km/h
2516 02-03-2003 15:56:10 10 C 6.58 g/m*3 10 C 0 km/h
2517 02-03-2003 15:56:37 10 C 6.58 g/m*3 10 C 0 km/h
2518 02-03-2003 16:02:02 9.9 C 6.54 g/m*3 9.9 C 0 km/h
2519 02-03-2003 16:02:37 9.9 C 6.54 g/m*3 9.9 C 0 km/h
2520 02-03-2003 16:08:02 9.7 C 6.45 g/m*3 9.7 C 0 km/h
2521 02-03-2003 16:08:37 9.7 C 6.45 g/m*3 9.7 C 0 km/h
2522 02-03-2003 16:14:02 9.7 C 6.64 g/m*3 9.7 C 0 km/h
2523 02-03-2003 16:14:37 9.7 C 6.64 g/m*3 9.7 C 0 km/h
2524 02-03-2003 16:20:02 9.7 C 6.55 g/m*3 9.7 C 0 km/h
2525 02-03-2003 16:20:37 9.7 C 6.55 g/m*3 9.7 C 0 km/h
Sensor: Nr:Datum:Temp:Abs-Feuchte:Windchill:Wind:
Aussen-T/F 2526 02-03-2003 16:26:02 9.7 C 6.55 g/m*3 9.7 C 0 km/h
2527 02-03-2003 16:26:37 9.7 C 6.55 g/m*3 9.7 C 0 km/h
2528 02-03-2003 16:32:02 9.8 C 6.59 g/m*3 9.8 C 0 km/h
2529 02-03-2003 16:32:37 9.8 C 6.59 g/m*3 9.8 C 0 km/h
2530 02-03-2003 16:38:02 10.1 C 6.52 g/m*3 10.1 C 0 km/h
2531 02-03-2003 16:38:37 10.1 C 6.52 g/m*3 10.1 C 0 km/h
2532 02-03-2003 16:44:02 10.1 C 6.34 g/m*3 10.1 C 0 km/h
2533 02-03-2003 16:44:37 10.1 C 6.34 g/m*3 10.1 C 0 km/h
2534 02-03-2003 16:50:02 10 C 6.3 g/m*3 10 C 0 km/h
2535 02-03-2003 16:50:37 10 C 6.3 g/m*3 10 C 0 km/h
2536 02-03-2003 16:56:02 9.9 C 6.44 g/m*3 9.9 C 0 km/h
2537 02-03-2003 16:56:37 9.9 C 6.44 g/m*3 9.9 C 0 km/h
2538 02-03-2003 17:02:02 9.8 C 6.4 g/m*3 9.8 C 0 km/h
2539 02-03-2003 17:02:37 9.8 C 6.4 g/m*3 9.8 C 0 km/h
2540 02-03-2003 17:08:02 9.7 C 6.55 g/m*3 9.7 C 0 km/h
2541 02-03-2003 17:08:37 9.7 C 6.55 g/m*3 9.7 C 0 km/h
2542 02-03-2003 17:14:02 9.6 C 6.32 g/m*3 9.6 C 0 km/h
2543 02-03-2003 17:14:37 9.6 C 6.32 g/m*3 9.6 C 0 km/h
2544 02-03-2003 17:20:02 9.6 C 6.32 g/m*3 9.6 C 0 km/h
2545 02-03-2003 17:20:37 9.6 C 6.32 g/m*3 9.6 C 0 km/h
2546 02-03-2003 17:26:02 9.5 C 6.28 g/m*3 9.5 C 0 km/h
2547 02-03-2003 17:26:37 9.5 C 6.28 g/m*3 9.5 C 0 km/h
2548 02-03-2003 17:32:02 9.3 C 6.2 g/m*3 9.3 C 0 km/h
2549 02-03-2003 17:32:37 9.3 C 6.2 g/m*3 9.3 C 0 km/h
2550 02-03-2003 17:38:02 9.2 C 6.16 g/m*3 9.2 C 0 km/h
Sensor: Nr:Datum:Temp:Abs-Feuchte:Windchill:Wind:
Aussen-T/F 2551 02-03-2003 17:38:37 9.2 C 6.16 g/m*3 9.2 C 0 km/h
2552 02-03-2003 17:44:32 9.3 C 6.2 g/m*3 9.3 C 0 km/h
2553 02-03-2003 17:44:37 9.3 C 6.2 g/m*3 9.3 C 0 km/h
2554 02-03-2003 17:50:32 9.3 C 6.2 g/m*3 9.3 C 0 km/h
2555 02-03-2003 17:50:37 9.3 C 6.2 g/m*3 9.3 C 0 km/h
2556 02-03-2003 17:56:37 9.2 C 6.16 g/m*3 9.2 C 0 km/h
2557 02-03-2003 18:02:37 9.1 C 6.03 g/m*3 9.1 C 0 km/h
2558 02-03-2003 18:08:37 9 C 5.99 g/m*3 9 C 0 km/h
2559 02-03-2003 18:14:37 8.9 C 6.04 g/m*3 8.9 C 0 km/h
2560 02-03-2003 18:20:37 8.6 C 5.93 g/m*3 8.6 C 0 km/h
2561 02-03-2003 18:26:37 8.3 C 5.98 g/m*3 8.3 C 0 km/h
2562 02-03-2003 18:32:37 8.2 C 5.95 g/m*3 8.2 C 0 km/h
2563 02-03-2003 18:38:37 8.1 C 5.91 g/m*3 8.1 C 0 km/h
2564 02-03-2003 18:44:37 8 C 5.87 g/m*3 8 C 0 km/h
2565 02-03-2003 18:50:37 7.9 C 6 g/m*3 7.9 C 0 km/h
2566 02-03-2003 18:56:37 7.8 C 6.04 g/m*3 7.8 C 0 km/h
2567 02-03-2003 19:02:37 7.7 C 6 g/m*3 7.7 C 0 km/h
2568 02-03-2003 19:08:37 7.8 C 5.96 g/m*3 7.8 C 0 km/h
2569 02-03-2003 19:14:37 7.8 C 6.04 g/m*3 7.8 C 0 km/h
2570 02-03-2003 19:20:37 7.7 C 6 g/m*3 7.7 C 0 km/h
2571 02-03-2003 19:26:37 7.5 C 6 g/m*3 7.5 C 0 km/h
2572 02-03-2003 19:32:37 7.5 C 6 g/m*3 7.5 C 0 km/h
2573 02-03-2003 19:38:37 7.4 C 6.04 g/m*3 7.4 C 0 km/h
2574 02-03-2003 19:44:37 7.5 C 6 g/m*3 7.5 C 0 km/h
2575 02-03-2003 19:50:37 7.7 C 6 g/m*3 7.7 C 0 km/h
Sensor: Nr:Datum:Temp:Abs-Feuchte:Windchill:Wind:
Aussen-T/F 2576 02-03-2003 19:56:37 7.6 C 5.88 g/m*3 7.6 C 0 km/h
2577 02-03-2003 20:02:37 7.5 C 5.92 g/m*3 7.5 C 0 km/h
2578 02-03-2003 20:08:37 7.5 C 5.92 g/m*3 7.5 C 0 km/h
2579 02-03-2003 20:14:37 7.5 C 5.92 g/m*3 7.5 C 0 km/h
2580 02-03-2003 20:20:37 7.4 C 5.88 g/m*3 7.4 C 0 km/h
2581 02-03-2003 20:26:37 7.3 C 5.85 g/m*3 7.3 C 0 km/h
2582 02-03-2003 20:32:37 7 C 5.81 g/m*3 7 C 0 km/h
2583 02-03-2003 20:38:37 6.9 C 5.85 g/m*3 6.9 C 0 km/h
2584 02-03-2003 20:44:37 6.6 C 5.81 g/m*3 6.6 C 0 km/h
2585 02-03-2003 20:51:11 6.3 C 5.77 g/m*3 6.3 C 0 km/h
2586 02-03-2003 20:57:11 6 C 5.73 g/m*3 6 C 0 km/h
2587 02-03-2003 21:03:11 5.9 C 5.77 g/m*3 5.9 C 0 km/h
2588 02-03-2003 21:09:11 5.9 C 5.84 g/m*3 5.9 C 0 km/h
2589 02-03-2003 21:15:11 6 C 5.81 g/m*3 6 C 0 km/h
2590 02-03-2003 21:21:11 6 C 5.81 g/m*3 6 C 0 km/h
2591 02-03-2003 21:27:11 5.9 C 5.84 g/m*3 5.9 C 0 km/h
2592 02-03-2003 21:33:11 5.9 C 5.84 g/m*3 5.9 C 0 km/h
2593 02-03-2003 21:39:11 6 C 5.81 g/m*3 6 C 0 km/h
2594 02-03-2003 21:45:11 6 C 5.81 g/m*3 6 C 0 km/h
2595 02-03-2003 21:51:11 5.9 C 5.84 g/m*3 5.9 C 0 km/h
2596 02-03-2003 21:57:11 5.9 C 5.91 g/m*3 5.9 C 0 km/h
2597 02-03-2003 22:03:11 6 C 5.88 g/m*3 6 C 0 km/h
2598 02-03-2003 22:09:11 6.3 C 5.92 g/m*3 6.3 C 0 km/h
2599 02-03-2003 22:15:11 6.7 C 6 g/m*3 6.7 C 0 km/h
2600 02-03-2003 22:21:11 6.7 C 5.93 g/m*3 6.7 C 0 km/h
Sensor: Nr:Datum:Temp:Abs-Feuchte:Windchill:Wind:
Aussen-T/F 2601 02-03-2003 22:27:11 6.7 C 5.93 g/m*3 6.7 C 0 km/h
2602 02-03-2003 22:39:11 6.8 C 5.89 g/m*3 6.8 C 0 km/h
2603 02-03-2003 22:45:11 6.9 C 5.93 g/m*3 6.9 C 0 km/h
2604 02-03-2003 22:51:11 6.9 C 5.93 g/m*3 6.9 C 0 km/h
2605 02-03-2003 22:57:11 6.8 C 5.81 g/m*3 6.8 C 0 km/h
2606 02-03-2003 23:03:11 6.7 C 5.85 g/m*3 6.7 C 0 km/h
2607 02-03-2003 23:09:11 6.8 C 5.89 g/m*3 6.8 C 0 km/h
2608 02-03-2003 23:15:11 6.8 C 5.89 g/m*3 6.8 C 0 km/h
2609 02-03-2003 23:21:11 6.8 C 5.89 g/m*3 6.8 C 0 km/h
2610 02-03-2003 23:27:11 6.7 C 5.85 g/m*3 6.7 C 0 km/h
2611 02-03-2003 23:33:11 6.7 C 5.85 g/m*3 6.7 C 0 km/h
2612 02-03-2003 23:39:11 6.7 C 5.85 g/m*3 6.7 C 0 km/h
2613 02-03-2003 23:45:11 6.7 C 5.93 g/m*3 6.7 C 0 km/h
2614 02-03-2003 23:51:11 6.7 C 5.93 g/m*3 6.7 C 0 km/h
2615 02-03-2003 23:57:11 6.5 C 5.85 g/m*3 6.5 C 0 km/h

Legende:
   Min
   Max


Maximal/Minimal-Werte vom 24.02.2003 - 02.03.2003

Sensor Min Max Avg
Temp
(Aussen-T/F)
-5.5 °C
25-02-2003  07:21:09
18.2 °C
27-02-2003  15:53:10
5.81 °C
Abs-Feuchte
(Aussen-T/F)
2.53 g/m*3
25-02-2003  07:21:09
8.1 g/m*3
02-03-2003  09:50:11
5.04 g/m*3
Windchill
(Aussen-T/F)
-5.5 C
25-02-2003  07:21:09
18.2 C
27-02-2003  15:53:10
5.81 C

Die Daten stammen von einer Davis Vantage Pro 2 Wetter-Station und werden unter Linux mit der Software wview2wettercgi und aufbereitet. Alle Angaben erfolgen ohne Gewähr für ihre Vollständigkeit oder Richtigkeit.
Kontakt: Rainer Krienke krienke@uni-koblenz.de . Meine Webseiten an der Uni Koblenz oder privat.
Version: $Revision: 0.78 $